ftp/pub/palmer/observations_modified/2019/November/AR191118_BASE.txt

Download

Sample DateTime	Unit Id	WS Avg 2min	WD Avg 2min	WGS 10min	WGD 10min	Air Temp	Rel Humidity	Dew Point	Pyranometer	Quantum	Air Pressure	Snow Level	Rainfall	PW Current	Visibility	CBase 1	CBase 2	CBase 3	Vert Vis
2019/11/18  00:00:00  BASE  2.07564  312  2.69304  301  -0.4  100   -0.4  25    0     970.9    NA       0.0000   FZFG     0550  0     0    
2019/11/18  00:01:00  BASE  2.09328  301  2.69304  301  -0.4  100   -0.4  26    0     970.9    NA       0.0000   FZFG     0500  0     0    
2019/11/18  00:02:00  BASE  2.24028  301  2.69304  301  -0.4  100   -0.4  27    0     970.9    NA       0.0000   FZFG     0550  0     0    
2019/11/18  00:03:00  BASE  2.38728  308  2.63424  306  -0.5  100   -0.5  28    0     970.9    NA       0.0000   FZFG     0600  0     0    
2019/11/18  00:04:00  BASE  2.47548  313  2.69304  316  -0.5  100   -0.5  28    0     970.9    NA       0.0000   FZFG     0600  0     0    
2019/11/18  00:05:00  BASE  2.5284   316  2.75184  316  -0.5  100   -0.5  28    0     970.9    NA       0.0000   FZFG     0450  0     0    
2019/11/18  00:06:00  BASE  2.79888  318  3.1458   318  -0.5  100   -0.5  29    0     970.9    NA       0.0000   FZFG     0450  0     0    
2019/11/18  00:07:00  BASE  3.01056  317  3.29868  316  -0.5  100   -0.5  30    0     970.9    NA       0.0000   FZFG     0500  0     0    
2019/11/18  00:08:00  BASE  2.9988   316  3.29868  316  -0.5  100   -0.5  31    0     970.9    NA       0.0000   FZFG     0550  0     0    
2019/11/18  00:09:00  BASE  3.01056  320  3.29868  316  -0.5  100   -0.5  33    0     970.9    NA       0.0000   FZFG     0500  0     0    
2019/11/18  00:10:00  BASE  2.95764  323  3.29868  316  -0.5  100   -0.5  32    0     970.9    NA       0.0000   FZFG     0550  0     0    
2019/11/18  00:11:00  BASE  2.72244  328  3.29868  316  -0.5  100   -0.5  31    0     970.9    NA       0.0000   FZFG     0600  0     0    
2019/11/18  00:12:00  BASE  2.3814   336  3.29868  316  -0.5  100   -0.5  30    0     970.9    NA       0.0000   FZFG     0750  0     0    
2019/11/18  00:13:00  BASE  2.4108   329  3.29868  316  -0.5  100   -0.5  30    0     970.9    NA       0.0000   FZFG     1000  0     0    
2019/11/18  00:14:00  BASE  2.59896  326  3.29868  316  -0.5  100   -0.5  30    0     970.9    NA       0.0000   FZFG     0650  0     0    
2019/11/18  00:15:00  BASE  2.55192  329  3.29868  316  -0.5  100   -0.5  27    0     970.9    NA       0.0000   FZFG     0600  0     0    
2019/11/18  00:16:00  BASE  2.5284   322  3.29868  316  -0.5  100   -0.5  25    0     970.9    NA       0.0000   FZFG     0500  0     0    
2019/11/18  00:17:00  BASE  2.74008  317  3.2046   323  -0.5  100   -0.5  25    0     970.9    NA       0.0000   FZFG     0450  0     0    
2019/11/18  00:18:00  BASE  2.9106   317  3.2046   323  -0.6  100   -0.6  25    0     970.9    NA       0.0000   FZFG     0400  0     0    
2019/11/18  00:19:00  BASE  3.00468  320  3.44568  323  -0.6  100   -0.6  25    0     970.8    NA       0.0000   FZFG     0400  0     0    
2019/11/18  00:20:00  BASE  3.16932  326  3.44568  323  -0.6  100   -0.6  24    0     970.8    NA       0.0000   FZFG     0450  0     0    
2019/11/18  00:21:00  BASE  3.19284  331  3.44568  323  -0.6  100   -0.6  21    0     970.8    NA       0.0000   FZFG     0600  0     0    
2019/11/18  00:22:00  BASE  2.89296  335  3.44568  323  -0.5  100   -0.5  19    0     970.9    NA       0.0000   FZFG     0800  0     0    
2019/11/18  00:23:00  BASE  2.52252  328  3.44568  323  -0.5  100   -0.5  19    0     970.9    NA       0.0000   FZFG     1000  0     0    
2019/11/18  00:24:00  BASE  2.49312  313  3.44568  323  -0.5  100   -0.5  19    0     970.9    NA       0.0000   FZFG     0600  0     0    
2019/11/18  00:25:00  BASE  2.80476  313  3.59856  325  -0.5  100   -0.5  18    0     970.9    NA       0.0000   FZFG     0500  0     0    
2019/11/18  00:26:00  BASE  2.74596  319  3.59856  325  -0.5  100   -0.5  16    0     970.9    NA       0.0000   FZFG     0450  0     0    
2019/11/18  00:27:00  BASE  2.4402   320  3.59856  325  -0.5  100   -0.5  15    0     970.9    NA       0.0000   FZFG     0400  0     0    
2019/11/18  00:28:00  BASE  2.61072  322  3.59856  325  -0.5  100   -0.5  14    0     970.9    NA       0.0000   FZFG     0450  0     0    
2019/11/18  00:29:00  BASE  2.84592  321  3.59856  325  -0.6  100   -0.6  14    0     970.9    NA       0.0000   FZFG     0500  0     0    
2019/11/18  00:30:00  BASE  2.95764  325  3.59856  325  -0.6  100   -0.6  13    0     970.9    NA       0.0000   FZFG     0500  0     0    
2019/11/18  00:31:00  BASE  2.6754   323  3.59856  325  -0.6  100   -0.6  13    0     970.9    NA       0.0000   FZFG     0550  0     0    
2019/11/18  00:32:00  BASE  2.35788  316  3.59856  325  -0.6  100   -0.6  13    0     970.8    NA       0.0000   FZFG     0550  0     0    
2019/11/18  00:33:00  BASE  2.48724  310  3.59856  325  -0.6  100   -0.6  12    0     970.8    NA       0.0000   FZFG     0500  0     0    
2019/11/18  00:34:00  BASE  2.50488  301  3.59856  325  -0.6  100   -0.6  12    0     970.8    NA       0.0000   FZFG     0500  0     0    
2019/11/18  00:35:01  BASE  2.39904  297  3.32808  332  -0.6  100   -0.6  12    0     970.8    NA       0.0000   FZFG     0550  0     0    
2019/11/18  00:36:00  BASE  2.44608  298  3.32808  332  -0.6  100   -0.6  12    0     970.8    NA       0.0000   FZFG     0500  0     0    
2019/11/18  00:37:00  BASE  2.5578   298  3.32808  332  -0.6  100   -0.6  11    0     970.8    NA       0.0000   FZFG     0450  0     0    
2019/11/18  00:38:00  BASE  2.7342   296  3.32808  332  -0.6  100   -0.6  11    0     970.8    NA       0.0000   FZFG     0450  0     0    
2019/11/18  00:39:00  BASE  2.81064  293  3.32808  332  -0.6  100   -0.6  10    0     970.8    NA       0.0000   FZFG     0500  0     0    
2019/11/18  00:40:00  BASE  2.54016  289  3.087    301  -0.7  100   -0.7  10    0     970.8    NA       0.0000   FZFG     0500  0     0    
2019/11/18  00:41:00  BASE  2.34612  290  3.087    301  -0.7  100   -0.7  10    0     970.8    NA       0.0000   FZFG     0500  0     0    
2019/11/18  00:42:00  BASE  2.45196  291  2.99292  298  -0.7  100   -0.7  9     0     970.7    NA       0.0000   FZFG     0450  0     0    
2019/11/18  00:43:00  BASE  2.47548  287  2.99292  298  -0.8  100   -0.8  9     0     970.6    NA       0.0000   FZFG     0500  0     0    
2019/11/18  00:44:00  BASE  2.48136  280  2.99292  298  -0.8  100   -0.8  9     0     970.6    NA       0.0000   FZFG     0450  0     0    
2019/11/18  00:45:00  BASE  2.499    283  2.99292  298  -0.8  100   -0.8  9     0     970.6    NA       0.0000   FZFG     0450  0     0    
2019/11/18  00:46:00  BASE  2.5872   293  2.99292  298  -0.8  100   -0.8  8     0     970.6    NA       0.0000   FZFG     0450  0     0    
2019/11/18  00:47:00  BASE  2.59896  298  2.96352  294  -0.8  100   -0.8  8     0     970.6    NA       0.0000   FZFG     0400  0     0    
2019/11/18  00:48:00  BASE  2.15208  302  2.96352  294  -0.8  100   -0.8  7     0     970.6    NA       0.0000   FZFG     0400  0     0    
2019/11/18  00:49:00  BASE  2.06388  311  2.96352  294  -0.8  100   -0.8  7     0     970.6    NA       0.0000   FZFG     0400  0     0    
2019/11/18  00:50:00  BASE  2.2638   315  2.96352  294  -0.8  100   -0.8  7     0     970.6    NA       0.0000   FZFG     0400  0     0    
2019/11/18  00:51:00  BASE  2.0874   306  2.96352  294  -0.8  100   -0.8  7     0     970.6    NA       0.0000   FZFG     0400  0     0    
2019/11/18  00:52:00  BASE  2.07564  298  2.96352  294  -0.7  100   -0.7  7     0     970.6    NA       0.0000   FZFG     0450  0     0    
2019/11/18  00:53:00  BASE  1.911    299  2.96352  294  -0.7  100   -0.7  7     0     970.6    NA       0.0000   FZFG     0450  0     0    
2019/11/18  00:54:00  BASE  1.7934   303  2.96352  294  -0.7  100   -0.7  6     0     970.6    NA       0.0000   FZFG     0400  0     0    
2019/11/18  00:55:00  BASE  1.90512  302  2.96352  294  -0.7  100   -0.7  6     0     970.6    NA       0.0000   FZFG     0450  0     0    
2019/11/18  00:56:00  BASE  1.7052   301  2.87532  295  -0.7  100   -0.7  6     0     970.6    NA       0.0000   FZFG     0450  0     0    
2019/11/18  00:57:00  BASE  1.59348  303  2.69304  311  -0.7  100   -0.7  6     0     970.6    NA       0.0000   FZFG     0500  0     0    
2019/11/18  00:58:00  BASE  1.56996  305  2.69304  311  -0.7  100   -0.7  6     0     970.6    NA       0.0000   FZFG     0600  0     0    
2019/11/18  00:59:00  BASE  1.3524   311  2.45196  311  -0.7  100   -0.7  6     0     970.6    NA       0.0000   FZFG     0600  0     0    
2019/11/18  01:00:00  BASE  1.2348   318  2.42256  296  -0.7  100   -0.7  5     0     970.6    NA       0.0000   FZFG     0550  0     0    
2019/11/18  01:01:00  BASE  1.2642   314  2.42256  296  -0.7  100   -0.7  5     0     970.6    NA       0.0000   FZFG     0550  0     0    
2019/11/18  01:02:00  BASE  1.18188  309  2.26968  298  -0.7  100   -0.7  5     0     970.6    NA       0.0000   FZFG     0500  0     0    
2019/11/18  01:03:00  BASE  0.93492  313  2.26968  298  -0.8  100   -0.8  4     0     970.6    NA       0.0000   FZFG     0600  0     0    
2019/11/18  01:04:00  BASE  0.52332  323  1.96392  303  -0.8  100   -0.8  4     0     970.6    NA       0.0000   FZFG     0650  0     0    
2019/11/18  01:05:00  BASE  0.6468   331  1.87572  306  -0.8  100   -0.8  4     0     970.6    NA       0.0000   FZFG     0600  0     0    
2019/11/18  01:06:00  BASE  1.37004  331  1.9992   329  -0.8  100   -0.8  4     0     970.6    NA       0.0000   FZFG     0650  0     0    
2019/11/18  01:07:00  BASE  1.62288  331  1.9992   329  -0.8  100   -0.8  4     0     970.6    NA       0.0000   FZFG     0600  0     0    
2019/11/18  01:08:00  BASE  1.617    334  1.9992   329  -0.8  100   -0.8  4     0     970.6    NA       0.0000   FZFG     0550  0     0    
2019/11/18  01:09:00  BASE  1.66992  335  1.9992   329  -0.8  100   -0.8  4     0     970.6    NA       0.0000   FZFG     0500  0     0    
2019/11/18  01:10:00  BASE  1.74636  339  1.9992   329  -0.8  100   -0.8  4     0     970.6    NA       0.0000   FZFG     0500  0     0    
2019/11/18  01:11:00  BASE  1.86984  343  2.0874   345  -0.7  100   -0.7  4     0     970.6    NA       0.0000   FZFG     0600  0     0    
2019/11/18  01:12:00  BASE  1.72872  346  2.0874   345  -0.7  100   -0.7  3     0     970.6    NA       0.0000   FZFG     0550  0     0    
2019/11/18  01:13:00  BASE  1.62876  346  2.0874   343  -0.7  100   -0.7  3     0     970.6    NA       0.0000   FZFG     0450  0     0    
2019/11/18  01:14:00  BASE  1.76988  342  2.0874   343  -0.7  100   -0.7  3     0     970.6    NA       0.0000   FZFG     0450  0     0    
2019/11/18  01:15:00  BASE  2.05212  335  2.56956  319  -0.7  100   -0.7  3     0     970.6    NA       0.0000   FZFG     0450  0     0    
2019/11/18  01:16:00  BASE  2.31672  333  2.56956  335  -0.7  100   -0.7  3     0     970.5    NA       0.0000   FZFG     0400  0     0    
2019/11/18  01:17:00  BASE  2.28144  343  2.56956  335  -0.7  100   -0.7  3     0     970.5    NA       0.0000   FZFG     0400  0     0    
2019/11/18  01:18:00  BASE  2.13444  348  2.56956  335  -0.7  100   -0.7  3     0     970.5    NA       0.0000   FZFG     0550  0     0    
2019/11/18  01:19:00  BASE  2.14032  352  2.56956  335  -0.7  100   -0.7  3     0     970.5    NA       0.0000   FZFG     0600  0     0    
2019/11/18  01:20:00  BASE  2.28144  359  2.56956  360  -0.7  100   -0.7  3     0     970.4    NA       0.0000   FZFG     0550  0     0    
2019/11/18  01:21:00  BASE  2.39904  1    2.59896  360  -0.7  100   -0.7  2     0     970.4    NA       0.0000   FZFG     0650  0     0    
2019/11/18  01:22:00  BASE  2.34024  3    2.59896  360  -0.6  100   -0.6  2     0     970.4    NA       0.0000   FZFG     0700  0     0    
2019/11/18  01:23:00  BASE  2.36376  8    2.59896  360  -0.6  100   -0.6  2     0     970.4    NA       0.0000   FZFG     0700  0     0    
2019/11/18  01:24:00  BASE  2.43432  5    2.59896  360  -0.6  100   -0.6  2     0     970.4    NA       0.0000   FZFG     0550  0     0    
2019/11/18  01:25:00  BASE  2.25204  5    2.59896  360  -0.6  100   -0.6  2     0     970.5    NA       0.0000   FZFG     0550  0     0    
2019/11/18  01:26:00  BASE  2.1756   6    2.59896  360  -0.6  100   -0.6  2     0     970.6    NA       0.0000   FZFG     0600  0     0    
2019/11/18  01:27:00  BASE  2.12268  3    2.59896  360  -0.6  100   -0.6  2     0     970.6    NA       0.0000   FZFG     0650  0     0    
2019/11/18  01:28:00  BASE  2.02272  3    2.59896  360  -0.6  100   -0.6  2     0     970.6    NA       0.0000   FZFG     0600  0     0    
2019/11/18  01:29:00  BASE  2.08152  8    2.59896  360  -0.6  100   -0.6  1     0     970.6    NA       0.0000   FZFG     0600  0     0    
2019/11/18  01:30:00  BASE  2.04624  9    2.59896  360  -0.6  100   -0.6  1     0     970.6    NA       0.0000   FZFG     0600  0     0    
2019/11/18  01:31:00  BASE  1.90512  9    2.56956  10   -0.6  100   -0.6  1     0     970.6    NA       0.0000   FZFG     0550  0     0    
2019/11/18  01:32:00  BASE  1.84632  7    2.56956  10   -0.6  100   -0.6  1     0     970.6    NA       0.0000   FZFG     0600  0     0    
2019/11/18  01:33:00  BASE  1.7346   6    2.54016  3    -0.6  100   -0.6  1     0     970.6    NA       0.0000   FZFG     0650  0     0    
2019/11/18  01:34:00  BASE  1.58172  3    2.35788  2    -0.6  100   -0.6  1     0     970.5    NA       0.0000   FZFG     0700  0     0    
2019/11/18  01:35:00  BASE  1.64052  356  2.35788  2    -0.6  100   -0.6  1     0     970.5    NA       0.0000   FZFG     0750  0     0    
2019/11/18  01:36:00  BASE  1.75812  356  2.26968  2    -0.6  100   -0.6  1     0     970.4    NA       0.0000   FZFG     0600  0     0    
2019/11/18  01:37:00  BASE  1.66992  359  2.26968  2    -0.7  100   -0.7  1     0     970.4    NA       0.0000   FZFG     0600  0     0    
2019/11/18  01:38:00  BASE  1.59936  359  2.24028  11   -0.7  100   -0.7  1     0     970.4    NA       0.0000   FZFG     0600  0     0    
2019/11/18  01:39:00  BASE  1.4406   357  2.1168   11   -0.7  100   -0.7  1     0     970.4    NA       0.0000   FZFG     0600  0     0    
2019/11/18  01:40:00  BASE  1.39356  355  1.90512  2    -0.7  100   -0.7  1     0     970.4    NA       0.0000   FZFG     0600  0     0    
2019/11/18  01:41:00  BASE  1.5582   348  1.90512  2    -0.6  100   -0.6  1     0     970.4    NA       0.0000   FZFG     0550  0     0    
2019/11/18  01:42:00  BASE  1.44648  339  1.87572  353  -0.6  100   -0.6  1     0     970.4    NA       0.0000   FZFG     0450  0     0    
2019/11/18  01:43:00  BASE  1.25244  341  1.87572  353  -0.6  100   -0.6  1     0     970.4    NA       0.0000   FZFG     0400  0     0    
2019/11/18  01:44:00  BASE  1.3524   350  1.87572  353  -0.6  100   -0.6  1     0     970.4    NA       0.0000   FZFG     0450  0     0    
2019/11/18  01:45:00  BASE  1.45236  350  1.87572  353  -0.6  100   -0.6  1     0     970.4    NA       0.0000   FZFG     1200  0     0    
2019/11/18  01:46:00  BASE  1.39356  345  1.81692  351  -0.6  100   -0.6  1     0     970.4    NA       0.0000   FZFG     1100  0     0    
2019/11/18  01:47:00  BASE  1.29948  342  1.75224  341  -0.6  100   -0.6  1     0     970.4    NA       0.0000   FZFG     1200  0     0    
2019/11/18  01:48:00  BASE  1.2348   337  1.75224  341  -0.6  100   -0.6  1     0     970.4    NA       0.0000   FZFG     1300  0     0    
2019/11/18  01:49:00  BASE  1.3524   331  1.75224  341  -0.6  100   -0.6  1     0     970.4    NA       0.0000   FZFG     1400  0     0    
2019/11/18  01:50:00  BASE  1.22304  331  1.75224  341  -0.6  100   -0.6  0     0     970.4    NA       0.0000   FZFG     1400  0     0    
2019/11/18  01:51:00  BASE  0.88788  336  1.63464  332  -0.6  100   -0.6  0     0     970.4    NA       0.0000   FZFG     1100  0     0    
2019/11/18  01:52:00  BASE  0.9114   340  1.63464  332  -0.6  100   -0.6  0     0     970.4    NA       0.0000   BR       1300  0     0    
2019/11/18  01:53:00  BASE  0.9702   341  1.63464  332  -0.6  100   -0.6  0     0     970.4    NA       0.0000   BR       1200  0     0    
2019/11/18  01:54:00  BASE  0.88788  341  1.63464  332  -0.6  100   -0.6  0     0     970.4    NA       0.0000   BR       1400  0     0    
2019/11/18  01:55:00  BASE  1.00548  334  1.63464  332  -0.6  100   -0.6  0     0     970.4    NA       0.0000   BR       1600  0     0    
2019/11/18  01:56:00  BASE  1.05252  325  1.63464  332  -0.6  100   -0.6  0     0     970.4    NA       0.0000   BR       1300  0     0    
2019/11/18  01:57:00  BASE  0.6468   307  1.63464  332  -0.5  100   -0.5  0     0     970.4    NA       0.0000   BR       1100  0     0    
2019/11/18  01:58:00  BASE  0.1764   283  1.63464  332  -0.5  100   -0.5  0     0     970.4    NA       0.0000   BR       1000  0     0    
2019/11/18  01:59:00  BASE  0.08232  296  1.42296  329  -0.5  100   -0.5  0     0     970.4    NA       0.0000   BR       0900  0     0    
2019/11/18  02:00:00  BASE  0.2058   306  1.42296  329  -0.5  100   -0.5  0     0     970.4    NA       0.0000   BR       1000  0     0    
2019/11/18  02:01:00  BASE  0.60564  297  1.42296  329  -0.5  100   -0.5  0     0     970.4    NA       0.0000   BR       1000  0     0    
2019/11/18  02:02:00  BASE  1.02312  308  1.42296  329  -0.5  100   -0.5  0     0     970.4    NA       0.0000   BR       0900  0     0    
2019/11/18  02:03:00  BASE  1.18776  320  1.75224  302  -0.5  100   -0.5  0     0     970.4    NA       0.0000   BR       0800  0     0    
2019/11/18  02:04:00  BASE  1.2054   318  1.75224  302  -0.5  100   -0.5  0     0     970.4    NA       0.0000   BR       0800  0     0    
2019/11/18  02:05:00  BASE  0.98196  314  1.75224  302  -0.5  100   -0.5  0     0     970.4    NA       0.0000   BR       0700  0     0    
2019/11/18  02:06:00  BASE  1.0584   317  1.75224  302  -0.6  100   -0.6  0     0     970.4    NA       0.0000   BR       0700  0     0    
2019/11/18  02:07:00  BASE  1.29948  315  1.75224  302  -0.6  100   -0.6  0     0     970.4    NA       0.0000   FZFG     0700  0     0    
2019/11/18  02:08:00  BASE  1.53468  310  1.96392  308  -0.6  100   -0.6  0     0     970.4    NA       0.0000   FZFG     0750  0     0    
2019/11/18  02:09:00  BASE  1.62288  309  1.96392  308  -0.6  100   -0.6  0     0     970.4    NA       0.0000   FZFG     0750  0     0    
2019/11/18  02:10:00  BASE  1.75224  301  2.45196  298  -0.5  100   -0.5  0     0     970.4    NA       0.0000   FZFG     0700  0     0    
2019/11/18  02:11:00  BASE  1.91688  287  2.45196  298  -0.5  100   -0.5  0     0     970.4    NA       0.0000   FZFG     0700  0     0    
2019/11/18  02:12:00  BASE  1.84632  277  2.45196  298  -0.5  100   -0.5  0     0     970.4    NA       0.0000   FZFG     0700  0     0    
2019/11/18  02:13:00  BASE  1.4994   252  2.45196  298  -0.5  100   -0.5  0     0     970.4    NA       0.0000   FZFG     0700  0     0    
2019/11/18  02:14:00  BASE  1.21128  232  2.45196  298  -0.5  100   -0.5  0     0     970.4    NA       0.0000   FZFG     0800  0     0    
2019/11/18  02:15:00  BASE  1.2642   235  2.45196  298  -0.6  100   -0.6  0     0     970.4    NA       0.0000   FZFG     0900  0     0    
2019/11/18  02:16:00  BASE  1.22304  237  2.45196  298  -0.6  100   -0.6  0     0     970.4    NA       0.0000   FZFG     0800  0     0    
2019/11/18  02:17:00  BASE  1.12896  234  2.45196  298  -0.7  100   -0.7  0     0     970.4    NA       0.0000   FZFG     0800  0     0    
2019/11/18  02:18:00  BASE  0.9114   229  2.45196  298  -0.7  100   -0.7  0     0     970.4    NA       0.0000   FZFG     0900  0     0    
2019/11/18  02:19:00  BASE  0.74676  230  2.45196  298  -0.7  100   -0.7  0     0     970.4    NA       0.0000   FZFG     0800  0     0    
2019/11/18  02:20:00  BASE  0.65856  238  2.0874   286  -0.7  100   -0.7  0     0     970.4    NA       0.0000   FZFG     0700  0     0    
2019/11/18  02:21:00  BASE  0.68796  246  2.058    260  -0.7  100   -0.7  0     0     970.4    NA       0.0000   FZFG     0650  0     0    
2019/11/18  02:22:00  BASE  0.62916  257  1.63464  256  -0.7  100   -0.7  0     0     970.4    NA       0.0000   FZFG     0650  0     0    
2019/11/18  02:23:00  BASE  0.24108  285  1.42296  235  -0.7  100   -0.7  0     0     970.4    NA       0.0000   FZFG     0600  0     0    
2019/11/18  02:24:00  BASE  0        293  1.42296  235  -0.7  100   -0.7  0     0     970.4    NA       0.0000   FZFG     0600  0     0    
2019/11/18  02:25:00  BASE  0.15876  261  1.42296  235  -0.7  100   -0.7  0     0     970.5    NA       0.0000   FZFG     0650  0     0    
2019/11/18  02:26:00  BASE  0.5292   249  1.1466   235  -0.7  100   -0.7  0     0     970.6    NA       0.0000   FZFG     0750  0     0    
2019/11/18  02:27:00  BASE  0.78204  258  0.87612  254  -0.7  100   -0.7  0     0     970.6    NA       0.0000   FZFG     0750  0     0    
2019/11/18  02:28:00  BASE  0.91728  275  1.1466   288  -0.7  100   -0.7  0     0     970.6    NA       0.0000   FZFG     0750  0     0    
2019/11/18  02:29:00  BASE  1.01724  291  1.1466   288  -0.6  100   -0.6  0     0     970.6    NA       0.0000   FZFG     0700  0     0    
2019/11/18  02:30:00  BASE  0.94668  297  1.1466   288  -0.6  100   -0.6  0     0     970.6    NA       0.0000   FZFG     0650  0     0    
2019/11/18  02:31:00  BASE  0.84672  295  1.1466   288  -0.6  100   -0.6  0     0     970.5    NA       0.0000   FZFG     0650  0     0    
2019/11/18  02:32:00  BASE  0.57624  282  1.1466   288  -0.6  100   -0.6  0     0     970.4    NA       0.0000   FZFG     0650  0     0    
2019/11/18  02:33:00  BASE  0.4704   271  1.1466   288  -0.6  100   -0.6  0     0     970.4    NA       0.0000   FZFG     0600  0     0    
2019/11/18  02:34:00  BASE  0.64092  268  1.1466   288  -0.6  100   -0.6  0     0     970.4    NA       0.0000   FZFG     0600  0     0    
2019/11/18  02:35:00  BASE  0.4704   271  1.1466   288  -0.6  100   -0.6  0     0     970.4    NA       0.0000   FZFG     0550  0     0    
2019/11/18  02:36:00  BASE  0.12936  286  1.1466   288  -0.6  100   -0.6  0     0     970.4    NA       0.0000   FZFG     0550  0     0    
2019/11/18  02:37:00  BASE  0        304  1.1466   288  -0.6  100   -0.6  0     0     970.4    NA       0.0000   FZFG     0650  0     0    
2019/11/18  02:38:00  BASE  0        318  1.0878   293  -0.6  100   -0.6  0     0     970.4    NA       0.0000   FZFG     0700  0     0    
2019/11/18  02:39:00  BASE  0        340  1.029    285  -0.6  100   -0.6  0     0     970.4    NA       0.0000   FZFG     0750  0     0    
2019/11/18  02:40:00  BASE  0.29988  357  1.029    285  -0.6  100   -0.6  0     0     970.4    NA       0.0000   FZFG     0750  0     0    
2019/11/18  02:41:00  BASE  0.59976  10   0.93492  276  -0.6  100   -0.6  0     0     970.4    NA       0.0000   FZFG     0800  0     0    
2019/11/18  02:42:00  BASE  0.51744  15   0.93492  276  -0.6  100   -0.6  0     0     970.4    NA       0.0000   FZFG     0800  0     0    
2019/11/18  02:43:00  BASE  0.46452  12   0.87612  272  -0.6  100   -0.6  0     0     970.4    NA       0.0000   FZFG     0800  0     0    
2019/11/18  02:44:00  BASE  0.54684  19   0.81732  355  -0.6  100   -0.6  0     0     970.4    NA       0.0000   FZFG     0800  0     0    
2019/11/18  02:45:00  BASE  0.38808  25   0.81732  355  -0.5  100   -0.5  0     0     970.4    NA       0.0000   FZFG     0700  0     0    
2019/11/18  02:46:00  BASE  0.3822   32   0.9702   44   -0.5  100   -0.5  0     0     970.4    NA       0.0000   FZFG     0650  0     0    
2019/11/18  02:47:00  BASE  0.74088  42   0.9702   39   -0.5  100   -0.5  0     0     970.4    NA       0.0000   FZFG     0650  0     0    
2019/11/18  02:48:00  BASE  1.00548  44   1.21128  36   -0.5  100   -0.5  0     0     970.4    NA       0.0000   FZFG     0600  0     0    
2019/11/18  02:49:00  BASE  1.17012  38   1.27008  33   -0.5  100   -0.5  0     0     970.4    NA       0.0000   FZFG     0600  0     0    
2019/11/18  02:50:00  BASE  1.29948  36   1.75224  40   -0.5  100   -0.5  0     0     970.4    NA       0.0000   FZFG     0650  0     0    
2019/11/18  02:51:00  BASE  1.65816  39   2.058    39   -0.5  100   -0.5  0     0     970.4    NA       0.0000   FZFG     0650  0     0    
2019/11/18  02:52:00  BASE  1.84632  43   2.058    39   -0.5  100   -0.5  0     0     970.4    NA       0.0000   FZFG     0650  0     0    
2019/11/18  02:53:00  BASE  1.764    44   2.058    39   -0.5  100   -0.5  0     0     970.4    NA       0.0000   FZFG     0650  0     0    
2019/11/18  02:54:00  BASE  1.79928  42   2.058    39   -0.5  100   -0.5  0     0     970.4    NA       0.0000   FZFG     0700  0     0    
2019/11/18  02:55:00  BASE  1.8816   42   2.058    39   -0.5  100   -0.5  0     0     970.4    NA       0.0000   FZFG     0700  0     0    
2019/11/18  02:56:00  BASE  1.9698   42   2.058    44   -0.5  100   -0.5  0     0     970.4    NA       0.0000   FZFG     0700  0     0    
2019/11/18  02:57:00  BASE  2.03448  43   2.1168   41   -0.5  100   -0.5  0     0     970.4    NA       0.0000   FZFG     0750  0     0    
2019/11/18  02:58:00  BASE  2.0286   42   2.1168   41   -0.5  100   -0.5  0     0     970.4    NA       0.0000   FZFG     0750  0     0    
2019/11/18  02:59:00  BASE  1.96392  42   2.1168   41   -0.5  100   -0.5  0     0     970.3    NA       0.0000   FZFG     0800  0     0    
2019/11/18  03:00:00  BASE  1.89336  42   2.1168   41   -0.5  100   -0.5  0     0     970.3    NA       0.0000   FZFG     1000  0     0    
2019/11/18  03:01:00  BASE  1.86984  43   2.1168   41   -0.5  100   -0.5  0     0     970.3    NA       0.0000   FZFG     1000  0     0    
2019/11/18  03:02:00  BASE  1.84632  41   2.1168   41   -0.5  100   -0.5  0     0     970.3    NA       0.0000   FZFG     1000  1080  0    
2019/11/18  03:03:00  BASE  1.74636  42   2.1168   41   -0.5  100   -0.5  0     0     970.3    NA       0.0000   FZFG     1500  1050  0    
2019/11/18  03:04:00  BASE  1.72284  42   2.1168   41   -0.5  100   -0.5  0     0     970.3    NA       0.0000   BR       1700  330   1050 
2019/11/18  03:05:00  BASE  1.68168  38   2.1168   41   -0.5  100   -0.5  0     0     970.3    NA       0.0000   BR       2300  390   1080 
2019/11/18  03:06:00  BASE  1.5288   37   2.1168   41   -0.5  100   -0.5  0     0     970.3    NA       0.0000   BR       4600  360   1080 
2019/11/18  03:07:00  BASE  1.45824  43   2.0286   42   -0.5  100   -0.5  0     0     970.2    NA       0.0000   BR       2900  1050  0    
2019/11/18  03:08:00  BASE  1.59348  50   1.9992   40   -0.5  100   -0.5  0     0     970.2    NA       0.0000   BR       3600  1050  0    
2019/11/18  03:09:00  BASE  1.66992  50   1.96392  37   -0.4  100   -0.4  0     0     970.2    NA       0.0000   BR       4300  1050  0    
2019/11/18  03:10:00  BASE  1.60524  48   1.96392  37   -0.4  100   -0.4  0     0     970.2    NA       0.0000   BR       4900  1080  0    
2019/11/18  03:11:00  BASE  1.56408  49   1.90512  36   -0.4  100   -0.4  0     0     970.2    NA       0.0000   BR       9999  1020  0    
2019/11/18  03:12:00  BASE  1.48764  48   1.87572  39   -0.4  100   -0.4  0     0     970.2    NA       0.0000   BR       9999  1020  0    
2019/11/18  03:13:00  BASE  1.4406   44   1.87572  39   -0.3  100   -0.3  0     0     970.2    NA       0.0000   BR       9999  1050  0    
2019/11/18  03:14:00  BASE  1.38768  42   1.81692  51   -0.3  100   -0.4  0     0     970.2    NA       0.0000   BR       9999  1080  0    
2019/11/18  03:15:00  BASE  1.21128  38   1.81692  51   -0.4  100   -0.4  0     0     970.2    NA       0.0000   BR       9999  1120  0    
2019/11/18  03:16:00  BASE  1.19364  32   1.81692  51   -0.4  100   -0.4  0     0     970.2    NA       0.0000   BR       9999  1080  0    
2019/11/18  03:17:00  BASE  1.31712  34   1.81692  51   -0.4  100   -0.4  0     0     970.1    NA       0.0000   BR       9999  1120  0    
2019/11/18  03:18:00  BASE  1.176    36   1.75224  59   -0.4  100   -0.4  0     0     970.1    NA       0.0000   BR       9999  1120  0    
2019/11/18  03:19:00  BASE  0.78792  44   1.75224  59   -0.3  100   -0.3  0     0     970.1    NA       0.0000   9999     980   0     0    
2019/11/18  03:20:00  BASE  0.84672  50   1.75224  59   -0.3  100   -0.3  0     0     970.1    NA       0.0000   9999     790   0     0    
2019/11/18  03:21:00  BASE  1.09368  44   1.63464  43   -0.3  100   -0.3  0     0     970.1    NA       0.0000   9999     790   0     0    
2019/11/18  03:22:00  BASE  1.21716  51   1.57584  36   -0.2  100   -0.2  0     0     970.1    NA       0.0000   9999     980   0     0    
2019/11/18  03:23:00  BASE  1.36416  62   1.57584  73   -0.2  100   -0.2  0     0     970.1    NA       0.0000   9999     1080  0     0    
2019/11/18  03:24:00  BASE  1.21716  68   1.57584  73   -0.1  100   -0.1  0     0     970.1    NA       0.0000   9999     1080  0     0    
2019/11/18  03:25:00  BASE  1.0584   84   1.57584  73   -0.1  100   -0.1  0     0     970.1    NA       0.0000   9999     850   0     0    
2019/11/18  03:26:00  BASE  0.75852  101  1.57584  73   -0.0  100   -0.0  0     0     970.1    NA       0.0000   9999     750   0     0    
2019/11/18  03:27:00  BASE  0.22932  114  1.57584  73   -0.0  100   -0.0  0     0     970.1    NA       0.0000   9999     750   0     0    
2019/11/18  03:28:00  BASE  0.18228  153  1.57584  73   -0.0  100   -0.0  0     0     970.1    NA       0.0000   9999     790   0     0    
2019/11/18  03:29:00  BASE  0.71148  197  1.57584  73   -0.0  100   -0.0  0     0     970.1    NA       0.0000   9999     790   0     0    
2019/11/18  03:30:00  BASE  1.32888  202  1.96392  197  -0.1  100   -0.1  0     0     970.1    NA       0.0000   9999     750   0     0    
2019/11/18  03:31:00  BASE  1.61112  196  1.96392  197  -0.1  100   -0.1  0     0     970.1    NA       0.0000   9999     750   0     0    
2019/11/18  03:32:00  BASE  1.54056  193  1.96392  197  -0.2  100   -0.2  0     0     970.1    NA       0.0000   9999     790   0     0    
2019/11/18  03:33:00  BASE  1.42884  197  1.96392  197  -0.3  100   -0.3  0     0     970.1    NA       0.0000   9999     850   0     0    
2019/11/18  03:34:00  BASE  1.69344  211  2.54016  227  -0.3  100   -0.3  0     0     970.1    NA       0.0000   9999     1080  0     0    
2019/11/18  03:35:00  BASE  2.30496  222  2.75184  223  -0.3  100   -0.3  0     0     970.1    NA       0.0000   6000     1050  0     0    
2019/11/18  03:36:00  BASE  2.5284   222  2.75184  223  -0.4  100   -0.4  0     0     970.1    NA       0.0000   BR       1900  950   0    
2019/11/18  03:37:00  BASE  2.31084  222  2.75184  223  -0.4  100   -0.4  0     0     970.1    NA       0.0000   BR       1300  1180  0    
2019/11/18  03:38:00  BASE  2.05212  220  2.75184  223  -0.4  100   -0.4  0     0     970.1    NA       0.0000   BR       1400  1210  0    
2019/11/18  03:39:00  BASE  1.98744  219  2.75184  223  -0.5  100   -0.5  0     0     970.1    NA       0.0000   BR       2700  1210  0    
2019/11/18  03:40:00  BASE  2.04624  222  2.75184  223  -0.5  100   -0.5  0     0     970.1    NA       0.0000   BR       2300  1020  0    
2019/11/18  03:41:00  BASE  2.09916  224  2.75184  223  -0.5  100   -0.5  0     0     970.1    NA       0.0000   BR       1300  1020  0    
2019/11/18  03:42:00  BASE  2.09328  223  2.75184  223  -0.5  100   -0.5  0     0     970.1    NA       0.0000   BR       1300  980   0    
2019/11/18  03:43:00  BASE  2.06976  222  2.75184  223  -0.6  100   -0.6  0     0     970.1    NA       0.0000   BR       1300  950   0    
2019/11/18  03:44:00  BASE  2.11092  223  2.75184  223  -0.6  100   -0.6  0     0     970.1    NA       0.0000   BR       1500  980   0    
2019/11/18  03:45:00  BASE  2.06388  227  2.56956  224  -0.6  100   -0.6  0     0     970.1    NA       0.0000   BR       3200  980   0    
2019/11/18  03:46:00  BASE  2.02272  230  2.32848  221  -0.6  100   -0.6  0     0     970.1    NA       0.0000   BR       8000  920   0    
2019/11/18  03:47:00  BASE  2.00508  233  2.21088  226  -0.5  100   -0.5  0     0     970.1    NA       0.0000   BR       9999  890   0    
2019/11/18  03:48:00  BASE  1.98156  233  2.21088  229  -0.5  100   -0.5  0     0     970.1    NA       0.0000   BR       9999  890   0    
2019/11/18  03:49:00  BASE  2.01096  233  2.24028  235  -0.5  100   -0.5  0     0     970.1    NA       0.0000   BR       9999  920   0    
2019/11/18  03:50:00  BASE  2.11092  233  2.29908  232  -0.5  100   -0.5  0     0     970.1    NA       0.0000   BR       9999  890   0    
2019/11/18  03:51:00  BASE  2.12268  232  2.29908  232  -0.5  100   -0.5  0     0     970.1    NA       0.0000   BR       8000  850   0    
2019/11/18  03:52:00  BASE  2.2344   231  2.63424  228  -0.5  100   -0.5  0     0     970.1    NA       0.0000   BR       2800  850   0    
2019/11/18  03:53:00  BASE  2.48136  230  2.72244  229  -0.5  100   -0.5  0     0     970.1    NA       0.0000   BR       1700  890   0    
2019/11/18  03:54:00  BASE  2.54016  231  2.72244  229  -0.5  100   -0.5  0     0     970.1    NA       0.0000   BR       1300  850   0    
2019/11/18  03:55:00  BASE  2.42256  231  2.72244  229  -0.5  100   -0.5  0     0     970.1    NA       0.0000   BR       1200  850   0    
2019/11/18  03:56:00  BASE  2.352    232  2.72244  229  -0.5  100   -0.5  0     0     970.1    NA       0.0000   BR       1500  820   0    
2019/11/18  03:57:00  BASE  2.39316  232  2.72244  229  -0.5  100   -0.5  0     0     970.1    NA       0.0000   BR       1400  850   0    
2019/11/18  03:58:00  BASE  2.28144  232  2.72244  229  -0.5  100   -0.5  0     0     970.1    NA       0.0000   BR       1700  850   0    
2019/11/18  03:59:00  BASE  2.19324  235  2.72244  229  -0.5  100   -0.5  0     0     970.1    NA       0.0000   BR       3600  890   0    
2019/11/18  04:00:00  BASE  2.31084  239  2.72244  229  -0.5  100   -0.5  0     0     970.1    NA       0.0000   BR       3700  890   0    
2019/11/18  04:01:00  BASE  2.25792  240  2.72244  229  -0.5  100   -0.5  0     0     970.1    NA       0.0000   BR       2300  790   0    
2019/11/18  04:02:00  BASE  2.04624  239  2.72244  229  -0.5  100   -0.5  0     0     970.1    NA       0.0000   BR       1800  790   0    
2019/11/18  04:03:00  BASE  1.92276  239  2.63424  231  -0.5  100   -0.5  0     0     970.1    NA       0.0000   BR       1800  820   0    
2019/11/18  04:04:00  BASE  1.86396  240  2.51076  242  -0.5  100   -0.5  0     0     970.1    NA       0.0000   BR       3200  790   0    
2019/11/18  04:05:00  BASE  1.87572  242  2.51076  242  -0.5  100   -0.5  0     0     970.1    NA       0.0000   BR       9000  750   0    
2019/11/18  04:06:00  BASE  1.81104  246  2.51076  242  -0.5  100   -0.5  0     0     970.1    NA       0.0000   BR       9999  720   0    
2019/11/18  04:07:00  BASE  1.6758   246  2.51076  242  -0.5  100   -0.5  0     0     970.1    NA       0.0000   BR       9000  720   0    
2019/11/18  04:08:00  BASE  1.51704  244  2.51076  242  -0.5  100   -0.5  0     0     970.2    NA       0.0000   BR       6000  690   0    
2019/11/18  04:09:00  BASE  1.22304  243  2.51076  242  -0.5  100   -0.5  0     0     970.2    NA       0.0000   BR       7000  750   0    
2019/11/18  04:10:00  BASE  0.9702   243  2.42256  240  -0.5  100   -0.5  0     0     970.2    NA       0.0000   BR       7000  720   0    
2019/11/18  04:11:00  BASE  0.89964  242  2.1462   237  -0.5  100   -0.5  0     0     970.2    NA       0.0000   BR       5000  690   0    
2019/11/18  04:12:00  BASE  0.81144  240  2.0286   244  -0.5  100   -0.5  0     0     970.2    NA       0.0000   BR       9999  660   0    
2019/11/18  04:13:00  BASE  0.48804  234  1.9992   246  -0.5  100   -0.5  0     0     970.2    NA       0.0000   BR       9999  590   0    
2019/11/18  04:14:00  BASE  0.21756  223  1.9992   246  -0.4  100   -0.4  0     0     970.2    NA       0.0000   BR       9999  660   0    
2019/11/18  04:15:00  BASE  0.54096  216  1.9992   246  -0.4  100   -0.4  0     0     970.2    NA       0.0000   BR       9999  620   0    
2019/11/18  04:16:00  BASE  1.01724  219  1.9992   246  -0.4  100   -0.4  0     0     970.2    NA       0.0000   BR       9999  590   0    
2019/11/18  04:17:00  BASE  1.03488  223  1.57584  242  -0.4  100   -0.4  0     0     970.2    NA       0.0000   BR       8000  620   0    
2019/11/18  04:18:00  BASE  1.11132  229  1.69344  235  -0.4  100   -0.4  0     0     970.2    NA       0.0000   BR       7000  620   0    
2019/11/18  04:19:00  BASE  1.48176  232  1.84632  232  -0.4  100   -0.4  0     0     970.2    NA       0.0000   BR       9000  520   0    
2019/11/18  04:20:00  BASE  1.62876  231  1.84632  232  -0.5  100   -0.5  0     0     970.2    NA       0.0000   BR       9999  520   0    
2019/11/18  04:21:00  BASE  1.49352  228  1.84632  232  -0.5  100   -0.5  0     0     970.2    NA       0.0000   9999     520   0     0    
2019/11/18  04:22:00  BASE  1.47     228  1.84632  232  -0.5  100   -0.5  0     0     970.2    NA       0.0000   7000     520   0     0    
2019/11/18  04:23:00  BASE  1.59936  235  1.87572  239  -0.5  100   -0.5  0     0     970.2    NA       0.0000   BR       9000  460   0    
2019/11/18  04:24:00  BASE  1.55232  239  1.87572  239  -0.5  100   -0.5  0     0     970.2    NA       0.0000   BR       9999  460   0    
2019/11/18  04:25:00  BASE  1.35828  242  1.87572  239  -0.5  100   -0.5  0     0     970.2    NA       0.0000   BR       9999  460   0    
2019/11/18  04:26:00  BASE  1.30536  247  1.87572  239  -0.4  100   -0.4  0     0     970.2    NA       0.0000   BR       9999  460   0    
2019/11/18  04:27:00  BASE  1.37004  245  1.87572  239  -0.4  100   -0.4  0     0     970.2    NA       0.0000   9999     430   0     0    
2019/11/18  04:28:00  BASE  1.38768  242  1.87572  239  -0.4  100   -0.4  0     0     970.2    NA       0.0000   9999     390   0     0    
2019/11/18  04:29:00  BASE  1.37592  241  1.87572  239  -0.4  100   -0.4  0     0     970.2    NA       0.0000   9999     390   0     0    
2019/11/18  04:30:00  BASE  1.3524   239  1.87572  239  -0.4  100   -0.4  0     0     970.2    NA       0.0000   9999     390   0     0    
2019/11/18  04:31:00  BASE  1.21128  237  1.87572  239  -0.4  100   -0.4  0     0     970.2    NA       0.0000   9999     360   0     0    
2019/11/18  04:32:00  BASE  1.05252  232  1.87572  239  -0.4  100   -0.4  0     0     970.2    NA       0.0000   9999     360   0     0    
2019/11/18  04:33:00  BASE  0.94668  222  1.63464  240  -0.4  100   -0.4  0     0     970.2    NA       0.0000   9999     390   0     0    
2019/11/18  04:34:00  BASE  0.89376  213  1.63464  240  -0.4  100   -0.4  0     0     970.2    NA       0.0000   9999     360   0     0    
2019/11/18  04:35:00  BASE  0.89376  210  1.63464  240  -0.4  100   -0.4  0     0     970.2    NA       0.0000   9999     300   0     0    
2019/11/18  04:36:00  BASE  0.85848  210  1.63464  240  -0.4  100   -0.4  0     0     970.2    NA       0.0000   9999     330   0     0    
2019/11/18  04:37:00  BASE  0.81144  210  1.48176  239  -0.4  100   -0.4  0     0     970.2    NA       0.0000   9999     360   0     0    
2019/11/18  04:38:00  BASE  0.8526   208  1.45236  239  -0.4  100   -0.4  0     0     970.2    NA       0.0000   9999     330   0     0    
2019/11/18  04:39:00  BASE  0.85848  203  1.39356  239  -0.4  100   -0.4  0     0     970.1    NA       0.0000   9999     330   0     0    
2019/11/18  04:40:00  BASE  0.82908  198  1.35828  234  -0.4  100   -0.4  0     0     970.1    NA       0.0000   9999     360   0     0    
2019/11/18  04:41:00  BASE  0.88788  200  1.1172   228  -0.4  100   -0.4  0     0     970.1    NA       0.0000   9999     330   0     0    
2019/11/18  04:42:00  BASE  0.9996   206  1.1466   210  -0.4  100   -0.4  0     0     970.1    NA       0.0000   9999     330   0     0    
2019/11/18  04:43:00  BASE  1.00548  208  1.21128  210  -0.4  100   -0.4  0     0     970.1    NA       0.0000   9999     300   0     0    
2019/11/18  04:44:00  BASE  1.029    209  1.24068  215  -0.4  100   -0.4  0     0     970.1    NA       0.0000   9999     260   0     0    
2019/11/18  04:45:00  BASE  1.22304  210  1.51116  209  -0.4  100   -0.4  0     0     970.1    NA       0.0000   9999     330   0     0    
2019/11/18  04:46:00  BASE  1.4112   206  1.60524  205  -0.4  100   -0.4  0     0     970.1    NA       0.0000   9999     330   0     0    
2019/11/18  04:47:00  BASE  1.52292  205  1.69344  205  -0.4  100   -0.4  0     0     970.1    NA       0.0000   9999     260   0     0    
2019/11/18  04:48:00  BASE  1.47588  206  1.69344  205  -0.4  100   -0.4  0     0     970.1    NA       0.0000   9999     260   0     0    
2019/11/18  04:49:00  BASE  1.3524   206  1.69344  205  -0.4  100   -0.4  0     0     970.1    NA       0.0000   9999     260   0     0    
2019/11/18  04:50:00  BASE  1.42296  206  1.75224  208  -0.4  100   -0.4  0     0     970.1    NA       0.0000   9999     260   0     0    
2019/11/18  04:51:00  BASE  1.57584  207  1.75224  208  -0.5  100   -0.5  0     0     970.1    NA       0.0000   9999     260   0     0    
2019/11/18  04:52:00  BASE  1.6464   208  1.81692  208  -0.5  100   -0.5  0     0     970.1    NA       0.0000   9999     300   0     0    
2019/11/18  04:53:00  BASE  1.74048  207  1.93452  205  -0.5  100   -0.5  0     0     970.1    NA       0.0000   9999     260   0     0    
2019/11/18  04:54:00  BASE  1.71696  209  1.93452  205  -0.5  100   -0.5  0     0     970.1    NA       0.0000   9999     300   0     0    
2019/11/18  04:55:00  BASE  1.84632  212  2.21088  214  -0.5  100   -0.5  0     0     970.1    NA       0.0000   9999     330   0     0    
2019/11/18  04:56:00  BASE  2.09916  212  2.21088  214  -0.6  100   -0.6  0     0     970.1    NA       0.0000   9999     330   0     0    
2019/11/18  04:57:00  BASE  2.12268  211  2.24028  209  -0.6  100   -0.6  0     0     970.1    NA       0.0000   9999     330   0     0    
2019/11/18  04:58:00  BASE  2.09328  207  2.24028  207  -0.6  100   -0.6  0     0     970.1    NA       0.0000   9999     300   0     0    
2019/11/18  04:59:00  BASE  2.11092  203  2.24028  200  -0.6  100   -0.6  0     0     970.1    NA       0.0000   9999     300   0     0    
2019/11/18  05:00:00  BASE  2.205    202  2.35788  200  -0.6  100   -0.6  0     0     970.1    NA       0.0000   9999     300   0     0    
2019/11/18  05:01:00  BASE  2.21676  200  2.35788  195  -0.6  100   -0.6  0     0     970.1    NA       0.0000   9999     260   0     0    
2019/11/18  05:02:00  BASE  2.12856  198  2.35788  195  -0.6  100   -0.6  0     0     970.1    NA       0.0000   9999     260   0     0    
2019/11/18  05:03:00  BASE  2.05212  196  2.35788  195  -0.6  100   -0.6  0     0     970.1    NA       0.0000   9999     300   0     0    
2019/11/18  05:04:00  BASE  1.8522   193  2.35788  195  -0.6  100   -0.6  0     0     970.1    NA       0.0000   9999     300   0     0    
2019/11/18  05:05:00  BASE  1.57584  191  2.35788  195  -0.6  100   -0.6  0     0     970.1    NA       0.0000   9999     300   0     0    
2019/11/18  05:06:00  BASE  1.49352  187  2.35788  195  -0.6  100   -0.6  0     0     970.1    NA       0.0000   9999     260   0     0    
2019/11/18  05:07:00  BASE  1.47588  181  2.35788  195  -0.6  100   -0.6  0     0     970.1    NA       0.0000   9999     260   0     0    
2019/11/18  05:08:00  BASE  1.49352  178  2.35788  195  -0.6  100   -0.6  0     0     970.1    NA       0.0000   9999     300   0     0    
2019/11/18  05:09:00  BASE  1.50528  175  2.35788  195  -0.6  100   -0.6  0     0     970.1    NA       0.0000   9999     260   0     0    
2019/11/18  05:10:00  BASE  1.43472  169  2.35788  195  -0.6  100   -0.6  0     0     970.1    NA       0.0000   9999     260   0     0    
2019/11/18  05:11:00  BASE  1.52292  164  2.29908  198  -0.6  100   -0.6  0     0     970.1    NA       0.0000   9999     300   0     0    
2019/11/18  05:12:00  BASE  1.60524  162  2.21088  197  -0.6  100   -0.6  0     0     970.1    NA       0.0000   9999     300   0     0    
2019/11/18  05:13:00  BASE  1.53468  159  1.84632  195  -0.6  100   -0.6  0     0     970.1    NA       0.0000   9999     230   0     0    
2019/11/18  05:14:00  BASE  1.50528  156  1.69344  160  -0.6  100   -0.6  0     0     970.1    NA       0.0000   9999     230   0     0    
2019/11/18  05:15:00  BASE  1.50528  158  1.69344  160  -0.6  100   -0.6  0     0     970.1    NA       0.0000   9999     200   0     0    
2019/11/18  05:16:00  BASE  1.43472  160  1.69344  160  -0.6  100   -0.6  0     0     970.1    NA       0.0000   9999     200   0     0    
2019/11/18  05:17:00  BASE  1.4112   161  1.69344  160  -0.6  100   -0.6  0     0     970.1    NA       0.0000   9999     200   0     0    
2019/11/18  05:18:00  BASE  1.42296  159  1.69344  160  -0.6  100   -0.6  0     0     970.1    NA       0.0000   9999     200   0     0    
2019/11/18  05:19:00  BASE  1.323    156  1.69344  160  -0.6  100   -0.6  0     0     970.1    NA       0.0000   9999     230   0     0    
2019/11/18  05:20:00  BASE  1.15248  155  1.69344  160  -0.6  100   -0.6  0     0     970.1    NA       0.0000   9999     260   0     0    
2019/11/18  05:21:00  BASE  1.12896  150  1.66404  153  -0.6  100   -0.6  0     0     970.1    NA       0.0000   9999     460   0     0    
2019/11/18  05:22:00  BASE  1.22304  142  1.66404  153  -0.6  100   -0.6  0     0     970.1    NA       0.0000   9999     520   0     0    
2019/11/18  05:23:00  BASE  1.176    139  1.66404  153  -0.6  100   -0.6  0     0     970.1    NA       0.0000   9999     520   0     0    
2019/11/18  05:24:00  BASE  1.08192  138  1.60524  161  -0.6  100   -0.6  0     0     970.1    NA       0.0000   9999     560   0     0    
2019/11/18  05:25:00  BASE  1.1172   134  1.51116  161  -0.6  100   -0.6  0     0     970.1    NA       0.0000   9999     520   0     0    
2019/11/18  05:26:00  BASE  1.18776  127  1.51116  161  -0.7  100   -0.7  0     0     970.1    NA       0.0000   9999     520   0     0    
2019/11/18  05:27:00  BASE  1.16424  126  1.48176  159  -0.7  100   -0.7  0     0     970.1    NA       0.0000   9999     520   0     0    
2019/11/18  05:28:00  BASE  1.0584   131  1.35828  142  -0.7  100   -0.7  0     0     970.1    NA       0.0000   9999     390   0     0    
2019/11/18  05:29:00  BASE  0.91728  137  1.35828  142  -0.7  100   -0.7  0     0     970.1    NA       0.0000   9999     330   0     0    
2019/11/18  05:30:00  BASE  0.51744  140  1.35828  142  -0.7  100   -0.7  0     0     970.1    NA       0.0000   9999     390   0     0    
2019/11/18  05:31:00  BASE  0.09996  126  1.35828  142  -0.7  100   -0.7  0     0     970.1    NA       0.0000   9999     260   0     0    
2019/11/18  05:32:00  BASE  0        108  1.29948  123  -0.7  100   -0.7  0     0     970.1    NA       0.0000   9999     230   0     0    
2019/11/18  05:33:00  BASE  0        96   1.29948  123  -0.7  100   -0.7  0     0     970.1    NA       0.0000   9999     300   0     0    
2019/11/18  05:34:00  BASE  0.18816  60   1.29948  123  -0.6  100   -0.6  0     0     970.1    NA       0.0000   9999     300   0     0    
2019/11/18  05:35:00  BASE  0.33516  27   1.29948  123  -0.6  100   -0.6  0     0     970.1    NA       0.0000   9999     300   0     0    
2019/11/18  05:36:00  BASE  0.14112  13   1.21128  125  -0.6  100   -0.6  0     0     970.1    NA       0.0000   9999     230   0     0    
2019/11/18  05:37:00  BASE  0.09996  10   1.0878   135  -0.5  100   -0.5  0     0     970.1    NA       0.0000   9999     230   0     0    
2019/11/18  05:38:00  BASE  0.37632  9    0.9702   136  -0.5  100   -0.5  0     0     970.1    NA       0.0000   9999     230   0     0    
2019/11/18  05:39:00  BASE  0.51744  7    0.72324  354  -0.5  100   -0.5  0     0     970.1    NA       0.0000   9999     300   0     0    
2019/11/18  05:40:00  BASE  0.75852  19   1.35828  33   -0.5  100   -0.5  0     0     970.1    NA       0.0000   9999     260   0     0    
2019/11/18  05:41:00  BASE  1.22304  32   1.63464  39   -0.5  100   -0.5  0     0     970.1    NA       0.0000   9999     330   0     0    
2019/11/18  05:42:00  BASE  1.4994   37   1.66404  43   -0.5  100   -0.5  0     0     970.1    NA       0.0000   9999     360   0     0    
2019/11/18  05:43:00  BASE  1.56996  38   1.72284  40   -0.4  100   -0.4  0     0     970.1    NA       0.0000   9999     430   0     0    
2019/11/18  05:44:00  BASE  1.5582   37   1.72284  40   -0.4  100   -0.4  0     0     970.1    NA       0.0000   9999     460   0     0    
2019/11/18  05:45:00  BASE  1.48764  40   1.72284  40   -0.4  100   -0.4  0     0     970.1    NA       0.0000   9999     460   0     0    
2019/11/18  05:46:00  BASE  1.39944  42   1.72284  40   -0.4  100   -0.4  0     0     970.1    NA       0.0000   9999     490   0     0    
2019/11/18  05:47:00  BASE  1.323    45   1.72284  40   -0.4  100   -0.4  0     0     970.1    NA       0.0000   9999     490   0     0    
2019/11/18  05:48:00  BASE  1.2642   49   1.72284  40   -0.4  100   -0.4  0     0     970.1    NA       0.0000   9999     490   0     0    
2019/11/18  05:49:00  BASE  1.2348   49   1.72284  40   -0.4  100   -0.4  0     0     970.1    NA       0.0000   9999     490   0     0    
2019/11/18  05:50:00  BASE  1.09956  50   1.72284  40   -0.4  100   -0.4  0     0     970.1    NA       0.0000   9999     460   0     0    
2019/11/18  05:51:00  BASE  1.0584   51   1.72284  40   -0.4  100   -0.4  0     0     970.1    NA       0.0000   9999     490   0     0    
2019/11/18  05:52:00  BASE  1.18188  52   1.72284  40   -0.4  100   -0.4  0     0     970.1    NA       0.0000   9999     460   0     0    
2019/11/18  05:54:00  BASE  1.32888  52   1.66404  44   -0.3  100   -0.3  0     0     970.1    NA       0.0000   9999     520   0     0    
2019/11/18  05:55:00  BASE  1.2642   50   1.57584  41   -0.3  100   -0.3  0     0     970.1    NA       0.0000   9999     520   0     0    
2019/11/18  05:56:00  BASE  1.14072  45   1.48176  49   -0.3  100   -0.3  0     0     970.1    NA       0.0000   9999     560   0     0    
2019/11/18  05:57:00  BASE  1.18776  35   1.48176  49   -0.3  100   -0.3  0     0     970.1    NA       0.0000   9999     560   0     0    
2019/11/18  05:58:00  BASE  1.25832  28   1.48176  49   -0.3  100   -0.3  0     0     970.1    NA       0.0000   9999     520   0     0    
2019/11/18  05:59:00  BASE  1.21128  28   1.48176  49   -0.3  100   -0.3  0     0     970.1    NA       0.0000   9999     490   0     0    
2019/11/18  06:00:00  BASE  1.0878   26   1.48176  49   -0.3  100   -0.3  0     0     970.1    NA       0.0000   9999     490   0     0    
2019/11/18  06:01:00  BASE  0.96432  14   1.48176  49   -0.3  100   -0.3  0     0     970.1    NA       0.0000   9999     520   0     0    
2019/11/18  06:02:00  BASE  1.05252  355  1.48176  49   -0.4  100   -0.4  0     0     970.1    NA       0.0000   9999     520   0     0    
2019/11/18  06:03:00  BASE  1.1172   341  1.48176  49   -0.4  100   -0.4  0     0     970.1    NA       0.0000   9999     230   0     0    
2019/11/18  06:04:00  BASE  1.06428  328  1.60524  299  -0.4  100   -0.4  0     0     970.1    NA       0.0000   9999     390   0     0    
2019/11/18  06:05:00  BASE  0.95256  326  1.60524  299  -0.4  100   -0.4  0     0     970.1    NA       0.0000   9999     430   0     0    
2019/11/18  06:06:01  BASE  1.27596  321  1.96392  297  -0.4  100   -0.4  0     0     970.1    NA       0.0000   9999     430   0     0    
2019/11/18  06:07:00  BASE  1.7934   304  2.1462   287  -0.4  100   -0.4  0     0     970.1    NA       0.0000   9999     390   0     0    
2019/11/18  06:08:00  BASE  1.65228  294  2.1462   287  -0.4  100   -0.4  0     0     970.2    NA       0.0000   9999     430   0     0    
2019/11/18  06:09:00  BASE  1.51116  283  2.1462   287  -0.4  100   -0.4  0     0     970.2    NA       0.0000   9999     490   0     0    
2019/11/18  06:10:00  BASE  1.97568  276  3.32808  261  -0.4  100   -0.4  0     0     970.2    NA       0.0000   UP       9999  560   0    
2019/11/18  06:11:00  BASE  2.54016  270  3.59856  270  -0.4  100   -0.4  0     0     970.2    NA       0.0000   UP       9999  520   0    
2019/11/18  06:12:00  BASE  2.63424  261  3.59856  270  -0.4  100   -0.4  0     0     970.2    NA       0.0000   UP       9999  490   0    
2019/11/18  06:13:00  BASE  2.36376  254  3.59856  270  -0.5  100   -0.5  0     0     970.2    NA       0.0000   UP       9999  430   0    
2019/11/18  06:14:00  BASE  2.08152  246  3.59856  270  -0.5  100   -0.5  0     0     970.2    NA       0.0000   UP       9000  460   0    
2019/11/18  06:15:00  BASE  1.82868  237  3.59856  270  -0.5  100   -0.5  0     0     970.2    NA       0.0000   UP       8000  360   0    
2019/11/18  06:16:00  BASE  1.617    235  3.59856  270  -0.5  100   -0.5  0     0     970.2    NA       0.0000   UP       7000  390   0    
2019/11/18  06:17:00  BASE  1.54056  240  3.59856  270  -0.5  100   -0.5  0     0     970.2    NA       0.0000   UP       8000  360   0    
2019/11/18  06:18:00  BASE  1.48764  248  3.59856  270  -0.5  100   -0.5  0     0     970.2    NA       0.0000   UP       BR    9000  390  
2019/11/18  06:19:00  BASE  1.42884  251  3.59856  270  -0.5  100   -0.5  1     0     970.2    NA       0.0000   UP       BR    9000  390  
2019/11/18  06:20:00  BASE  1.39356  249  3.59856  270  -0.5  100   -0.5  1     0     970.2    NA       0.0000   UP       BR    8000  360  
2019/11/18  06:21:00  BASE  1.37004  255  3.02232  262  -0.5  100   -0.5  1     0     970.2    NA       0.0000   UP       BR    8000  330  
2019/11/18  06:22:00  BASE  1.37592  262  2.56956  241  -0.5  100   -0.5  1     0     970.2    NA       0.0000   UP       BR    8000  300  
2019/11/18  06:23:00  BASE  1.5288   262  2.56956  241  -0.5  100   -0.5  1     0     970.2    NA       0.0000   UP       BR    7000  260  
2019/11/18  06:24:00  BASE  1.5582   266  1.87572  262  -0.5  100   -0.5  1     0     970.2    NA       0.0000   UP       BR    6000  0    
2019/11/18  06:25:00  BASE  1.4406   272  1.87572  262  -0.5  100   -0.5  1     0     970.2    NA       0.0000   UP       BR    5000  0    
2019/11/18  06:26:00  BASE  1.50528  278  2.058    278  -0.5  100   -0.5  1     0     970.2    NA       0.0000   UP       BR    5000  0    
2019/11/18  06:27:00  BASE  1.74636  286  2.24028  293  -0.5  100   -0.5  1     0     970.2    NA       0.0000   UP       BR    4100  0    
2019/11/18  06:28:00  BASE  2.03448  294  2.63424  303  -0.5  100   -0.5  1     0     970.3    NA       0.0000   UP       BR    3300  0    
2019/11/18  06:29:00  BASE  2.31084  303  2.72244  300  -0.5  100   -0.5  1     0     970.3    NA       0.0000   UP       BR    3700  0    
2019/11/18  06:30:00  BASE  2.43432  307  2.72244  300  -0.5  100   -0.5  1     0     970.3    NA       0.0000   UP       BR    3900  0    
2019/11/18  06:31:00  BASE  2.28732  305  2.72244  300  -0.5  100   -0.5  1     0     970.2    NA       0.0000   UP       BR    3900  0    
2019/11/18  06:32:00  BASE  2.24028  303  2.72244  300  -0.5  100   -0.5  1     0     970.3    NA       0.0000   UP       BR    3800  0    
2019/11/18  06:33:00  BASE  2.3814   302  2.72244  300  -0.5  100   -0.5  1     0     970.3    NA       0.0000   UP       BR    3900  0    
2019/11/18  06:34:00  BASE  2.4402   303  2.75184  305  -0.5  100   -0.5  1     0     970.3    NA       0.0000   UP       BR    3500  0    
2019/11/18  06:35:00  BASE  2.56956  307  2.84592  307  -0.5  100   -0.5  1     0     970.3    NA       0.0000   UP       BR    3600  0    
2019/11/18  06:36:00  BASE  2.99292  307  3.53976  306  -0.5  100   -0.5  1     0     970.3    NA       0.0000   UP       BR    4200  0    
2019/11/18  06:37:00  BASE  4.09248  305  6.53268  294  -0.5  100   -0.5  1     0     970.3    NA       0.0000   UP       BR    4800  0    
2019/11/18  06:38:00  BASE  6.1446   290  8.379    280  -0.6  100   -0.6  1     0     970.2    NA       0.0000   UP       BR    3000  0    
2019/11/18  06:39:00  BASE  6.66204  271  8.379    280  -0.8  100   -0.8  1     0     970.3    NA       0.0000   UP       BR    2400  0    
2019/11/18  06:40:00  BASE  6.15636  265  8.379    280  -1.0  100   -1.0  1     0     970.3    NA       0.0000   UP       BR    2600  0    
2019/11/18  06:41:00  BASE  6.60324  257  8.379    280  -1.2  100   -1.2  1     0     970.3    NA       0.0000   UP       BR    1600  0    
2019/11/18  06:42:00  BASE  6.67968  252  8.379    280  -1.5  100   -1.5  1     0     970.4    NA       0.0000   UP       BR    1700  0    
2019/11/18  06:43:00  BASE  6.66204  255  8.379    280  -1.7  100   -1.7  1     0     970.4    NA       0.0000   UP       BR    1700  0    
2019/11/18  06:44:00  BASE  6.9678   256  8.379    280  -1.8  100   -1.8  1     0     970.4    NA       0.0000   UP       BR    1600  0    
2019/11/18  06:45:00  BASE  7.23828  259  8.62008  259  -1.8  100   -1.8  1     0     970.4    NA       0.0000   UP       BR    1300  0    
2019/11/18  06:46:00  BASE  7.203    263  8.89056  256  -2.0  100   -2.0  2     0     970.4    NA       0.0000   UP       BR    1200  0    
2019/11/18  06:47:00  BASE  7.13244  262  8.89056  256  -2.1  100   -2.1  2     0     970.4    NA       0.0000   UP       BR    1400  0    
2019/11/18  06:48:00  BASE  7.1148   260  8.89056  256  -2.2  100   -2.2  2     0     970.4    NA       0.0000   UP       BR    1500  0    
2019/11/18  06:49:00  BASE  6.65616  259  8.89056  256  -2.3  100   -2.3  2     0     970.4    NA       0.0000   UP       BR    1600  0    
2019/11/18  06:50:00  BASE  6.78552  259  8.89056  256  -2.4  100   -2.4  2     0     970.4    NA       0.0000   UP       BR    1600  0    
2019/11/18  06:51:00  BASE  6.83256  258  8.89056  256  -2.4  100   -2.4  2     0     970.4    NA       0.0000   UP       BR    1800  0    
2019/11/18  06:52:00  BASE  6.39156  255  8.89056  256  -2.5  100   -2.5  2     0     970.5    NA       0.0000   UP       BR    1900  0    
2019/11/18  06:53:00  BASE  6.10344  254  8.89056  256  -2.5  100   -2.5  2     0     970.5    NA       0.0000   UP       BR    1900  0    
2019/11/18  06:54:00  BASE  6.66792  252  9.04344  245  -2.5  100   -2.5  2     0     970.5    NA       0.0000   UP       BR    1700  0    
2019/11/18  06:55:00  BASE  7.72044  252  9.04344  245  -2.5  100   -2.5  2     0     970.5    NA       0.0000   UP       BR    1800  0    
2019/11/18  06:56:00  BASE  8.01444  255  9.07284  259  -2.6  100   -2.6  2     0     970.5    NA       0.0000   UP       BR    1900  0    
2019/11/18  06:57:00  BASE  7.86744  257  9.07284  259  -2.7  100   -2.7  2     0     970.6    NA       0.0000   UP       BR    1700  0    
2019/11/18  06:58:00  BASE  7.17948  258  9.07284  259  -2.8  100   -2.8  2     0     970.6    NA       0.0000   UP       BR    1700  0    
2019/11/18  06:59:00  BASE  5.5272   261  9.07284  259  -2.8  100   -2.8  2     0     970.6    NA       0.0000   UP       BR    1700  0    
2019/11/18  07:00:00  BASE  5.33904  264  9.07284  259  -2.9  100   -2.9  2     0     970.6    NA       0.0000   -SN      BR    1600  0    
2019/11/18  07:01:00  BASE  6.2622   264  9.07284  259  -2.9  100   -2.9  2     0     970.6    NA       0.0000   -SN      BR    1800  0    
2019/11/18  07:02:00  BASE  6.39744  259  9.07284  259  -2.9  100   -2.9  2     0     970.7    NA       0.0000   -SN      BR    1800  0    
2019/11/18  07:03:00  BASE  6.89136  258  9.22572  256  -3.0  100   -3.0  3     0     970.7    NA       0.0000   -SN      BR    1800  0    
2019/11/18  07:04:00  BASE  7.9086   260  9.4962   259  -3.0  100   -3.0  3     0     970.7    NA       0.0000   -SN      BR    2200  0    
2019/11/18  07:05:00  BASE  8.45544  257  9.4962   259  -3.1  100   -3.1  3     0     970.7    NA       0.2540   -SN      BR    2400  0    
2019/11/18  07:06:00  BASE  7.99092  257  9.4962   259  -3.2  100   -3.2  3     0     970.7    NA       0.0000   -SN      BR    2300  0    
2019/11/18  07:07:00  BASE  7.59696  259  9.4962   259  -3.3  100   -3.3  3     0     970.8    NA       0.0000   -SN      BR    2000  0    
2019/11/18  07:08:00  BASE  6.47388  259  9.4962   259  -3.3  100   -3.3  3     0     970.8    NA       0.0000   -SN      BR    1900  0    
2019/11/18  07:09:00  BASE  5.66832  262  9.4962   259  -3.3  100   -3.3  3     0     970.9    NA       0.0000   -SN      BR    1900  0    
2019/11/18  07:10:00  BASE  5.58012  267  9.4962   259  -3.3  100   -3.3  3     0     970.9    NA       0.0000   -SN      BR    1800  0    
2019/11/18  07:11:00  BASE  4.68048  274  9.4962   259  -3.3  100   -3.3  3     0     971.0    NA       0.0000   -SN      BR    2000  0    
2019/11/18  07:12:00  BASE  4.47468  275  9.4962   259  -3.3  100   -3.3  3     0     971.0    NA       0.0000   -SN      BR    2500  0    
2019/11/18  07:13:00  BASE  5.09796  267  9.4962   259  -3.4  100   -3.4  4     0     971.0    NA       0.0000   -SN      BR    2000  0    
2019/11/18  07:14:00  BASE  5.68008  263  9.07284  257  -3.5  100   -3.5  4     0     971.0    NA       0.0000   -SN      BR    2100  0    
2019/11/18  07:15:00  BASE  4.86864  266  8.95524  259  -3.5  100   -3.5  4     0     971.1    NA       0.0000   -SN      BR    1900  0    
2019/11/18  07:16:00  BASE  3.92784  273  8.19672  258  -3.6  100   -3.6  4     0     971.2    NA       0.0000   -SN      BR    2200  0    
2019/11/18  07:17:00  BASE  4.04544  271  7.47348  260  -3.6  100   -3.6  4     0     971.2    NA       0.0000   -SN      BR    2300  0    
2019/11/18  07:18:00  BASE  3.86316  269  7.47348  260  -3.7  100   -3.7  4     0     971.2    NA       0.0000   -SN      BR    2500  0    
2019/11/18  07:19:00  BASE  3.60444  274  7.47348  260  -3.7  100   -3.7  4     0     971.2    NA       0.0000   -SN      BR    2900  0    
2019/11/18  07:20:00  BASE  3.62208  288  7.47348  260  -3.7  100   -3.7  4     0     971.2    NA       0.0000   -SN      BR    3200  0    
2019/11/18  07:21:00  BASE  4.59228  302  7.47348  260  -3.7  100   -3.7  4     0     971.2    NA       0.0000   -SN      BR    3600  0    
2019/11/18  07:22:00  BASE  5.45076  305  7.47348  260  -3.7  100   -3.7  4     0     971.2    NA       0.0000   -SN      BR    5000  0    
2019/11/18  07:23:00  BASE  5.95056  303  7.47348  260  -3.8  100   -3.8  4     0     971.2    NA       0.0000   -SN      BR    5000  0    
2019/11/18  07:24:00  BASE  6.27984  303  7.10892  303  -3.8  100   -3.8  4     0     971.2    NA       0.0000   -SN      BR    5000  0    
2019/11/18  07:25:00  BASE  5.90352  300  7.10892  303  -3.9  100   -3.9  5     0     971.3    NA       0.0000   -SN      BR    6000  0    
2019/11/18  07:26:00  BASE  5.92116  303  7.68516  296  -4.0  100   -4.0  5     0     971.3    NA       0.0000   -SN      BR    5000  0    
2019/11/18  07:27:00  BASE  6.18576  303  7.68516  296  -4.0  100   -4.0  5     0     971.4    NA       0.0000   -SN      BR    7000  0    
2019/11/18  07:28:00  BASE  6.16812  295  7.68516  296  -4.1  100   -4.1  5     0     971.4    NA       0.0000   -SN      BR    7000  0    
2019/11/18  07:29:00  BASE  6.09756  292  7.68516  296  -4.1  100   -4.1  5     0     971.5    NA       0.0000   -SN      BR    4800  0    
2019/11/18  07:30:00  BASE  6.10932  294  7.68516  296  -4.2  100   -4.2  6     0     971.5    NA       0.0000   -SN      BR    4300  0    
2019/11/18  07:31:00  BASE  6.36804  298  7.68516  296  -4.3  100   -4.3  6     0     971.5    NA       0.0000   -SN      BR    5000  0    
2019/11/18  07:32:00  BASE  6.28572  297  7.68516  296  -4.4  100   -4.4  6     0     971.6    NA       0.0000   -SN      BR    7000  0    
2019/11/18  07:33:00  BASE  6.62676  291  7.95564  285  -4.4  100   -4.4  6     0     971.6    NA       0.0000   -SN      BR    6000  0    
2019/11/18  07:34:00  BASE  7.0266   286  7.95564  285  -4.5  100   -4.5  6     0     971.6    NA       0.0000   -SN      BR    4600  0    
2019/11/18  07:35:00  BASE  6.50328  286  7.95564  285  -4.6  100   -4.6  7     0     971.7    NA       0.0000   -SN      BR    3900  0    
2019/11/18  07:36:00  BASE  5.4096   299  7.95564  285  -4.6  100   -4.6  7     0     971.7    NA       0.0000   -SN      BR    3800  0    
2019/11/18  07:37:00  BASE  5.18028  306  7.95564  285  -4.6  100   -4.6  7     0     971.7    NA       0.0000   -SN      BR    5000  0    
2019/11/18  07:38:00  BASE  5.83296  296  7.95564  285  -4.6  100   -4.6  8     0     971.7    NA       0.0000   -SN      BR    6000  0    
2019/11/18  07:39:00  BASE  5.92704  294  7.95564  285  -4.6  100   -4.6  8     0     971.7    NA       0.0000   -SN      BR    6000  0    
2019/11/18  07:40:00  BASE  5.52132  289  7.95564  285  -4.6  100   -4.6  8     0     971.8    NA       0.0000   -SN      BR    5000  0    
2019/11/18  07:41:00  BASE  4.69224  280  7.95564  285  -4.6  100   -4.6  9     0     971.8    NA       0.0000   -SN      BR    4000  0    
2019/11/18  07:42:00  BASE  4.26888  291  7.95564  285  -4.7  100   -4.7  9     0     971.8    NA       0.0000   -SN      BR    3400  0    
2019/11/18  07:43:00  BASE  4.70988  311  7.74396  292  -4.7  100   -4.7  9     0     971.8    NA       0.0000   -SN      BR    4100  0    
2019/11/18  07:44:00  BASE  5.21556  310  7.3206   300  -4.7  100   -4.7  10    0     971.8    NA       0.0000   -SN      BR    6000  0    
2019/11/18  07:45:00  BASE  5.22144  300  7.3206   300  -4.7  100   -4.7  10    0     971.9    NA       0.0000   -SN      BR    3700  0    
2019/11/18  07:46:00  BASE  5.92704  297  8.3496   280  -4.7  100   -4.7  11    0     971.9    NA       0.0000   -SN      BR    4100  0    
2019/11/18  07:47:00  BASE  6.0564   294  8.3496   280  -4.7  100   -4.7  12    0     972.0    NA       0.0000   -SN      BR    6000  0    
2019/11/18  07:48:00  BASE  5.69772  295  8.3496   280  -4.8  100   -4.8  12    0     972.0    NA       0.0000   -SN      BR    5000  0    
2019/11/18  07:49:00  BASE  5.80356  297  8.3496   280  -4.8  100   -4.8  12    0     972.0    NA       0.0000   -SN      BR    6000  0    
2019/11/18  07:50:00  BASE  4.98036  287  8.3496   280  -4.9  100   -4.9  13    0     972.0    NA       0.0000   -SN      BR    5000  0    
2019/11/18  07:51:00  BASE  4.35708  276  8.3496   280  -4.9  100   -4.9  13    0     972.1    NA       0.0000   -SN      BR    3200  0    
2019/11/18  07:52:00  BASE  4.13952  279  8.3496   280  -4.9  100   -4.9  13    0     972.2    NA       0.0000   -SN      BR    2600  0    
2019/11/18  07:53:00  BASE  4.19832  285  8.3496   280  -4.9  100   -4.9  13    0     972.2    NA       0.0000   -SN      BR    2600  0    
2019/11/18  07:54:00  BASE  5.18028  290  8.3496   280  -4.9  100   -4.9  14    0     972.1    NA       0.0000   -SN      BR    2800  0    
2019/11/18  07:55:00  BASE  6.06816  290  8.3496   280  -4.9  100   -4.9  14    0     972.2    NA       0.0000   -SN      BR    2600  0    
2019/11/18  07:56:00  BASE  5.4684   284  7.16772  302  -5.0  100   -5.0  15    0     972.2    NA       0.0000   -SN      BR    2100  0    
2019/11/18  07:57:00  BASE  4.28064  291  7.16772  302  -5.0  100   -5.0  15    0     972.2    NA       0.0000   -SN      BR    1800  0    
2019/11/18  07:58:00  BASE  4.6746   304  6.80316  275  -5.0  100   -5.0  15    0     972.2    NA       0.0000   -SN      BR    2400  0    
2019/11/18  07:59:00  BASE  5.2038   307  6.80316  275  -5.0  100   -5.0  16    0     972.2    NA       0.0000   -SN      BR    3000  0    
2019/11/18  08:00:00  BASE  4.8216   306  6.80316  275  -5.0  100   -5.0  17    0     972.3    NA       0.0000   -SN      BR    2700  0    
2019/11/18  08:01:00  BASE  5.4978   296  7.2618   278  -5.0  100   -5.0  17    0     972.2    NA       0.0000   -SN      BR    2500  0    
2019/11/18  08:02:00  BASE  5.94468  277  7.2618   278  -5.0  100   -5.0  17    0     972.3    NA       0.0000   -SN      BR    2400  0    
2019/11/18  08:03:00  BASE  5.7624   266  7.4088   275  -5.1  100   -5.1  18    0     972.3    NA       0.0000   -SN      BR    2900  0    
2019/11/18  08:04:00  BASE  5.80356  265  7.4088   275  -5.1  100   -5.1  19    0     972.3    NA       0.0000   -SN      BR    3700  0    
2019/11/18  08:05:00  BASE  5.66244  265  7.4088   275  -5.2  100   -5.2  19    0     972.4    NA       0.0000   -SN      BR    4100  0    
2019/11/18  08:06:00  BASE  5.37432  265  7.4088   275  -5.3  100   -5.3  18    0     972.4    NA       0.0000   -SN      BR    4000  0    
2019/11/18  08:07:00  BASE  5.0568   271  7.4088   275  -5.3  100   -5.3  18    0     972.4    NA       0.0000   -SN      BR    3700  0    
2019/11/18  08:08:00  BASE  4.72164  279  7.4088   275  -5.3  100   -5.3  18    0     972.4    NA       0.0000   -SN      BR    3500  0    
2019/11/18  08:09:00  BASE  4.66284  285  7.4088   275  -5.3  100   -5.3  19    0     972.4    NA       0.0000   -SN      BR    3300  0    
2019/11/18  08:10:00  BASE  5.3214   289  7.4088   275  -5.3  100   -5.3  19    0     972.4    NA       0.0000   -SN      BR    3200  0    
2019/11/18  08:11:00  BASE  6.0858   289  7.4088   275  -5.3  100   -5.3  19    0     972.4    NA       0.0000   -SN      BR    3700  0    
2019/11/18  08:12:00  BASE  6.53268  294  7.4088   275  -5.3  100   -5.3  20    0     972.4    NA       0.0000   -SN      BR    5000  0    
2019/11/18  08:13:00  BASE  6.5562   294  7.4088   282  -5.4  100   -5.4  20    0     972.4    NA       0.0000   -SN      BR    6000  0    
2019/11/18  08:14:00  BASE  6.41508  287  7.4088   281  -5.4  100   -5.4  20    0     972.4    NA       0.0000   -SN      BR    4400  0    
2019/11/18  08:15:00  BASE  6.027    278  7.47348  265  -5.4  100   -5.4  20    0     972.4    NA       0.0000   -SN      BR    3700  0    
2019/11/18  08:16:00  BASE  6.16224  269  7.47348  265  -5.5  100   -5.5  21    0     972.4    NA       0.0000   -SN      BR    3000  0    
2019/11/18  08:17:00  BASE  6.60912  262  7.53228  259  -5.4  100   -5.4  21    0     972.4    NA       0.0000   -SN      BR    3100  0    
2019/11/18  08:18:00  BASE  6.74436  257  7.53228  259  -5.4  100   -5.4  21    0     972.5    NA       0.0000   -SN      BR    3000  0    
2019/11/18  08:19:00  BASE  6.60324  254  7.53228  259  -5.5  100   -5.5  21    0     972.5    NA       0.0000   -SN      BR    2400  0    
2019/11/18  08:20:00  BASE  5.4684   252  7.53228  259  -5.5  100   -5.5  21    0     972.6    NA       0.0000   -SN      BR    2200  0    
2019/11/18  08:21:00  BASE  4.42764  256  7.53228  259  -5.5  100   -5.5  21    0     972.6    NA       0.0000   -SN      BR    2100  0    
2019/11/18  08:22:00  BASE  4.06896  275  7.53228  259  -5.5  100   -5.5  22    0     972.6    NA       0.0000   -SN      BR    2200  0    
2019/11/18  08:23:00  BASE  4.65108  283  7.53228  259  -5.5  100   -5.5  22    0     972.6    NA       0.0000   -SN      BR    2600  0    
2019/11/18  08:24:00  BASE  5.87412  278  7.53228  273  -5.5  100   -5.5  22    0     972.6    NA       0.0000   -SN      BR    2900  0    
2019/11/18  08:25:00  BASE  6.07992  277  7.53228  292  -5.6  100   -5.6  23    0     972.6    NA       0.0000   -SN      BR    3100  0    
2019/11/18  08:26:00  BASE  5.733    269  7.53228  292  -5.6  100   -5.6  23    0     972.7    NA       0.0000   -SN      BR    2500  0    
2019/11/18  08:27:00  BASE  5.06856  273  7.53228  292  -5.6  100   -5.6  23    0     972.7    NA       0.0000   -SN      BR    2200  0    
2019/11/18  08:28:00  BASE  4.50408  288  7.53228  292  -5.7  100   -5.7  24    0     972.8    NA       0.0000   -SN      BR    2700  0    
2019/11/18  08:29:00  BASE  4.851    285  7.53228  292  -5.7  100   -5.7  24    0     972.8    NA       0.0000   -SN      BR    3200  0    
2019/11/18  08:30:00  BASE  4.9098   277  7.53228  292  -5.7  100   -5.7  24    0     972.8    NA       0.0000   -SN      BR    2300  0    
2019/11/18  08:31:00  BASE  4.52172  274  7.53228  292  -5.7  100   -5.7  25    0     972.8    NA       0.0000   -SN      BR    2100  0    
2019/11/18  08:32:00  BASE  4.62756  272  7.53228  292  -5.7  100   -5.7  26    0     972.8    NA       0.0000   -SN      BR    2200  0    
2019/11/18  08:33:00  BASE  5.52132  275  7.53228  292  -5.7  100   -5.7  26    0     972.8    NA       0.0000   -SN      BR    2300  0    
2019/11/18  08:34:00  BASE  6.20928  283  7.74396  291  -5.7  100   -5.7  27    0     972.8    NA       0.0000   -SN      BR    3700  0    
2019/11/18  08:35:00  BASE  6.42684  285  7.86744  287  -5.8  100   -5.8  28    0     972.9    NA       0.0000   -SN      BR    4800  0    
2019/11/18  08:36:00  BASE  6.4092   282  7.86744  287  -5.8  100   -5.8  29    0     972.9    NA       0.0000   -SN      BR    3100  0    
2019/11/18  08:37:00  BASE  6.4974   280  7.86744  287  -5.9  100   -5.9  30    0     972.9    NA       0.0000   -SN      BR    2900  0    
2019/11/18  08:38:00  BASE  6.16812  281  7.86744  287  -6.0  100   -6.0  31    0     972.9    NA       0.0000   -SN      BR    3200  0    
2019/11/18  08:39:00  BASE  5.29788  284  7.86744  287  -6.0  100   -6.0  32    0     972.9    NA       0.0000   -SN      BR    3400  0    
2019/11/18  08:40:00  BASE  5.145    288  7.86744  287  -6.1  100   -6.1  34    0     972.9    NA       0.0000   -SN      BR    4100  0    
2019/11/18  08:41:00  BASE  5.50956  292  7.86744  287  -6.1  100   -6.1  35    0     972.9    NA       0.0000   -SN      BR    4100  0    
2019/11/18  08:42:00  BASE  5.51544  290  7.86744  287  -6.1  100   -6.1  36    0     973.0    NA       0.0000   -SN      BR    3200  0    
2019/11/18  08:43:00  BASE  4.78044  284  7.86744  287  -6.0  100   -6.0  37    0     973.0    NA       0.0000   -SN      BR    2500  0    
2019/11/18  08:44:00  BASE  4.58052  278  7.95564  269  -6.0  100   -6.0  38    0     973.1    NA       0.0000   -SN      BR    2000  0    
2019/11/18  08:45:00  BASE  5.8506   266  7.95564  269  -6.0  100   -6.0  40    0     973.1    NA       0.0000   -SN      BR    2100  0    
2019/11/18  08:46:00  BASE  6.66792  257  7.95564  269  -6.1  100   -6.1  41    0     973.1    NA       0.0000   -SN      BR    2200  0    
2019/11/18  08:47:00  BASE  6.15636  262  7.95564  269  -6.1  100   -6.1  43    0     973.2    NA       0.0000   -SN      BR    2200  0    
2019/11/18  08:48:00  BASE  5.21556  274  7.95564  269  -6.1  100   -6.1  43    0     973.2    NA       0.0000   -SN      BR    2700  0    
2019/11/18  08:49:00  BASE  4.72752  285  7.95564  269  -6.1  100   -6.1  44    0     973.2    NA       0.0000   -SN      BR    3400  0    
2019/11/18  08:50:00  BASE  5.52132  287  7.95564  269  -6.1  100   -6.1  45    0     973.2    NA       0.0000   -SN      BR    5000  0    
2019/11/18  08:51:00  BASE  6.3504   282  7.95564  269  -6.2  100   -6.2  45    0     973.2    NA       0.0000   -SN      BR    6000  0    
2019/11/18  08:52:00  BASE  5.9388   279  7.95564  269  -6.2  100   -6.2  46    0     973.3    NA       0.0000   -SN      BR    6000  0    
2019/11/18  08:53:00  BASE  5.2626   279  7.95564  269  -6.2  100   -6.2  47    0     973.3    NA       0.0000   -SN      BR    5000  0    
2019/11/18  08:54:00  BASE  4.93332  283  7.59108  250  -6.2  100   -6.2  48    0     973.3    NA       0.0000   -SN      BR    6000  0    
2019/11/18  08:55:00  BASE  4.41     278  7.13832  280  -6.2  100   -6.2  50    0     973.4    NA       0.0000   -SN      BR    8000  0    
2019/11/18  08:56:00  BASE  4.60404  267  7.13832  280  -6.2  100   -6.2  51    0     973.4    NA       0.0000   -SN      BR    7000  0    
2019/11/18  08:57:00  BASE  5.48604  263  7.13832  280  -6.2  100   -6.2  52    0     973.4    NA       0.0000   -SN      BR    6000  0    
2019/11/18  08:58:00  BASE  5.48604  261  7.13832  280  -6.3  100   -6.3  53    0     973.4    NA       0.0000   -SN      BR    5000  0    
2019/11/18  08:59:00  BASE  5.19792  259  7.13832  280  -6.3  100   -6.3  54    0     973.4    NA       0.0000   -SN      BR    4500  0    
2019/11/18  09:00:00  BASE  4.7922   264  6.92664  282  -6.4  100   -6.4  55    0     973.4    NA       0.0000   -SN      BR    5000  0    
2019/11/18  09:01:00  BASE  4.4688   273  6.53268  263  -6.4  100   -6.4  55    0     973.5    NA       0.0000   -SN      BR    4800  0    
2019/11/18  09:02:00  BASE  4.6746   271  6.53268  263  -6.4  100   -6.4  55    0     973.5    NA       0.0000   -SN      BR    3500  0    
2019/11/18  09:03:00  BASE  4.37472  267  6.53268  263  -6.4  100   -6.4  54    0     973.5    NA       0.0000   -SN      BR    3100  0    
2019/11/18  09:04:00  BASE  3.79848  280  6.53268  263  -6.4  100   -6.4  52    0     973.5    NA       0.0000   -SN      BR    2800  0    
2019/11/18  09:05:00  BASE  4.05132  289  6.53268  263  -6.3  100   -6.3  53    0     973.5    NA       0.0000   -SN      BR    3400  0    
2019/11/18  09:06:00  BASE  4.42176  290  6.2622   255  -6.3  100   -6.3  54    0     973.5    NA       0.0000   -SN      BR    4800  0    
2019/11/18  09:07:00  BASE  4.56876  291  6.2622   255  -6.3  100   -6.3  54    0     973.5    NA       0.0000   -SN      BR    6000  0    
2019/11/18  09:08:00  BASE  4.69812  290  6.2622   255  -6.4  100   -6.4  54    0     973.5    NA       0.0000   -SN      BR    7000  0    
2019/11/18  09:09:00  BASE  4.76868  289  6.2034   281  -6.4  100   -6.4  55    0     973.5    NA       0.0000   -SN      BR    7000  0    
2019/11/18  09:10:00  BASE  5.18028  285  6.2034   281  -6.4  100   -6.4  57    0     973.5    NA       0.0000   -SN      BR    6000  0    
2019/11/18  09:11:00  BASE  5.37432  270  6.2916   263  -6.4  100   -6.4  58    0     973.6    NA       0.0000   -SN      BR    6000  0    
2019/11/18  09:12:00  BASE  5.50368  260  6.80316  260  -6.4  100   -6.4  59    0     973.6    NA       0.0000   -SN      BR    3200  0    
2019/11/18  09:13:00  BASE  6.44448  254  8.19672  251  -6.4  100   -6.4  61    0     973.6    NA       0.0000   -SN      BR    3000  0    
2019/11/18  09:14:00  BASE  7.30296  251  8.95524  250  -6.5  100   -6.5  62    0     973.6    NA       0.0000   -SN      BR    2500  0    
2019/11/18  09:15:00  BASE  7.12068  255  8.95524  250  -6.6  100   -6.6  63    0     973.7    NA       0.0000   -SN      BR    3400  0    
2019/11/18  09:16:00  BASE  6.45624  258  8.95524  250  -6.6  100   -6.6  64    0     973.7    NA       0.0000   -SN      BR    2900  0    
2019/11/18  09:17:00  BASE  6.16812  258  8.95524  250  -6.7  100   -6.7  65    0     973.7    NA       0.0000   -SN      BR    3600  0    
2019/11/18  09:18:00  BASE  5.0862   259  8.95524  250  -6.7  100   -6.7  65    0     973.7    NA       0.0000   -SN      BR    4200  0    
2019/11/18  09:19:00  BASE  4.26888  271  8.95524  250  -6.7  100   -6.7  66    0     973.7    NA       0.0000   -SN      BR    4100  0    
2019/11/18  09:20:00  BASE  4.704    281  8.95524  250  -6.7  100   -6.7  65    0     973.7    NA       0.0000   -SN      BR    4100  0    
2019/11/18  09:21:00  BASE  4.65108  285  8.95524  250  -6.7  100   -6.7  64    0     973.7    NA       0.0000   -SN      BR    5000  0    
2019/11/18  09:22:00  BASE  4.33944  288  8.95524  250  -6.7  100   -6.7  65    0     973.7    NA       0.0000   -SN      BR    4600  0    
2019/11/18  09:23:00  BASE  4.66284  284  8.95524  250  -6.7  100   -6.7  65    0     973.7    NA       0.0000   -SN      BR    4800  0    
2019/11/18  09:24:00  BASE  5.19204  284  8.71416  255  -6.7  100   -6.7  64    0     973.7    NA       0.0000   -SN      BR    4400  0    
2019/11/18  09:25:00  BASE  5.38608  282  7.74396  258  -6.7  100   -6.7  64    0     973.7    NA       0.0000   -SN      BR    4300  0    
2019/11/18  09:26:00  BASE  5.60952  280  7.65576  251  -6.7  100   -6.7  66    0     973.8    NA       0.0000   -SN      BR    4200  0    
2019/11/18  09:27:00  BASE  5.26848  282  6.92664  278  -6.8  100   -6.8  68    0     973.8    NA       0.0000   -SN      BR    5000  23260
2019/11/18  09:28:00  BASE  4.77456  278  6.92664  278  -6.8  100   -6.8  69    0     973.9    NA       0.0000   -SN      BR    8000  0    
2019/11/18  09:29:00  BASE  5.00388  266  6.92664  278  -6.8  100   -6.8  70    0     973.9    NA       0.0000   -SN      BR    9999  0    
2019/11/18  09:30:00  BASE  4.94508  262  6.92664  278  -6.8  100   -6.8  69    0     973.9    NA       0.0000   -SN      BR    9999  0    
2019/11/18  09:31:00  BASE  4.52172  260  6.92664  278  -6.8  100   -6.8  67    0     974.0    NA       0.0000   -SN      BR    6000  0    
2019/11/18  09:32:00  BASE  4.4394   258  6.92664  278  -6.9  100   -6.9  64    0     974.0    NA       0.0000   -SN      BR    8000  0    
2019/11/18  09:33:00  BASE  4.7628   257  6.92664  278  -6.9  100   -6.9  60    0     974.0    NA       0.0000   -SN      BR    8000  0    
2019/11/18  09:34:00  BASE  4.46292  268  6.65616  256  -6.9  100   -6.9  55    0     974.0    NA       0.0000   -SN      BR    9999  0    
2019/11/18  09:35:00  BASE  3.86904  279  6.65616  256  -6.9  100   -6.9  53    0     974.0    NA       0.0000   -SN      BR    9999  0    
2019/11/18  09:36:00  BASE  3.7338   276  6.65616  256  -6.9  100   -6.9  51    0     974.1    NA       0.0000   -SN      BR    9999  0    
2019/11/18  09:37:00  BASE  3.53976  270  6.65616  256  -6.9  100   -6.9  50    0     974.0    NA       0.0000   -SN      BR    9999  230  
2019/11/18  09:38:00  BASE  3.90432  262  6.65616  256  -6.9  100   -6.9  49    0     974.0    NA       0.0000   -SN      BR    9999  230  
2019/11/18  09:39:00  BASE  4.74516  267  6.321    259  -6.9  100   -6.9  48    0     974.0    NA       0.2540   -SN      9999  260   0    
2019/11/18  09:40:00  BASE  5.2038   271  6.321    277  -6.9  100   -6.9  48    0     974.0    NA       0.0000   -SN      9999  300   0    
2019/11/18  09:41:00  BASE  5.04504  263  6.321    277  -6.9  100   -6.9  48    0     974.0    NA       0.0000   -SN      9999  330   0    
2019/11/18  09:42:00  BASE  4.89216  256  6.321    277  -7.0  100   -7.0  47    0     974.0    NA       0.0000   -SN      9999  360   0    
2019/11/18  09:43:00  BASE  5.0274   254  6.321    277  -7.0  100   -7.0  46    0     974.0    NA       0.0000   -SN      9999  360   0    
2019/11/18  09:44:00  BASE  4.9098   257  6.321    277  -7.0  100   -7.0  46    0     974.0    NA       0.0000   -SN      9999  360   0    
2019/11/18  09:45:00  BASE  4.70988  260  6.321    277  -7.0  100   -7.0  47    0     974.1    NA       0.0000   -SN      9999  390   0    
2019/11/18  09:46:00  BASE  4.6452   264  6.321    277  -6.9  100   -6.9  49    0     974.1    NA       0.0000   9999     390   0     0    
2019/11/18  09:47:00  BASE  5.10972  267  7.4088   260  -6.9  100   -6.9  51    0     974.1    NA       0.0000   9999     390   0     0    
2019/11/18  09:48:00  BASE  5.95056  263  8.13792  255  -6.9  100   -6.9  54    0     974.1    NA       0.0000   9999     390   0     0    
2019/11/18  09:49:00  BASE  6.2916   262  8.13792  255  -6.9  100   -6.9  56    0     974.1    NA       0.0000   9999     390   0     0    
2019/11/18  09:50:00  BASE  6.09168  267  8.13792  255  -6.9  100   -6.9  58    0     974.1    NA       0.0000   9999     1050  0     0    
2019/11/18  09:51:00  BASE  6.30924  261  8.13792  255  -7.0  100   -7.0  61    0     974.1    NA       0.0000   9999     1050  0     0    
2019/11/18  09:52:00  BASE  5.97996  260  8.13792  255  -7.0  100   -7.0  63    0     974.2    NA       0.0000   9999     1020  0     0    
2019/11/18  09:53:00  BASE  4.86276  265  8.13792  255  -7.0  100   -7.0  65    0     974.2    NA       0.0000   9999     980   0     0    
2019/11/18  09:54:00  BASE  4.263    263  8.13792  255  -7.0  100   -7.0  67    0     974.2    NA       0.0000   9999     1020  0     0    
2019/11/18  09:55:00  BASE  4.1748   265  8.13792  255  -6.9  100   -6.9  68    0     974.2    NA       0.0000   9999     1050  0     0    
2019/11/18  09:56:00  BASE  4.28064  270  8.13792  255  -6.9  100   -6.9  68    0     974.2    NA       0.0000   9999     1020  0     0    
2019/11/18  09:57:00  BASE  4.53936  272  8.13792  255  -6.9  100   -6.9  67    0     974.2    NA       0.0000   9999     1050  0     0    
2019/11/18  09:58:00  BASE  4.89216  274  8.01444  266  -6.9  100   -6.9  66    0     974.2    NA       0.0000   9999     920   0     0    
2019/11/18  09:59:00  BASE  4.31592  275  7.59108  251  -6.9  100   -6.9  64    0     974.2    NA       0.0000   9999     980   0     0    
2019/11/18  10:00:00  BASE  3.53388  278  7.59108  251  -6.9  100   -6.9  61    0     974.2    NA       0.0000   9999     920   0     0    
2019/11/18  10:01:00  BASE  3.9102   279  6.59148  264  -6.9  100   -6.9  55    0     974.2    NA       0.0000   9000     920   0     0    
2019/11/18  10:02:00  BASE  4.57464  280  6.2034   248  -6.9  100   -6.9  49    0     974.2    NA       0.0000   9000     920   23070 0    
2019/11/18  10:03:00  BASE  4.58052  283  6.2034   248  -6.9  100   -6.9  44    0     974.2    NA       0.0000   9000     980   0     0    
2019/11/18  10:04:00  BASE  4.71576  278  6.2034   248  -6.9  100   -6.9  42    0     974.3    NA       0.0000   9000     920   0     0    
2019/11/18  10:05:00  BASE  5.15088  264  6.2034   248  -6.9  100   -6.9  42    0     974.3    NA       0.0000   BR       9000  980   0    
2019/11/18  10:06:00  BASE  5.56248  250  6.65616  241  -6.9  100   -6.9  42    0     974.3    NA       0.0000   BR       8000  1050  0    
2019/11/18  10:07:00  BASE  5.439    244  6.65616  241  -7.0  100   -7.0  42    0     974.3    NA       0.0000   BR       8000  1050  0    
2019/11/18  10:08:00  BASE  4.60992  255  6.65616  241  -7.0  100   -7.0  42    0     974.3    NA       0.0000   BR       8000  1050  0    
2019/11/18  10:09:00  BASE  5.07444  266  6.86784  263  -7.0  100   -7.0  42    0     974.3    NA       0.2540   BR       8000  1150  0    
2019/11/18  10:10:00  BASE  5.69772  264  6.86784  263  -7.0  100   -7.0  43    0     974.3    NA       0.0000   BR       7000  1180  0    
2019/11/18  10:11:00  BASE  5.292    264  6.86784  263  -7.1  100   -7.1  45    0     974.3    NA       0.0000   BR       7000  1210  0    
2019/11/18  10:12:00  BASE  4.98036  263  6.86784  263  -7.1  100   -7.1  49    0     974.4    NA       0.0000   BR       7000  1050  0    
2019/11/18  10:13:00  BASE  3.8808   267  6.86784  263  -7.1  100   -7.1  58    0     974.5    NA       0.0000   -SN      BR    6000  1080 
2019/11/18  10:14:00  BASE  3.92784  269  6.86784  263  -7.0  100   -7.0  70    0     974.4    NA       0.0000   -SN      BR    6000  1150 
2019/11/18  10:15:00  BASE  5.31552  268  8.4378   257  -7.0  100   -7.0  85    0     974.4    NA       0.0000   -SN      BR    6000  1180 
2019/11/18  10:16:00  BASE  7.42056  264  10.1665  248  -7.0  100   -7.0  104   0     974.4    NA       0.0000   -SN      BR    9999  1150 
2019/11/18  10:17:00  BASE  8.9082   260  10.1665  248  -7.0  100   -7.0  119   0     974.4    NA       0.0000   -SN      BR    9999  1210 
2019/11/18  10:18:00  BASE  8.62008  258  10.1665  248  -7.0  100   -7.0  127   0     974.4    NA       0.0000   -SN      BR    9999  1210 
2019/11/18  10:19:00  BASE  7.83216  254  10.1665  248  -7.0  100   -7.0  132   0     974.5    NA       0.0000   -SN      BR    9999  1250 
2019/11/18  10:20:00  BASE  7.33236  252  10.1665  248  -7.1  100   -7.1  135   0     974.5    NA       0.0000   -SN      BR    9999  1280 
2019/11/18  10:21:00  BASE  6.83256  253  10.1665  248  -7.1  100   -7.1  138   0     974.5    NA       0.0000   BR       9999  1080  0    
2019/11/18  10:22:00  BASE  5.56836  258  10.1665  248  -7.0  100   -7.0  140   0     974.5    NA       0.0000   9999     1050  17650 0    
2019/11/18  10:23:00  BASE  5.00976  270  10.1665  248  -7.0  100   -7.0  139   0     974.5    NA       0.0000   9999     950   0     0    
2019/11/18  10:24:00  BASE  5.16852  279  10.1665  248  -6.9  100   -6.9  138   0     974.5    NA       0.0000   9999     1120  0     0    
2019/11/18  10:25:00  BASE  5.7036   270  10.1665  248  -6.9  100   -6.9  137   0     974.5    NA       0.0000   9999     950   0     0    
2019/11/18  10:26:00  BASE  6.69144  260  9.86076  250  -6.9  100   -6.9  138   0     974.5    NA       0.0000   9999     690   0     0    
2019/11/18  10:27:00  BASE  7.59108  253  9.86076  250  -6.9  100   -6.9  140   0     974.5    NA       0.0000   9999     660   0     0    
2019/11/18  10:28:00  BASE  7.7028   252  8.67888  247  -6.9  100   -6.9  142   0     974.6    NA       0.0000   9999     720   0     0    
2019/11/18  10:29:00  BASE  7.203    250  8.67888  247  -6.9  100   -6.9  143   0     974.6    NA       0.0000   9999     720   0     0    
2019/11/18  10:30:00  BASE  7.2912   251  8.67888  247  -7.0  100   -7.0  144   0     974.6    NA       0.0000   9999     750   0     0    
2019/11/18  10:31:00  BASE  7.33236  255  8.67888  247  -7.0  100   -7.0  147   0     974.6    NA       0.0000   9999     590   0     0    
2019/11/18  10:32:00  BASE  6.81492  256  8.67888  247  -7.0  100   -7.0  148   0     974.6    NA       0.0000   9999     820   0     0    
2019/11/18  10:33:00  BASE  6.92664  254  8.67888  247  -7.0  100   -7.0  148   0     974.6    NA       0.0000   9999     820   0     0    
2019/11/18  10:34:00  BASE  7.10892  251  8.67888  247  -7.0  100   -7.0  151   0     974.6    NA       0.0000   9999     790   0     0    
2019/11/18  10:35:00  BASE  6.56208  251  8.67888  247  -7.0  100   -7.0  156   0     974.7    NA       0.0000   9999     790   0     0    
2019/11/18  10:36:00  BASE  6.09756  255  8.67888  247  -7.0  100   -7.0  160   0     974.7    NA       0.0000   9999     920   0     0    
2019/11/18  10:37:00  BASE  5.60364  256  8.53188  252  -7.0  100   -7.0  164   0     974.6    NA       0.0000   9999     820   0     0    
2019/11/18  10:38:00  BASE  5.34492  260  8.53188  252  -7.0  100   -7.0  169   0     974.7    NA       0.0000   9999     890   0     0    
2019/11/18  10:39:00  BASE  6.44448  259  8.67888  253  -7.0  100   -7.0  173   0     974.6    NA       0.0000   9999     790   0     0    
2019/11/18  10:40:00  BASE  7.51464  252  9.01404  246  -7.0  100   -7.0  175   0     974.7    NA       0.0000   9999     790   0     0    
2019/11/18  10:41:00  BASE  7.50288  251  9.31392  255  -7.0  100   -7.0  179   0     974.6    NA       0.0000   9999     720   0     0    
2019/11/18  10:42:00  BASE  7.1442   254  9.31392  255  -7.0  100   -7.0  184   0     974.7    NA       0.0000   9999     820   0     0    
2019/11/18  10:43:00  BASE  7.07364  259  9.31392  255  -7.1  100   -7.1  187   0     974.7    NA       0.0000   9999     820   0     0    
2019/11/18  10:44:00  BASE  7.19712  258  9.31392  255  -7.1  100   -7.1  187   0     974.8    NA       0.0000   9999     620   0     0    
2019/11/18  10:45:00  BASE  6.19752  257  9.31392  255  -7.1  100   -7.1  187   0     974.8    NA       0.0000   9999     560   0     0    
2019/11/18  10:46:00  BASE  5.36844  259  9.31392  255  -7.0  100   -7.0  190   0     974.8    NA       0.0000   9999     520   0     0    
2019/11/18  10:47:00  BASE  6.38568  256  9.64908  255  -7.0  100   -7.0  193   0     974.8    NA       0.0000   9999     490   21590 0    
2019/11/18  10:48:00  BASE  8.10852  254  10.1312  250  -7.0  100   -7.0  195   0     974.7    NA       0.0000   9999     430   0     0    
2019/11/18  10:49:00  BASE  9.24924  256  10.1959  251  -7.0  100   -7.0  195   0     974.8    NA       0.0000   9999     390   0     0    
2019/11/18  10:50:00  BASE  8.92584  255  10.1959  251  -7.1  100   -7.1  192   0     974.8    NA       0.0000   9999     390   0     0    
2019/11/18  10:51:00  BASE  8.34372  254  10.1959  251  -7.1  100   -7.1  190   0     974.8    NA       0.0000   9999     460   0     0    
2019/11/18  10:52:00  BASE  7.88508  253  10.1959  251  -7.2  100   -7.2  191   0     974.9    NA       0.0000   9999     460   21720 0    
2019/11/18  10:53:00  BASE  7.02072  254  10.1959  251  -7.2  100   -7.2  192   0     974.9    NA       0.0000   9999     1640  0     0    
2019/11/18  10:54:00  BASE  6.75612  254  10.1959  251  -7.1  100   -7.1  193   0     974.9    NA       0.0000   9999     490   0     0    
2019/11/18  10:55:00  BASE  7.13244  254  10.1959  251  -7.1  100   -7.1  192   0     974.9    NA       0.0000   9999     430   0     0    
2019/11/18  10:56:00  BASE  7.16772  254  10.1959  251  -7.1  100   -7.1  192   0     974.9    NA       0.0000   9999     490   1540  0    
2019/11/18  10:57:01  BASE  6.96192  255  10.1959  251  -7.1  100   -7.1  195   0     975.0    NA       0.0000   9999     460   1610  0    
2019/11/18  10:58:00  BASE  7.07952  251  10.1959  251  -7.1  100   -7.1  197   0     975.0    NA       0.0000   9999     460   0     0    
2019/11/18  10:59:00  BASE  6.9972   248  9.4374   261  -7.1  100   -7.1  200   0     974.9    NA       0.0000   9999     560   0     0    
2019/11/18  11:00:00  BASE  6.92664  251  9.10224  255  -7.1  100   -7.1  202   0     975.0    NA       0.0000   9999     620   0     0    
2019/11/18  11:01:00  BASE  6.35628  253  8.77296  252  -7.1  100   -7.1  203   0     975.1    NA       0.0000   9999     820   0     0    
2019/11/18  11:02:01  BASE  4.8804   258  8.4378   260  -7.1  100   -7.1  205   0     975.1    NA       0.0000   9999     660   0     0    
2019/11/18  11:03:00  BASE  4.86864  262  8.4378   260  -7.1  100   -7.1  206   0     975.0    NA       0.0000   9999     520   0     0    
2019/11/18  11:04:00  BASE  6.22104  261  8.4378   260  -7.1  100   -7.1  208   0     975.1    NA       0.0000   9999     430   1310  0    
2019/11/18  11:05:00  BASE  6.2328   262  8.4378   260  -7.1  100   -7.1  209   0     975.1    NA       0.0000   9999     1280  0     0    
2019/11/18  11:06:00  BASE  5.3802   263  8.25552  243  -7.0  100   -7.0  209   0     975.1    NA       0.0000   9999     950   0     0    
2019/11/18  11:07:00  BASE  5.8506   262  8.25552  243  -7.0  100   -7.0  209   0     975.1    NA       0.0000   9999     1210  0     0    
2019/11/18  11:08:00  BASE  6.3798   264  8.04384  259  -7.0  100   -7.0  201   0     975.1    NA       0.0000   9999     1310  0     0    
2019/11/18  11:09:00  BASE  6.25632  266  8.04384  259  -7.0  100   -7.0  191   0     975.1    NA       0.0000   9999     1380  0     0    
2019/11/18  11:10:00  BASE  6.51504  261  8.04384  259  -7.0  100   -7.0  176   0     975.1    NA       0.0000   9999     1350  0     0    
2019/11/18  11:11:00  BASE  6.63852  256  8.04384  259  -7.0  100   -7.0  156   0     975.1    NA       0.0000   9999     1310  1970  0    
2019/11/18  11:12:01  BASE  7.4088   257  9.59028  257  -7.1  100   -7.1  134   0     975.1    NA       0.0000   9999     1440  0     0    
2019/11/18  11:13:00  BASE  8.30256  257  10.4076  248  -7.1  100   -7.1  121   0     975.1    NA       0.0000   9999     1540  0     0    
2019/11/18  11:14:01  BASE  9.32568  252  10.8016  248  -7.1  100   -7.1  119   0     975.1    NA       0.0000   9999     1540  0     0    
2019/11/18  11:15:00  BASE  9.00228  246  10.8016  248  -7.2  100   -7.2  124   0     975.2    NA       0.0000   9999     1610  0     0    
2019/11/18  11:16:00  BASE  7.27356  246  10.8016  248  -7.2  100   -7.2  135   0     975.2    NA       0.0000   9999     1540  0     0    
2019/11/18  11:17:00  BASE  6.66204  251  10.8016  248  -7.2  100   -7.2  149   0     975.3    NA       0.0000   9999     1570  0     0    
2019/11/18  11:18:00  BASE  6.25632  256  10.8016  248  -7.2  100   -7.2  164   0     975.2    NA       0.0000   9999     1510  0     0    
2019/11/18  11:19:00  BASE  5.71536  265  10.8016  248  -7.2  100   -7.2  178   0     975.3    NA       0.0000   9999     1480  0     0    
2019/11/18  11:20:01  BASE  6.174    267  10.8016  248  -7.2  100   -7.2  185   0     975.3    NA       0.0000   9999     1480  0     0    
2019/11/18  11:21:00  BASE  6.8208   266  10.8016  248  -7.1  100   -7.1  191   0     975.3    NA       0.0000   9999     1480  0     0    
2019/11/18  11:22:00  BASE  7.36764  262  10.8016  248  -7.1  100   -7.1  191   0     975.3    NA       0.0000   9999     1610  0     0    
2019/11/18  11:23:00  BASE  7.30884  259  10.8016  248  -7.1  100   -7.1  188   0     975.3    NA       0.0000   9999     1540  0     0    
2019/11/18  11:24:00  BASE  6.27396  269  9.5256   244  -7.1  100   -7.1  185   0     975.3    NA       0.0000   9999     1510  21390 0    
2019/11/18  11:25:00  BASE  6.06816  270  8.53188  255  -7.1  100   -7.1  184   0     975.4    NA       0.0000   9999     1480  0     0    
2019/11/18  11:26:00  BASE  6.40332  263  8.53188  255  -7.1  100   -7.1  184   0     975.4    NA       0.0000   9999     1480  0     0    
2019/11/18  11:27:00  BASE  6.98544  264  9.4668   259  -7.1  100   -7.1  183   0     975.3    NA       0.0000   9999     1480  0     0    
2019/11/18  11:28:00  BASE  7.33824  264  9.4668   259  -7.1  100   -7.1  182   0     975.3    NA       0.0000   9999     1610  0     0    
2019/11/18  11:29:00  BASE  6.7032   266  9.4668   259  -7.1  100   -7.1  180   0     975.4    NA       0.0000   9999     1640  0     0    
2019/11/18  11:30:00  BASE  5.733    270  9.4668   259  -7.1  100   -7.1  178   0     975.4    NA       0.0000   9999     1510  0     0    
2019/11/18  11:31:00  BASE  5.28024  271  9.4668   259  -7.1  100   -7.1  177   0     975.4    NA       0.0000   9999     1480  0     0    
2019/11/18  11:32:00  BASE  5.62128  265  9.4668   259  -7.1  100   -7.1  176   0     975.4    NA       0.0000   9999     1440  0     0    
2019/11/18  11:33:01  BASE  5.44488  259  9.4668   259  -7.1  100   -7.1  176   0     975.4    NA       0.0000   9999     1480  0     0    
2019/11/18  11:34:01  BASE  5.66832  257  9.4668   259  -7.0  100   -7.0  177   0     975.4    NA       0.0000   9999     1510  0     0    
2019/11/18  11:35:01  BASE  7.13244  255  9.4668   259  -7.0  100   -7.0  179   0     975.4    NA       0.0000   9999     1540  0     0    
2019/11/18  11:36:00  BASE  7.86156  254  9.4668   259  -7.0  100   -7.0  181   0     975.4    NA       0.0000   9999     1610  0     0    
2019/11/18  11:37:00  BASE  7.68516  258  8.64948  259  -7.1  100   -7.1  183   0     975.4    NA       0.0000   9999     1510  0     0    
2019/11/18  11:38:00  BASE  7.03836  262  8.64948  259  -7.1  100   -7.1  186   0     975.3    NA       0.0000   9999     1540  0     0    
2019/11/18  11:39:00  BASE  6.4092   260  8.64948  259  -7.1  100   -7.1  187   0     975.5    NA       0.0000   9999     1640  0     0    
2019/11/18  11:40:00  BASE  7.20888  255  9.04344  246  -7.1  100   -7.1  187   0     975.5    NA       0.0000   9999     1540  0     0    
2019/11/18  11:41:00  BASE  8.12616  254  9.04344  246  -7.1  100   -7.1  187   0     975.5    NA       0.0000   9999     1570  0     0    
2019/11/18  11:42:00  BASE  7.81452  259  9.04344  246  -7.1  100   -7.1  190   0     975.5    NA       0.0000   9999     1610  0     0    
2019/11/18  11:43:00  BASE  7.4676   261  9.04344  246  -7.1  100   -7.1  191   0     975.6    NA       0.0000   9999     1610  0     0    
2019/11/18  11:44:00  BASE  7.5264   259  9.04344  246  -7.2  100   -7.2  192   0     975.6    NA       0.0000   9999     1570  0     0    
2019/11/18  11:45:00  BASE  7.29708  258  9.04344  246  -7.2  100   -7.2  192   0     975.6    NA       0.0000   9999     1640  0     0    
2019/11/18  11:46:00  BASE  6.47976  268  9.04344  246  -7.2  100   -7.2  193   0     975.6    NA       0.0000   9999     1570  0     0    
2019/11/18  11:47:00  BASE  6.2622   270  9.04344  246  -7.2  100   -7.2  194   0     975.6    NA       0.0000   9999     1540  0     0    
2019/11/18  11:48:00  BASE  6.94428  264  9.04344  246  -7.2  100   -7.2  197   0     975.6    NA       0.0000   9999     1480  0     0    
2019/11/18  11:49:00  BASE  7.09128  265  9.31392  258  -7.2  100   -7.2  200   0     975.6    NA       0.0000   9999     1570  0     0    
2019/11/18  11:50:00  BASE  7.51464  259  9.64908  253  -7.1  99    -7.2  203   0     975.6    NA       0.0000   9999     1610  0     0    
2019/11/18  11:51:00  BASE  7.38528  256  9.64908  253  -7.1  99    -7.2  203   0     975.7    NA       0.0000   9999     1670  0     0    
2019/11/18  11:52:00  BASE  6.6444   257  9.64908  253  -7.1  99    -7.2  202   0     975.7    NA       0.0000   9999     1480  0     0    
2019/11/18  11:53:00  BASE  6.62676  256  9.64908  253  -7.1  99    -7.2  200   0     975.7    NA       0.0000   9999     1480  0     0    
2019/11/18  11:54:00  BASE  6.86784  257  9.64908  253  -7.1  99    -7.2  199   0     975.8    NA       0.0000   9999     1380  0     0    
2019/11/18  11:55:00  BASE  6.88548  259  9.64908  253  -7.1  99    -7.2  197   0     975.8    NA       0.0000   9999     1380  0     0    
2019/11/18  11:56:00  BASE  6.65616  256  9.64908  253  -7.1  99    -7.2  198   0     975.8    NA       0.0000   9999     1350  0     0    
2019/11/18  11:57:00  BASE  6.45036  260  9.64908  253  -7.1  99    -7.2  200   0     975.8    NA       0.0000   9999     1350  0     0    
2019/11/18  11:58:00  BASE  6.1152   264  9.64908  253  -7.1  99    -7.2  200   0     975.8    NA       0.0000   9999     1410  0     0    
2019/11/18  11:59:00  BASE  5.87412  266  9.64908  253  -7.1  99    -7.3  201   0     975.8    NA       0.0000   9999     1440  0     0    
2019/11/18  12:00:00  BASE  5.34492  272  8.25552  255  -7.1  99    -7.3  201   0     975.8    NA       0.0000   9999     1440  0     0    
2019/11/18  12:01:00  BASE  4.65108  272  8.25552  255  -7.1  99    -7.3  204   0     975.8    NA       0.0000   9999     1480  0     0    
2019/11/18  12:02:00  BASE  4.69224  270  8.25552  255  -7.1  99    -7.3  206   0     975.8    NA       0.0000   9999     1480  0     0    
2019/11/18  12:03:00  BASE  5.24496  266  8.53188  248  -7.1  99    -7.3  208   0     975.9    NA       0.0000   9999     1510  0     0    
2019/11/18  12:04:00  BASE  6.70908  262  9.3786   262  -7.1  99    -7.2  208   0     975.9    NA       0.0000   9999     1440  0     0    
2019/11/18  12:05:00  BASE  7.54992  266  9.3786   262  -7.1  99    -7.3  207   0     975.9    NA       0.0000   9999     1440  0     0    
2019/11/18  12:06:00  BASE  6.62088  269  9.3786   262  -7.2  99    -7.3  206   0     975.9    NA       0.0000   9999     1510  0     0    
2019/11/18  12:07:00  BASE  5.68596  265  9.3786   262  -7.2  99    -7.3  208   0     975.9    NA       0.0000   9999     1440  0     0    
2019/11/18  12:08:00  BASE  5.66244  267  9.3786   262  -7.2  99    -7.3  208   0     976.0    NA       0.0000   9999     1510  0     0    
2019/11/18  12:09:00  BASE  6.9678   267  9.3786   262  -7.2  99    -7.3  210   0     975.9    NA       0.0000   9999     1440  0     0    
2019/11/18  12:10:00  BASE  7.45584  261  9.3786   262  -7.2  99    -7.3  215   0     976.0    NA       0.0000   9999     1440  0     0    
2019/11/18  12:11:00  BASE  7.15008  261  9.3786   262  -7.2  99    -7.3  218   0     976.0    NA       0.0000   9999     1480  0     0    
2019/11/18  12:12:00  BASE  6.83256  261  9.3786   262  -7.2  99    -7.4  218   0     976.0    NA       0.0000   9999     1540  0     0    
2019/11/18  12:13:00  BASE  6.47388  264  9.3786   262  -7.3  99    -7.4  216   0     976.0    NA       0.0000   9999     1480  0     0    
2019/11/18  12:14:00  BASE  6.00348  268  8.71416  253  -7.3  98    -7.5  215   0     976.0    NA       0.0000   9999     1440  0     0    
2019/11/18  12:15:00  BASE  5.65068  269  8.71416  253  -7.3  98    -7.5  215   0     976.0    NA       0.0000   9999     1410  0     0    
2019/11/18  12:16:01  BASE  6.30336  266  8.71416  253  -7.3  98    -7.5  216   0     976.0    NA       0.0000   9999     1410  0     0    
2019/11/18  12:17:00  BASE  7.056    262  8.71416  253  -7.3  98    -7.5  215   0     976.0    NA       0.0000   9999     1440  0     0    
2019/11/18  12:18:01  BASE  7.13832  257  8.71416  253  -7.3  98    -7.5  216   0     976.1    NA       0.0000   9999     1410  0     0    
2019/11/18  12:19:00  BASE  7.5852   256  9.56088  260  -7.3  98    -7.6  219   0     976.1    NA       0.0000   9999     1410  0     0    
2019/11/18  12:20:00  BASE  7.54404  255  9.56088  260  -7.3  97    -7.6  221   0     976.2    NA       0.0000   9999     1610  0     0    
2019/11/18  12:21:00  BASE  7.16772  251  9.56088  260  -7.3  97    -7.7  220   0     976.1    NA       0.0000   9999     1540  0     0    
2019/11/18  12:22:00  BASE  6.53268  255  9.56088  260  -7.4  97    -7.8  221   0     976.1    NA       0.0000   9999     1610  0     0    
2019/11/18  12:23:00  BASE  5.39196  261  9.56088  260  -7.4  97    -7.8  222   0     976.1    NA       0.0000   9999     1670  0     0    
2019/11/18  12:24:00  BASE  4.86864  266  9.56088  260  -7.4  97    -7.8  222   0     976.2    NA       0.0000   9999     1480  0     0    
2019/11/18  12:25:00  BASE  4.4982   268  9.56088  260  -7.3  97    -7.8  222   0     976.2    NA       0.0000   9999     1410  0     0    
2019/11/18  12:26:00  BASE  3.88668  268  9.56088  260  -7.3  96    -7.8  221   0     976.2    NA       0.0000   9999     1350  0     0    
2019/11/18  12:27:00  BASE  3.92196  264  9.56088  260  -7.3  96    -7.8  223   0     976.2    NA       0.0000   9999     1410  0     0    
2019/11/18  12:28:01  BASE  4.73928  269  9.56088  260  -7.3  96    -7.8  228   0     976.2    NA       0.0000   9999     1380  0     0    
2019/11/18  12:29:01  BASE  5.12736  270  8.98464  253  -7.3  96    -7.8  231   0     976.2    NA       0.0000   9999     1540  0     0    
2019/11/18  12:30:01  BASE  5.95056  261  8.98464  253  -7.3  96    -7.8  233   0     976.2    NA       0.0000   9999     1540  0     0    
2019/11/18  12:31:01  BASE  6.84432  261  8.13792  259  -7.3  96    -7.8  232   0     976.2    NA       0.0000   9999     1670  0     0    
2019/11/18  12:32:01  BASE  6.72084  260  8.13792  259  -7.3  96    -7.9  232   0     976.2    NA       0.0000   9999     1540  22180 0    
2019/11/18  12:33:01  BASE  6.5268   259  8.13792  259  -7.4  96    -7.9  233   0     976.2    NA       0.0000   9999     1670  0     0    
2019/11/18  12:34:01  BASE  5.87412  259  8.13792  259  -7.4  96    -8.0  233   0     976.3    NA       0.0000   9999     1670  0     0    
2019/11/18  12:35:01  BASE  4.78632  262  8.13792  259  -7.4  95    -8.0  232   0     976.3    NA       0.0000   9999     2000  0     0    
2019/11/18  12:36:01  BASE  4.59816  262  8.13792  259  -7.4  95    -8.0  231   0     976.3    NA       0.0000   9999     1670  0     0    
2019/11/18  12:37:01  BASE  4.82748  267  8.13792  259  -7.4  95    -8.0  233   0     976.4    NA       0.0000   9999     1640  0     0    
2019/11/18  12:38:01  BASE  5.32728  265  8.13792  259  -7.3  95    -8.0  232   0     976.4    NA       0.0000   9999     1670  0     0    
2019/11/18  12:39:01  BASE  5.36844  261  8.13792  259  -7.4  95    -8.1  232   0     976.4    NA       0.0000   9999     1640  0     0    
2019/11/18  12:40:01  BASE  4.99212  260  8.13792  259  -7.4  95    -8.1  232   0     976.4    NA       0.0000   9999     1940  0     0    
2019/11/18  12:41:01  BASE  5.42724  265  7.74396  273  -7.4  94    -8.1  233   0     976.4    NA       0.0000   9999     1610  22540 0    
2019/11/18  12:42:01  BASE  5.586    270  7.74396  273  -7.4  94    -8.2  232   0     976.5    NA       0.0000   9999     1640  0     0    
2019/11/18  12:43:01  BASE  5.60952  275  7.74396  273  -7.4  94    -8.2  234   0     976.4    NA       0.0000   9999     1610  0     0    
2019/11/18  12:44:01  BASE  6.09168  281  8.83176  270  -7.4  94    -8.2  235   0     976.4    NA       0.0000   9999     1610  0     0    
2019/11/18  12:45:01  BASE  6.2622   278  8.83176  270  -7.5  94    -8.3  234   0     976.5    NA       0.0000   9999     1900  0     0    
2019/11/18  12:46:00  BASE  6.39744  276  9.07284  264  -7.5  94    -8.3  235   0     976.4    NA       0.0000   9999     1900  0     0    
2019/11/18  12:47:00  BASE  6.82668  277  9.07284  264  -7.5  94    -8.3  236   0     976.5    NA       0.0000   9999     1900  0     0    
2019/11/18  12:48:00  BASE  6.33276  274  9.07284  264  -7.5  94    -8.3  237   0     976.5    NA       0.0000   9999     1570  0     0    
2019/11/18  12:49:00  BASE  5.40372  271  9.07284  264  -7.5  93    -8.4  238   0     976.5    NA       0.0000   9999     1710  0     0    
2019/11/18  12:50:00  BASE  4.75104  268  9.07284  264  -7.5  93    -8.4  239   0     976.6    NA       0.0000   9999     1940  0     0    
2019/11/18  12:51:00  BASE  4.50996  263  9.07284  264  -7.5  93    -8.4  239   0     976.6    NA       0.0000   9999     1570  0     0    
2019/11/18  12:52:00  BASE  5.03328  261  9.07284  264  -7.4  93    -8.4  239   0     976.6    NA       0.0000   9999     750   0     0    
2019/11/18  12:53:00  BASE  4.75104  264  9.07284  264  -7.4  93    -8.4  240   0     976.7    NA       0.0000   9999     790   0     0    
2019/11/18  12:54:00  BASE  4.66284  261  9.07284  264  -7.4  93    -8.3  239   0     976.7    NA       0.0000   9999     1840  0     0    
2019/11/18  12:55:00  BASE  4.62756  264  9.07284  264  -7.4  93    -8.3  238   0     976.6    NA       0.0000   9999     1800  0     0    
2019/11/18  12:56:00  BASE  4.59816  278  8.71416  284  -7.4  93    -8.3  238   0     976.7    NA       0.0000   9999     1410  0     0    
2019/11/18  12:57:00  BASE  5.36844  284  7.16772  288  -7.4  93    -8.3  238   0     976.7    NA       0.0000   9999     1570  0     0    
2019/11/18  12:58:01  BASE  5.73888  281  7.16772  288  -7.4  93    -8.3  238   0     976.7    NA       0.0000   9999     1540  0     0    
2019/11/18  12:59:01  BASE  6.174    279  7.3794   279  -7.4  93    -8.4  239   0     976.7    NA       0.0000   9999     1900  0     0    
2019/11/18  13:00:01  BASE  6.22104  279  7.3794   279  -7.5  93    -8.4  240   0     976.7    NA       0.0000   9999     1870  0     0    
2019/11/18  13:01:01  BASE  5.73888  280  7.3794   279  -7.5  93    -8.4  240   0     976.7    NA       0.0000   9999     1480  0     0    
2019/11/18  13:02:01  BASE  5.48016  283  7.3794   279  -7.5  93    -8.4  240   0     976.7    NA       0.0000   9999     1410  0     0    
2019/11/18  13:03:01  BASE  6.16812  285  8.13792  280  -7.5  93    -8.5  240   0     976.7    NA       0.0000   9999     1840  0     0    
2019/11/18  13:04:01  BASE  6.89724  284  8.3496   267  -7.5  93    -8.5  241   0     976.7    NA       0.0000   9999     1510  0     0    
2019/11/18  13:05:01  BASE  6.2622   280  8.3496   267  -7.5  93    -8.5  244   0     976.7    NA       0.0000   9999     1510  0     0    
2019/11/18  13:06:00  BASE  6.06816  278  8.3496   267  -7.5  93    -8.4  246   0     976.7    NA       0.0000   9000     660   0     0    
2019/11/18  13:07:00  BASE  6.33276  271  8.3496   267  -7.5  93    -8.4  245   0     976.8    NA       0.0000   -SN      9999  1900  0    
2019/11/18  13:08:00  BASE  6.02112  269  8.3496   267  -7.4  93    -8.4  247   0     976.8    NA       0.0000   -SN      9999  660   0    
2019/11/18  13:09:00  BASE  5.75064  273  8.3496   267  -7.4  93    -8.4  249   0     976.8    NA       0.0000   -SN      9000  1610  0    
2019/11/18  13:10:00  BASE  5.42136  274  8.3496   267  -7.4  93    -8.4  252   0     976.8    NA       0.0000   -SN      9999  1900  0    
2019/11/18  13:11:00  BASE  5.32728  272  8.3496   267  -7.4  93    -8.4  256   0     976.9    NA       0.0000   -SN      9999  1870  0    
2019/11/18  13:12:00  BASE  5.75064  265  8.3496   267  -7.4  92    -8.5  260   0     976.9    NA       0.0000   -SN      9999  1970  0    
2019/11/18  13:13:00  BASE  5.53896  264  8.3496   267  -7.4  92    -8.5  261   0     976.8    NA       0.0000   -SN      9999  1050  0    
2019/11/18  13:14:00  BASE  4.851    269  7.98504  267  -7.4  92    -8.5  262   0     976.9    NA       0.0000   -SN      9999  1870  0    
2019/11/18  13:15:00  BASE  4.65696  275  7.98504  267  -7.4  92    -8.5  264   0     976.9    NA       0.0000   -SN      9999  1480  0    
2019/11/18  13:16:01  BASE  5.33316  277  7.98504  267  -7.4  92    -8.5  267   0     976.9    NA       0.0000   -SN      9999  1440  21200
2019/11/18  13:17:00  BASE  5.58012  275  7.65576  262  -7.4  92    -8.5  272   0     976.9    NA       0.0000   -SN      9999  1610  0    
2019/11/18  13:18:00  BASE  5.1744   278  7.65576  262  -7.4  92    -8.5  277   0     976.9    NA       0.0000   -SN      9999  1540  15620
2019/11/18  13:19:00  BASE  4.7628   274  7.65576  262  -7.4  92    -8.5  280   0     976.9    NA       0.2540   -SN      9999  2030  0    
2019/11/18  13:20:01  BASE  4.95096  269  7.65576  262  -7.4  92    -8.5  285   0     976.9    NA       0.0000   -SN      9999  1640  0    
2019/11/18  13:21:01  BASE  6.06816  264  7.65576  262  -7.4  92    -8.5  289   0     976.9    NA       0.0000   -SN      9999  660   0    
2019/11/18  13:22:00  BASE  5.83884  260  7.4088   257  -7.4  92    -8.5  291   0     976.9    NA       0.0000   -SN      9999  2130  0    
2019/11/18  13:23:00  BASE  4.81572  264  7.4088   257  -7.4  92    -8.5  291   0     976.9    NA       0.0000   -SN      9999  690   18180
2019/11/18  13:24:00  BASE  4.59816  267  7.4088   257  -7.4  92    -8.5  291   0     977.0    NA       0.0000   -SN      9999  2000  0    
2019/11/18  13:25:00  BASE  4.89804  263  7.4088   257  -7.4  92    -8.5  289   0     976.9    NA       0.0000   -SN      9999  620   21560
2019/11/18  13:26:00  BASE  4.55112  261  7.4088   257  -7.4  92    -8.4  290   0     977.0    NA       0.0000   -SN      9999  1380  0    
2019/11/18  13:27:00  BASE  3.7338   266  7.4088   257  -7.3  92    -8.3  294   0     977.0    NA       0.0000   -SN      9999  1440  0    
2019/11/18  13:28:00  BASE  4.68636  267  7.4088   257  -7.3  93    -8.3  300   0     977.0    NA       0.0000   -SN      9999  690   1510 
2019/11/18  13:29:00  BASE  5.85648  270  7.4088   257  -7.3  93    -8.3  303   0     977.0    NA       0.0000   -SN      9000  1940  0    
2019/11/18  13:30:00  BASE  5.73888  274  7.4088   257  -7.3  93    -8.3  305   0     977.0    NA       0.0000   -SN      9000  460   17850
2019/11/18  13:31:00  BASE  4.98624  277  7.02072  267  -7.3  93    -8.3  307   0     977.0    NA       0.0000   -SN      9999  1940  0    
2019/11/18  13:32:00  BASE  5.32728  277  8.04384  273  -7.3  93    -8.3  310   0     977.0    NA       0.0000   -SN      9999  430   22670
2019/11/18  13:33:00  BASE  5.91528  274  8.04384  273  -7.4  93    -8.3  316   0     977.0    NA       0.0000   -SN      9000  390   22210
2019/11/18  13:34:00  BASE  4.91568  272  8.04384  273  -7.4  93    -8.4  321   0     977.0    NA       0.0000   -SN      9999  430   0    
2019/11/18  13:35:00  BASE  4.4982   271  8.04384  273  -7.3  92    -8.4  323   0     977.0    NA       0.0000   -SN      9999  660   0    
2019/11/18  13:36:00  BASE  4.82748  272  8.04384  273  -7.3  92    -8.4  322   0     977.0    NA       0.0000   -SN      9999  430   0    
2019/11/18  13:37:01  BASE  5.27436  276  8.04384  273  -7.3  92    -8.4  322   0     977.0    NA       0.0000   -SN      9999  390   0    
2019/11/18  13:38:01  BASE  5.4684   280  8.04384  273  -7.3  92    -8.4  320   0     977.0    NA       0.0000   -SN      6000  360   0    
2019/11/18  13:39:01  BASE  5.22732  276  8.04384  273  -7.3  92    -8.4  318   0     977.0    NA       0.0000   -SN      BR    8000  330  
2019/11/18  13:40:01  BASE  5.39196  273  8.04384  273  -7.3  92    -8.4  320   0     977.0    NA       0.0000   -SN      9999  330   0    
2019/11/18  13:41:01  BASE  6.07404  277  8.04384  273  -7.4  92    -8.5  326   0     977.0    NA       0.0000   -SN      9999  330   0    
2019/11/18  13:42:01  BASE  6.03288  276  7.80276  283  -7.4  92    -8.5  332   0     977.1    NA       0.0000   -SN      9999  330   0    
2019/11/18  13:43:01  BASE  5.40372  270  7.80276  283  -7.4  92    -8.5  337   0     977.1    NA       0.0000   -SN      9999  360   0    
2019/11/18  13:44:01  BASE  5.01564  273  7.80276  283  -7.4  92    -8.5  338   0     977.1    NA       0.0000   -SN      9999  360   0    
2019/11/18  13:45:01  BASE  5.13912  278  7.80276  283  -7.4  92    -8.5  332   0     977.1    NA       0.0000   -SN      9999  390   0    
2019/11/18  13:46:01  BASE  5.19204  280  7.80276  283  -7.4  92    -8.5  332   0     977.2    NA       0.0000   -SN      9999  390   0    
2019/11/18  13:47:01  BASE  4.72752  281  7.80276  283  -7.4  92    -8.4  332   0     977.2    NA       0.0000   -SN      7000  660   0    
2019/11/18  13:48:01  BASE  5.41548  281  7.80276  283  -7.3  92    -8.4  331   0     977.1    NA       0.0000   -SN      7000  390   0    
2019/11/18  13:49:00  BASE  6.53268  279  8.25552  285  -7.3  92    -8.4  330   0     977.2    NA       0.0000   -SN      6000  360   1050 
2019/11/18  13:50:00  BASE  6.79728  277  8.25552  285  -7.3  92    -8.4  330   0     977.2    NA       0.0000   -SN      BR    5000  300  
2019/11/18  13:51:00  BASE  6.94428  273  8.25552  285  -7.4  92    -8.4  326   0     977.2    NA       0.0000   -SN      BR    9999  260  
2019/11/18  13:52:00  BASE  6.76788  273  8.25552  285  -7.4  92    -8.5  323   0     977.3    NA       0.0000   -SN      BR    9999  300  
2019/11/18  13:53:01  BASE  6.615    276  8.25552  285  -7.5  92    -8.5  323   0     977.2    NA       0.0000   -SN      BR    9999  0    
2019/11/18  13:54:01  BASE  6.28572  273  8.25552  285  -7.5  92    -8.5  328   0     977.3    NA       0.0000   -SN      BR    9999  0    
2019/11/18  13:55:00  BASE  5.93292  265  8.25552  285  -7.5  92    -8.5  331   0     977.3    NA       0.0000   -SN      BR    9999  0    
2019/11/18  13:56:00  BASE  6.09168  269  8.92584  273  -7.5  92    -8.5  317   0     977.3    NA       0.0000   -SN      BR    9999  300  
2019/11/18  13:57:00  BASE  5.88588  276  8.92584  273  -7.5  92    -8.5  323   0     977.3    NA       0.0000   -SN      BR    9999  14630
2019/11/18  13:58:00  BASE  6.59148  273  8.92584  273  -7.5  92    -8.5  324   0     977.3    NA       0.0000   -SN      BR    9000  0    
2019/11/18  13:59:00  BASE  7.06776  273  8.92584  273  -7.5  92    -8.6  329   0     977.3    NA       0.0000   -SN      9999  0     0    
2019/11/18  14:00:00  BASE  6.94428  280  8.92584  273  -7.5  92    -8.6  330   0     977.3    NA       0.0000   -SN      9999  0     0    
2019/11/18  14:01:00  BASE  7.28532  279  8.92584  273  -7.6  92    -8.6  332   0     977.3    NA       0.0000   -SN      9999  0     0    
2019/11/18  14:02:00  BASE  6.86196  275  8.92584  273  -7.6  92    -8.6  329   0     977.2    NA       0.0000   -SN      9999  0     0    
2019/11/18  14:03:00  BASE  6.468    277  8.92584  273  -7.6  92    -8.7  333   0     976.6    NA       0.0000   -SN      9000  0     0    
2019/11/18  14:04:00  BASE  6.10344  273  8.92584  273  -7.6  92    -8.7  337   0     977.4    NA       0.0000   -SN      9000  0     0    
2019/11/18  14:05:00  BASE  5.36844  268  8.92584  273  -7.6  92    -8.7  340   0     977.4    NA       0.0000   -SN      9999  260   0    
2019/11/18  14:06:00  BASE  5.18028  270  8.67888  268  -7.6  92    -8.6  342   0     977.4    NA       0.0000   -SN      9999  0     0    
2019/11/18  14:07:00  BASE  6.19164  273  8.67888  268  -7.6  92    -8.6  346   0     977.2    NA       0.0000   -SN      BR    7000  0    
2019/11/18  14:08:00  BASE  6.41508  273  8.4672   279  -7.6  92    -8.7  356   0     977.2    NA       0.0000   -SN      BR    9000  0    
2019/11/18  14:09:00  BASE  5.5566   274  8.4672   279  -7.6  92    -8.7  359   0     977.5    NA       0.0000   -SN      BR    9999  230  
2019/11/18  14:10:00  BASE  5.19792  274  8.3202   262  -7.6  92    -8.6  363   0     977.5    NA       0.0000   -SN      BR    9999  230  
2019/11/18  14:11:00  BASE  6.1446   265  8.98464  265  -7.6  92    -8.6  367   0     977.5    NA       0.0000   -SN      BR    9999  0    
2019/11/18  14:12:00  BASE  6.62676  259  8.98464  265  -7.5  92    -8.6  374   0     977.6    NA       0.0000   -SN      BR    9999  0    
2019/11/18  14:13:00  BASE  6.09168  270  8.98464  265  -7.5  92    -8.6  368   0     977.6    NA       0.0000   -SN      BR    8000  300  
2019/11/18  14:14:00  BASE  6.80316  280  8.98464  265  -7.5  92    -8.6  375   0     977.5    NA       0.0000   -SN      BR    3800  0    
2019/11/18  14:15:00  BASE  7.5558   276  9.25512  274  -7.5  92    -8.6  381   0     977.5    NA       0.0000   -SN      BR    9999  0    
2019/11/18  14:16:00  BASE  7.2618   272  9.25512  274  -7.5  91    -8.7  386   0     977.5    NA       0.0000   -SN      BR    9999  0    
2019/11/18  14:17:01  BASE  6.26808  273  9.25512  274  -7.5  91    -8.8  388   0     977.6    NA       0.0000   -SN      BR    9999  330  
2019/11/18  14:18:01  BASE  5.8506   275  9.25512  274  -7.5  91    -8.8  389   0     977.6    NA       0.0000   -SN      BR    9999  260  
2019/11/18  14:19:01  BASE  6.13284  275  9.25512  274  -7.5  90    -8.8  393   0     977.6    NA       0.0000   -SN      BR    9999  260  
2019/11/18  14:20:01  BASE  6.05052  274  9.25512  274  -7.5  90    -8.9  401   0     977.6    NA       0.0000   -SN      BR    9000  0    
2019/11/18  14:21:01  BASE  6.40332  279  9.25512  274  -7.5  89    -8.9  405   0     977.6    NA       0.0000   -SN      BR    9999  330  
2019/11/18  14:22:01  BASE  6.69732  278  9.25512  274  -7.5  89    -9.0  407   0     977.6    NA       0.0000   -SN      BR    9999  330  
2019/11/18  14:23:01  BASE  6.57972  272  9.25512  274  -7.4  89    -9.0  402   0     977.6    NA       0.0000   -SN      BR    9999  360  
2019/11/18  14:24:01  BASE  6.84432  274  9.25512  274  -7.4  88    -9.1  406   0     977.7    NA       0.0000   -SN      9999  230   0    
2019/11/18  14:25:01  BASE  6.76788  277  8.53188  277  -7.4  88    -9.1  412   0     977.7    NA       0.0000   -SN      9999  300   23360
2019/11/18  14:26:01  BASE  6.56208  274  8.53188  277  -7.4  87    -9.2  418   0     977.7    NA       0.0000   -SN      9999  390   0    
2019/11/18  14:27:01  BASE  6.60324  271  8.53188  277  -7.4  87    -9.2  425   0     977.7    NA       0.0000   -SN      9999  300   0    
2019/11/18  14:28:00  BASE  6.65028  271  8.53188  277  -7.4  86    -9.3  429   0     977.7    NA       0.0000   -SN      9999  390   0    
2019/11/18  14:29:00  BASE  6.30924  273  8.53188  277  -7.4  86    -9.3  430   0     977.7    NA       0.0000   -SN      9999  300   0    
2019/11/18  14:30:00  BASE  6.07992  271  8.53188  277  -7.4  86    -9.4  433   0     977.8    NA       0.0000   -SN      9999  330   0    
2019/11/18  14:31:00  BASE  6.10932  264  8.07912  269  -7.4  85    -9.4  439   0     977.8    NA       0.0000   -SN      6000  0     0    
2019/11/18  14:32:00  BASE  5.88     263  8.07912  269  -7.3  85    -9.4  439   0     977.8    NA       0.0000   -SN      BR    3200  950  
2019/11/18  14:33:00  BASE  4.94508  268  8.07912  269  -7.3  85    -9.4  440   0     977.8    NA       0.0000   -SN      BR    9999  0    
2019/11/18  14:34:00  BASE  4.1748   274  8.07912  269  -7.3  85    -9.4  441   0     977.8    NA       0.0000   -SN      BR    9999  430  
2019/11/18  14:35:00  BASE  4.60404  267  8.07912  269  -7.3  85    -9.4  450   0     977.8    NA       0.0000   -SN      BR    9999  0    
2019/11/18  14:36:00  BASE  4.69812  267  8.07912  269  -7.3  85    -9.3  454   0     977.8    NA       0.0000   -SN      BR    9999  460  
2019/11/18  14:37:00  BASE  4.65108  266  8.07912  269  -7.2  85    -9.3  460   0     977.8    NA       0.0000   -SN      BR    9999  390  
2019/11/18  14:38:00  BASE  4.72752  264  7.50288  245  -7.2  85    -9.3  462   0     977.9    NA       0.0000   -SN      BR    9999  850  
2019/11/18  14:39:00  BASE  4.43352  275  7.50288  245  -7.2  85    -9.3  465   0     977.9    NA       0.0000   -SN      BR    9999  0    
2019/11/18  14:40:00  BASE  3.93372  279  7.16772  259  -7.2  85    -9.2  468   0     977.9    NA       0.0000   -SN      BR    9999  1900 
2019/11/18  14:41:00  BASE  4.28652  283  6.74436  253  -7.2  86    -9.2  471   0     977.8    NA       0.0000   -SN      BR    9999  21920
2019/11/18  14:42:00  BASE  5.39196  285  6.2916   282  -7.2  86    -9.2  472   0     977.9    NA       0.0000   -SN      9999  1570  0    
2019/11/18  14:43:00  BASE  5.97996  284  7.19712  286  -7.2  86    -9.1  471   0     977.8    NA       0.0000   -SN      9999  1640  21100
2019/11/18  14:44:00  BASE  6.00936  287  7.19712  286  -7.2  86    -9.2  473   0     977.9    NA       0.0000   -SN      9999  2100  0    
2019/11/18  14:45:00  BASE  6.4092   285  9.4668   279  -7.2  86    -9.2  476   0     977.8    NA       0.0000   -SN      9999  1380  0    
2019/11/18  14:46:00  BASE  6.47976  284  9.4668   279  -7.3  86    -9.2  482   0     977.9    NA       0.0000   -SN      9999  2790  0    
2019/11/18  14:47:00  BASE  5.78592  283  9.4668   279  -7.3  86    -9.3  487   0     977.9    NA       0.0000   -SN      9999  2790  0    
2019/11/18  14:48:00  BASE  5.83296  276  9.4668   279  -7.3  85    -9.4  491   0     977.9    NA       0.0000   -SN      9999  2820  0    
2019/11/18  14:49:00  BASE  6.17988  276  9.4668   279  -7.3  85    -9.4  493   0     977.9    NA       0.0000   -SN      9999  2950  3480 
2019/11/18  14:50:00  BASE  6.46212  276  9.4668   279  -7.3  84    -9.5  497   0     977.9    NA       0.0000   -SN      9999  3180  0    
2019/11/18  14:51:00  BASE  6.53268  277  9.4668   279  -7.3  84    -9.6  499   0     977.9    NA       0.0000   9999     0     0     0    
2019/11/18  14:52:00  BASE  6.2622   279  9.4668   279  -7.3  83    -9.7  502   0     977.9    NA       0.0000   9999     1900  3540  0    
2019/11/18  14:53:00  BASE  5.39196  276  9.4668   279  -7.3  83    -9.7  507   0     977.9    NA       0.0000   9999     2950  3580  0    
2019/11/18  14:54:00  BASE  4.69224  275  9.4668   279  -7.3  82    -9.8  514   0     977.9    NA       0.0000   9999     2890  3610  0    
2019/11/18  14:55:00  BASE  4.62168  274  8.07912  282  -7.3  82    -9.8  522   0     977.9    NA       0.0000   9999     2890  3580  0    
2019/11/18  14:56:00  BASE  4.45116  273  8.07912  282  -7.2  82    -9.8  527   0     977.9    NA       0.0000   9999     2820  3480  0    
2019/11/18  14:57:01  BASE  4.37472  275  8.07912  282  -7.2  81    -9.9  529   0     977.9    NA       0.0000   9999     2950  0     0    
2019/11/18  14:58:01  BASE  4.0278   270  8.07912  282  -7.2  81    -9.9  532   0     977.9    NA       0.0000   9999     3540  0     0    
2019/11/18  14:59:01  BASE  3.80436  266  8.07912  282  -7.2  80    -10.0 535   0     977.9    NA       0.0000   9999     0     0     0    
2019/11/18  15:00:00  BASE  3.80436  270  8.07912  282  -7.2  80    -10.0 538   0     978.0    NA       0.0000   9999     2230  3740  0    
2019/11/18  15:01:00  BASE  4.15716  271  7.07952  277  -7.2  80    -10.0 542   0     978.0    NA       0.0000   9999     2100  3640  0    
2019/11/18  15:02:00  BASE  4.19832  269  5.99172  268  -7.1  80    -10.0 547   0     978.1    NA       0.0000   9999     1870  3670  0    
2019/11/18  15:03:00  BASE  3.63972  273  5.86824  258  -7.1  80    -10.0 548   0     978.1    NA       0.0000   9999     2360  0     0    
2019/11/18  15:04:00  BASE  3.48096  281  5.86824  258  -7.1  80    -10.0 549   0     978.1    NA       0.2540   9999     1870  0     0    
2019/11/18  15:05:00  BASE  3.88668  283  5.86824  258  -7.1  80    -9.9  547   0     978.1    NA       0.0000   9999     1740  0     0    
2019/11/18  15:06:00  BASE  4.3218   281  5.86824  258  -7.0  80    -9.8  545   0     978.1    NA       0.0000   9999     2170  0     0    
2019/11/18  15:07:00  BASE  4.12776  278  5.86824  258  -7.0  81    -9.8  548   0     978.1    NA       0.0000   9999     1870  2590  0    
2019/11/18  15:08:00  BASE  4.02192  281  5.86824  258  -7.0  81    -9.8  552   0     978.1    NA       0.0000   9999     2130  0     0    
2019/11/18  15:09:00  BASE  4.6746   283  6.2622   275  -7.0  81    -9.7  552   0     978.1    NA       0.0000   9999     1840  0     0    
2019/11/18  15:10:00  BASE  5.53896  280  6.2622   277  -7.1  81    -9.7  555   0     978.1    NA       0.0000   9999     1800  0     0    
2019/11/18  15:11:00  BASE  5.66832  279  6.2622   277  -7.1  81    -9.8  560   0     978.1    NA       0.0000   9999     1800  23560 0    
2019/11/18  15:12:00  BASE  5.24496  280  6.2622   277  -7.1  81    -9.8  566   0     978.1    NA       0.0000   9999     1840  4070  0    
2019/11/18  15:13:00  BASE  5.30964  281  6.77376  284  -7.1  81    -9.8  574   0     978.1    NA       0.0000   9999     1610  2330  0    
2019/11/18  15:14:00  BASE  5.8212   278  6.92664  275  -7.2  81    -9.8  583   0     978.1    NA       0.0000   9999     2400  0     0    
2019/11/18  15:15:00  BASE  5.37432  269  6.92664  275  -7.2  81    -9.9  593   0     978.2    NA       0.0000   9999     1740  2760  0    
2019/11/18  15:16:00  BASE  4.3512   268  6.92664  275  -7.2  81    -9.9  598   0     978.2    NA       0.0000   9999     1380  2620  0    
2019/11/18  15:17:00  BASE  4.10424  277  6.92664  275  -7.1  81    -9.9  601   0     978.2    NA       0.0000   9999     2530  4070  0    
2019/11/18  15:18:00  BASE  4.43352  284  6.92664  275  -7.1  80    -9.9  607   0     978.2    NA       0.0000   9999     2260  4100  0    
2019/11/18  15:19:00  BASE  4.53348  286  6.92664  275  -7.1  80    -9.9  611   0     978.1    NA       0.0000   9999     2030  2690  0    
2019/11/18  15:20:00  BASE  4.76868  284  6.92664  275  -7.1  80    -9.9  604   0     978.1    NA       0.0000   9999     1740  4070  0    
2019/11/18  15:21:00  BASE  5.27436  280  6.92664  275  -7.1  80    -9.9  596   0     978.1    NA       0.0000   9999     1640  2360  0    
2019/11/18  15:22:00  BASE  4.89216  270  6.92664  275  -7.1  80    -10.0 597   0     978.2    NA       0.0000   9999     2430  0     0    
2019/11/18  15:23:00  BASE  4.13364  265  6.92664  275  -7.1  80    -9.9  600   0     978.1    NA       0.0000   9999     2360  21260 0    
2019/11/18  15:24:00  BASE  4.06308  277  6.47388  292  -7.0  80    -9.9  606   0     978.2    NA       0.0000   9999     2400  0     0    
2019/11/18  15:25:00  BASE  4.28064  279  6.47388  292  -7.0  80    -9.9  628   0     978.2    NA       0.0000   9999     2030  17820 0    
2019/11/18  15:26:00  BASE  4.93332  281  6.47388  290  -6.9  80    -9.8  662   0     978.1    NA       0.0000   9999     1940  2950  4170 
2019/11/18  15:27:00  BASE  5.65068  287  6.86784  280  -6.9  80    -9.7  700   0     978.1    NA       0.0000   9999     1150  4170  0    
2019/11/18  15:28:00  BASE  5.69184  284  6.86784  280  -6.9  80    -9.7  759   0     978.1    NA       0.0000   9999     720   2200  0    
2019/11/18  15:29:00  BASE  5.0274   282  6.86784  280  -6.9  81    -9.6  781   0     977.4    NA       0.0000   9999     790   2330  0    
2019/11/18  15:30:00  BASE  4.36296  283  6.86784  280  -6.8  81    -9.6  770   0     978.0    NA       0.0000   9999     950   2260  0    
2019/11/18  15:31:00  BASE  4.66872  286  6.86784  280  -6.8  81    -9.5  737   0     978.2    NA       0.0000   9999     2460  0     0    
2019/11/18  15:32:00  BASE  4.7628   284  6.86784  280  -6.8  81    -9.5  708   0     978.2    NA       0.0000   9999     1710  0     0    
2019/11/18  15:33:00  BASE  3.91608  279  6.86784  280  -6.8  81    -9.5  689   0     978.2    NA       0.0000   9999     2070  0     0    
2019/11/18  15:34:00  BASE  3.4104   276  6.86784  280  -6.8  81    -9.4  671   0     978.2    NA       0.0000   9999     1840  0     0    
2019/11/18  15:35:00  BASE  3.3516   278  6.86784  280  -6.8  82    -9.4  657   0     978.2    NA       0.0000   9999     1800  0     0    
2019/11/18  15:36:00  BASE  4.13364  282  6.86784  280  -6.8  82    -9.4  636   0     978.2    NA       0.0000   9999     1740  0     0    
2019/11/18  15:37:00  BASE  4.83336  279  6.2622   286  -6.8  82    -9.4  617   0     978.2    NA       0.0000   9999     1840  0     0    
2019/11/18  15:38:00  BASE  4.81572  268  6.2622   286  -6.8  82    -9.4  606   0     978.2    NA       0.0000   9999     1770  0     0    
2019/11/18  15:39:00  BASE  4.65696  258  6.2622   286  -6.9  82    -9.4  604   0     978.2    NA       0.0000   9999     2560  0     0    
2019/11/18  15:40:00  BASE  4.83336  262  6.2622   286  -6.9  82    -9.4  608   0     978.2    NA       0.0000   9999     2820  0     0    
2019/11/18  15:41:00  BASE  4.704    268  5.83884  266  -6.9  82    -9.5  614   0     978.2    NA       0.0000   9999     2070  0     0    
2019/11/18  15:42:00  BASE  4.26888  270  5.83884  266  -7.0  82    -9.5  622   0     978.2    NA       0.0000   9999     2030  2850  21520
2019/11/18  15:43:00  BASE  4.18068  271  5.83884  266  -7.0  82    -9.6  633   0     978.2    NA       0.0000   9999     2990  0     0    
2019/11/18  15:44:00  BASE  4.6746   274  6.321    293  -7.0  82    -9.6  639   0     978.2    NA       0.0000   9999     3120  20310 22410
2019/11/18  15:45:00  BASE  5.59188  274  7.02072  273  -7.0  81    -9.6  642   0     978.2    NA       0.0000   9999     3350  0     0    
2019/11/18  15:46:00  BASE  5.7036   273  7.02072  273  -7.0  81    -9.7  649   0     978.2    NA       0.0000   9999     2400  3410  0    
2019/11/18  15:47:00  BASE  5.53308  276  7.02072  273  -6.9  80    -9.7  665   0     978.2    NA       0.0000   9999     2400  4200  0    
2019/11/18  15:48:00  BASE  5.72712  275  7.53228  259  -6.9  80    -9.8  694   0     978.2    NA       0.0000   9999     2430  0     0    
2019/11/18  15:49:00  BASE  5.8212   270  7.53228  259  -6.9  79    -9.8  740   0     978.2    NA       0.0000   9999     2790  0     0    
2019/11/18  15:50:00  BASE  5.68596  272  7.53228  259  -6.8  79    -9.9  744   0     978.2    NA       0.0000   9999     2170  0     0    
2019/11/18  15:51:00  BASE  5.88588  275  7.53228  259  -6.8  78    -10.0 741   0     978.2    NA       0.0000   9999     2760  4360  0    
2019/11/18  15:52:00  BASE  5.50956  275  7.53228  259  -6.8  78    -10.0 755   0     978.3    NA       0.0000   9999     2230  0     0    
2019/11/18  15:53:00  BASE  4.91568  275  7.53228  259  -6.7  77    -10.0 717   0     978.3    NA       0.0000   9999     2130  22080 0    
2019/11/18  15:54:00  BASE  4.56288  274  7.53228  259  -6.7  77    -10.0 661   0     978.1    NA       0.0000   9999     2170  0     0    
2019/11/18  15:55:00  BASE  4.81572  277  7.53228  259  -6.6  77    -10.0 618   0     977.9    NA       0.0000   9999     2100  0     0    
2019/11/18  15:56:00  BASE  4.80396  276  7.53228  259  -6.6  77    -9.9  604   0     978.3    NA       0.0000   9999     2070  0     0    
2019/11/18  15:57:00  BASE  4.44528  266  7.53228  259  -6.6  78    -9.9  604   0     978.3    NA       0.0000   9999     2530  0     0    
2019/11/18  15:58:00  BASE  4.58052  264  7.13832  270  -6.6  78    -9.9  601   0     978.2    NA       0.0000   9999     2460  0     0    
2019/11/18  15:59:00  BASE  4.07484  263  7.13832  270  -6.7  78    -9.8  601   0     978.4    NA       0.0000   9999     2560  0     0    
2019/11/18  16:00:00  BASE  3.5868   262  7.13832  270  -6.7  78    -9.8  603   0     978.4    NA       0.0000   9999     2170  2890  0    
2019/11/18  16:01:00  BASE  3.8808   267  6.2622   286  -6.7  79    -9.8  605   0     978.3    NA       0.0000   9999     2030  2690  0    
2019/11/18  16:02:00  BASE  4.93332  277  6.68556  284  -6.7  79    -9.7  607   0     978.3    NA       0.0000   9999     2530  3150  0    
2019/11/18  16:03:00  BASE  4.98036  281  6.68556  284  -6.7  79    -9.7  605   0     978.2    NA       0.0000   9999     2720  3380  0    
2019/11/18  16:04:00  BASE  4.58052  279  6.68556  284  -6.7  80    -9.7  599   0     977.1    NA       0.0000   9999     2560  3350  0    
2019/11/18  16:05:00  BASE  4.75692  281  6.68556  284  -6.7  80    -9.6  587   0     978.3    NA       0.0000   9999     3120  3840  0    
2019/11/18  16:06:00  BASE  5.02152  280  6.68556  276  -6.7  80    -9.6  573   0     978.3    NA       0.0000   9999     2820  23430 0    
2019/11/18  16:07:00  BASE  5.50956  277  6.86784  264  -6.7  80    -9.6  560   0     978.3    NA       0.0000   9999     2720  0     0    
2019/11/18  16:08:00  BASE  5.2332   268  6.86784  264  -6.7  80    -9.6  548   0     978.3    NA       0.0000   9999     2430  0     0    
2019/11/18  16:09:00  BASE  5.25084  270  6.86784  264  -6.7  80    -9.6  540   0     977.5    NA       0.0000   9999     2360  0     0    
2019/11/18  16:10:00  BASE  5.82708  279  6.86784  280  -6.7  80    -9.6  528   0     977.9    NA       0.0000   9999     2330  0     0    
2019/11/18  16:11:00  BASE  5.86824  278  6.86784  280  -6.7  79    -9.7  515   0     978.3    NA       0.0000   9999     2330  0     0    
2019/11/18  16:12:00  BASE  5.60364  276  6.86784  280  -6.8  79    -9.8  503   0     978.3    NA       0.0000   9999     2330  0     0    
2019/11/18  16:13:00  BASE  5.439    274  6.86784  280  -6.8  79    -9.9  493   0     978.3    NA       0.0000   9999     2170  0     0    
2019/11/18  16:14:00  BASE  5.53308  276  6.86784  280  -6.8  78    -10.0 489   0     978.3    NA       0.0000   9999     2130  19330 20900
2019/11/18  16:15:00  BASE  5.4978   279  6.86784  280  -6.8  78    -10.0 489   0     978.4    NA       0.0000   9999     2170  0     0    
2019/11/18  16:16:00  BASE  5.12148  282  6.86784  280  -6.8  78    -10.0 491   0     978.4    NA       0.0000   9999     2070  0     0    
2019/11/18  16:17:00  BASE  5.19792  284  6.86784  280  -6.8  78    -10.0 497   0     978.3    NA       0.0000   9999     2130  2660  0    
2019/11/18  16:18:00  BASE  5.68008  283  6.86784  280  -6.8  78    -10.0 506   0     978.3    NA       0.0000   9999     2230  0     0    
2019/11/18  16:19:00  BASE  5.25672  275  6.86784  280  -6.8  78    -9.9  518   0     978.4    NA       0.0000   9999     2170  0     0    
2019/11/18  16:20:00  BASE  4.85688  261  6.50328  277  -6.7  79    -9.8  531   0     977.9    NA       0.0000   9999     2070  0     0    
2019/11/18  16:21:00  BASE  4.98624  253  6.44448  283  -6.7  79    -9.8  543   0     978.4    NA       0.0000   9999     2200  3220  0    
2019/11/18  16:22:00  BASE  5.33316  254  6.44448  283  -6.7  79    -9.7  551   0     978.4    NA       0.0000   9999     2170  2760  3250 
2019/11/18  16:23:00  BASE  5.42136  259  6.44448  283  -6.7  79    -9.7  553   0     977.9    NA       0.0000   9999     2530  0     0    
2019/11/18  16:24:00  BASE  4.59816  266  6.44448  283  -6.7  79    -9.7  551   0     978.4    NA       0.0000   9999     2590  0     0    
2019/11/18  16:25:00  BASE  4.85688  275  6.86784  269  -6.6  79    -9.6  555   0     978.4    NA       0.0000   9999     2490  4330  0    
2019/11/18  16:26:00  BASE  5.32728  271  6.86784  269  -6.6  80    -9.6  563   0     978.4    NA       0.0000   9999     2360  0     0    
2019/11/18  16:27:00  BASE  5.0568   271  6.89724  279  -6.6  80    -9.5  563   0     978.3    NA       0.0000   9999     2360  3180  0    
2019/11/18  16:28:00  BASE  5.25672  266  6.89724  260  -6.6  80    -9.4  554   0     977.8    NA       0.0000   9999     3020  4400  0    
2019/11/18  16:29:00  BASE  5.53896  256  6.89724  260  -6.5  80    -9.4  545   0     978.5    NA       0.0000   9999     2690  0     0    
2019/11/18  16:30:00  BASE  5.28024  264  6.89724  260  -6.5  80    -9.5  541   0     978.4    NA       0.0000   9999     2620  0     0    
2019/11/18  16:31:00  BASE  5.08032  266  6.89724  260  -6.5  79    -9.5  540   0     978.3    NA       0.0000   9999     2300  0     0    
2019/11/18  16:32:00  BASE  4.86864  267  6.89724  260  -6.5  79    -9.5  537   0     978.5    NA       0.0000   9999     2850  0     0    
2019/11/18  16:33:00  BASE  4.36884  267  6.89724  260  -6.5  79    -9.6  537   0     978.5    NA       0.0000   9999     2560  0     0    
2019/11/18  16:34:00  BASE  4.93332  262  6.89724  260  -6.5  79    -9.6  536   0     978.4    NA       0.0000   9999     2400  0     0    
2019/11/18  16:35:00  BASE  5.98584  257  6.98544  244  -6.5  78    -9.7  533   0     978.5    NA       0.0000   9999     2330  0     0    
2019/11/18  16:36:00  BASE  6.40332  257  7.13832  252  -6.5  78    -9.7  529   0     978.4    NA       0.0000   9999     2170  0     0    
2019/11/18  16:37:00  BASE  6.55032  257  7.35     258  -6.5  78    -9.7  527   0     978.5    NA       0.0000   9999     2200  0     0    
2019/11/18  16:38:00  BASE  5.94468  259  7.35     258  -6.5  78    -9.7  525   0     978.5    NA       0.0000   9999     2230  0     0    
2019/11/18  16:39:00  BASE  4.5864   263  7.35     258  -6.5  78    -9.7  528   0     978.5    NA       0.0000   9999     2360  0     0    
2019/11/18  16:40:00  BASE  3.8514   269  7.35     258  -6.5  78    -9.6  533   0     978.5    NA       0.0000   9999     2590  0     0    
2019/11/18  16:41:00  BASE  4.33944  270  7.35     258  -6.4  78    -9.6  539   0     978.5    NA       0.0000   9999     2400  2890  0    
2019/11/18  16:42:00  BASE  4.60404  269  7.35     258  -6.4  79    -9.5  543   0     978.5    NA       0.0000   9999     2360  0     0    
2019/11/18  16:43:00  BASE  4.72164  267  7.35     258  -6.3  79    -9.4  549   0     978.5    NA       0.0000   9999     2300  2850  15680
2019/11/18  16:44:00  BASE  5.12148  267  7.35     258  -6.3  79    -9.3  552   0     978.5    NA       0.0000   9999     2430  3380  0    
2019/11/18  16:45:00  BASE  5.29788  271  7.35     258  -6.3  79    -9.3  549   0     978.5    NA       0.0000   9999     2850  3740  0    
2019/11/18  16:46:00  BASE  5.93292  271  7.74396  272  -6.3  79    -9.4  534   0     978.5    NA       0.0000   9999     2360  3310  0    
2019/11/18  16:47:00  BASE  6.7326   273  8.4378   271  -6.3  79    -9.4  513   0     978.5    NA       0.0000   9999     2300  3150  0    
2019/11/18  16:48:00  BASE  7.10304  267  8.4378   271  -6.3  78    -9.5  501   0     978.5    NA       0.0000   9999     2430  0     0    
2019/11/18  16:49:00  BASE  6.2328   265  8.4378   271  -6.3  78    -9.5  487   0     978.5    NA       0.0000   9999     2590  0     0    
2019/11/18  16:50:00  BASE  5.8506   265  8.4378   271  -6.3  77    -9.6  475   0     977.9    NA       0.0000   9999     2950  0     0    
2019/11/18  16:51:00  BASE  6.3798   262  8.4378   271  -6.4  77    -9.7  479   0     978.5    NA       0.0000   9999     2950  0     0    
2019/11/18  16:52:00  BASE  5.8212   268  8.4378   271  -6.4  77    -9.8  483   0     978.0    NA       0.0000   9999     2990  0     0    
2019/11/18  16:53:00  BASE  5.59188  272  8.4378   271  -6.4  77    -9.9  483   0     978.4    NA       0.0000   9999     2950  0     0    
2019/11/18  16:54:00  BASE  6.03288  272  8.4378   271  -6.5  76    -9.9  481   0     978.5    NA       0.0000   9999     2990  0     0    
2019/11/18  16:55:00  BASE  6.31512  265  8.4378   271  -6.5  76    -10.0 487   0     978.4    NA       0.0000   9999     2400  0     0    
2019/11/18  16:56:00  BASE  7.056    253  8.95524  250  -6.5  76    -10.0 498   0     978.5    NA       0.0000   9999     2430  2850  0    
2019/11/18  16:57:00  BASE  7.88508  248  8.95524  250  -6.5  76    -10.0 508   0     978.5    NA       0.0000   9999     2990  0     0    
2019/11/18  16:58:00  BASE  7.71456  250  8.95524  250  -6.5  76    -10.1 529   0     978.6    NA       0.0000   9999     2690  0     0    
2019/11/18  16:59:00  BASE  7.36764  255  8.95524  250  -6.6  76    -10.1 552   0     978.6    NA       0.0000   9999     2490  2890  0    
2019/11/18  17:00:00  BASE  7.30884  259  8.95524  250  -6.6  76    -10.1 608   0     978.6    NA       0.0000   9999     2460  0     0    
2019/11/18  17:01:00  BASE  6.95016  254  8.95524  250  -6.6  76    -10.1 597   0     978.6    NA       0.0000   9999     2690  3510  0    
2019/11/18  17:02:00  BASE  6.59148  251  8.95524  250  -6.5  76    -10.0 623   0     978.6    NA       0.0000   9999     2720  0     0    
2019/11/18  17:03:00  BASE  6.79728  255  8.95524  250  -6.5  76    -10.0 661   0     978.6    NA       0.0000   9999     2920  0     0    
2019/11/18  17:04:00  BASE  6.67968  255  8.95524  250  -6.4  76    -9.9  901   0     978.7    NA       0.0000   9999     2660  0     0    
2019/11/18  17:05:01  BASE  6.174    254  8.95524  250  -6.4  76    -9.8  658   0     978.7    NA       0.0000   9999     2790  0     0    
2019/11/18  17:06:01  BASE  6.20928  257  8.86116  249  -6.3  76    -9.8  579   0     978.7    NA       0.0000   9999     2300  0     0    
2019/11/18  17:07:01  BASE  6.1152   262  8.67888  260  -6.3  76    -9.9  571   0     978.7    NA       0.0000   9999     2330  0     0    
2019/11/18  17:08:01  BASE  6.027    264  8.67888  260  -6.4  76    -9.9  569   0     978.7    NA       0.0000   9999     2400  0     0    
2019/11/18  17:09:01  BASE  6.10344  266  8.67888  260  -6.4  76    -10.0 571   0     978.8    NA       0.0000   9999     2460  16770 19420
2019/11/18  17:10:01  BASE  6.23868  260  8.67888  260  -6.4  75    -10.1 576   0     978.8    NA       0.0000   9999     2530  0     0    
2019/11/18  17:11:01  BASE  6.50328  251  8.67888  260  -6.5  75    -10.1 579   0     978.8    NA       0.0000   9999     2530  0     0    
2019/11/18  17:12:01  BASE  6.53268  250  8.67888  260  -6.5  75    -10.2 596   0     978.7    NA       0.0000   9999     2590  0     0    
2019/11/18  17:13:01  BASE  6.63264  252  8.67888  260  -6.5  75    -10.2 632   0     978.8    NA       0.0000   9999     2560  0     0    
2019/11/18  17:14:01  BASE  6.81492  254  8.67888  260  -6.5  75    -10.2 604   0     978.8    NA       0.0000   9999     2560  0     0    
2019/11/18  17:15:01  BASE  7.2324   254  8.67888  260  -6.5  75    -10.2 579   0     978.9    NA       0.0000   9999     2720  0     0    
2019/11/18  17:16:01  BASE  7.9086   255  8.53188  256  -6.5  75    -10.2 569   0     978.9    NA       0.0000   9999     2590  0     0    
2019/11/18  17:17:01  BASE  6.9972   261  8.53188  256  -6.5  75    -10.2 559   0     978.9    NA       0.0000   9999     2690  0     0    
2019/11/18  17:18:00  BASE  6.23868  269  8.53188  256  -6.5  75    -10.3 557   0     979.0    NA       0.0000   9999     2620  0     0    
2019/11/18  17:19:00  BASE  6.28572  270  8.53188  256  -6.5  74    -10.3 562   0     979.0    NA       0.0000   9999     2760  0     0    
2019/11/18  17:20:00  BASE  5.75064  271  8.53188  256  -6.5  74    -10.4 570   0     979.0    NA       0.0000   9999     2690  0     0    
2019/11/18  17:21:00  BASE  5.9388   273  8.53188  256  -6.6  74    -10.5 576   0     979.0    NA       0.0000   9999     2460  0     0    
2019/11/18  17:22:00  BASE  6.37392  272  8.53188  256  -6.6  74    -10.5 579   0     979.0    NA       0.0000   9999     2620  15650 24180
2019/11/18  17:23:00  BASE  6.03876  273  8.53188  256  -6.6  73    -10.6 586   0     978.7    NA       0.0000   9999     2820  0     0    
2019/11/18  17:24:00  BASE  6.13872  277  8.53188  256  -6.6  73    -10.7 605   0     978.9    NA       0.0000   9999     3120  0     0    
2019/11/18  17:25:00  BASE  6.45036  278  8.53188  256  -6.6  72    -10.8 584   0     979.1    NA       0.0000   9999     2990  0     0    
2019/11/18  17:26:00  BASE  6.39744  280  7.86744  276  -6.6  72    -10.7 580   0     979.1    NA       0.0000   9999     2720  0     0    
2019/11/18  17:27:00  BASE  6.19164  279  7.86744  276  -6.6  72    -10.7 576   0     979.1    NA       0.0000   9999     2890  22210 0    
2019/11/18  17:28:00  BASE  6.10932  277  7.86744  276  -6.6  73    -10.7 553   0     979.2    NA       0.0000   9999     3020  0     0    
2019/11/18  17:29:00  BASE  6.59148  277  7.86744  276  -6.6  73    -10.6 552   0     979.2    NA       0.0000   9999     2890  0     0    
2019/11/18  17:30:00  BASE  6.66792  277  7.86744  276  -6.6  73    -10.7 576   0     979.2    NA       0.0000   9999     2950  0     0    
2019/11/18  17:31:00  BASE  6.29748  277  7.86744  276  -6.6  73    -10.7 587   0     979.2    NA       0.0000   9999     2920  0     0    
2019/11/18  17:32:00  BASE  5.83884  281  7.68516  277  -6.7  72    -10.8 588   0     979.2    NA       0.0000   9999     3050  0     0    
2019/11/18  17:33:00  BASE  5.59776  286  7.68516  277  -6.7  72    -10.9 600   0     979.2    NA       0.0000   9999     2760  0     0    
2019/11/18  17:34:00  BASE  5.7918   285  7.68516  277  -6.6  72    -10.9 558   0     979.2    NA       0.0000   9999     2590  0     0    
2019/11/18  17:35:00  BASE  6.25044  283  7.68516  277  -6.6  72    -10.9 539   0     979.2    NA       0.0000   9999     2530  0     0    
2019/11/18  17:36:00  BASE  6.39744  285  7.65576  278  -6.6  72    -10.9 528   0     979.2    NA       0.0000   9999     2260  0     0    
2019/11/18  17:37:00  BASE  6.12108  286  7.65576  278  -6.6  72    -10.8 523   0     979.2    NA       0.0000   9999     2260  0     0    
2019/11/18  17:38:00  BASE  6.00348  284  7.65576  278  -6.6  72    -10.8 518   0     979.2    NA       0.0000   9999     2260  0     0    
2019/11/18  17:39:00  BASE  6.26808  285  7.53228  274  -6.6  72    -10.7 510   0     979.2    NA       0.0000   9999     2130  0     0    
2019/11/18  17:40:00  BASE  6.9678   272  8.379    276  -6.6  73    -10.6 501   0     979.2    NA       0.0000   9999     2170  0     0    
2019/11/18  17:41:00  BASE  6.9678   254  8.379    276  -6.5  73    -10.5 495   0     979.2    NA       0.0000   9999     2230  0     0    
2019/11/18  17:42:00  BASE  7.0266   253  8.59068  252  -6.5  74    -10.4 490   0     978.7    NA       0.0000   9999     2100  21650 0    
2019/11/18  17:43:00  BASE  7.6734   251  8.59068  252  -6.6  75    -10.3 486   0     979.4    NA       0.0000   9999     2130  0     0    
2019/11/18  17:44:00  BASE  7.42056  249  8.59068  252  -6.6  75    -10.2 485   0     979.4    NA       0.0000   9999     2170  0     0    
2019/11/18  17:45:00  BASE  6.89724  248  8.59068  252  -6.7  76    -10.2 491   0     979.5    NA       0.0000   9999     2100  0     0    
2019/11/18  17:46:00  BASE  6.57972  249  8.59068  252  -6.7  76    -10.3 500   0     979.4    NA       0.0000   9999     2070  0     0    
2019/11/18  17:47:00  BASE  6.51504  252  8.59068  252  -6.8  76    -10.3 512   0     979.5    NA       0.0000   9999     2200  0     0    
2019/11/18  17:48:00  BASE  7.06776  253  8.62008  248  -6.8  76    -10.3 524   0     979.6    NA       0.0000   9999     2170  0     0    
2019/11/18  17:49:00  BASE  7.44408  255  8.62008  248  -6.8  76    -10.2 525   0     979.6    NA       0.0000   9999     2260  0     0    
2019/11/18  17:50:00  BASE  6.96192  260  8.62008  248  -6.8  77    -10.2 516   0     979.6    NA       0.0000   9999     2430  0     0    
2019/11/18  17:51:00  BASE  6.48564  258  8.62008  248  -6.8  77    -10.2 504   0     979.6    NA       0.0000   9999     2360  0     0    
2019/11/18  17:52:00  BASE  6.82668  259  8.62008  248  -6.8  77    -10.2 497   0     979.7    NA       0.0000   9999     2400  0     0    
2019/11/18  17:53:00  BASE  7.10892  259  8.62008  248  -6.8  76    -10.3 489   0     979.6    NA       0.0000   9999     2360  0     0    
2019/11/18  17:54:00  BASE  6.39156  260  8.62008  248  -6.8  76    -10.3 478   0     979.7    NA       0.0000   9999     2400  0     0    
2019/11/18  17:55:00  BASE  6.07404  261  8.62008  248  -6.8  76    -10.4 530   0     979.7    NA       0.0000   9999     2560  0     0    
2019/11/18  17:56:00  BASE  5.79768  264  8.62008  248  -6.8  76    -10.3 502   0     979.7    NA       0.0000   9999     0     0     0    
2019/11/18  17:57:00  BASE  4.79808  267  8.62008  248  -6.8  76    -10.4 513   0     979.8    NA       0.0000   9999     2590  0     0    
2019/11/18  17:58:00  BASE  4.54524  270  8.25552  253  -6.8  76    -10.4 517   0     979.8    NA       0.0000   9999     2590  21230 0    
2019/11/18  17:59:00  BASE  5.19792  279  8.25552  253  -6.8  75    -10.4 511   0     979.8    NA       0.0000   9999     2400  0     0    
2019/11/18  18:00:00  BASE  5.09208  284  8.25552  253  -6.8  75    -10.5 500   0     979.8    NA       0.0000   9999     2360  0     0    
2019/11/18  18:01:00  BASE  4.68636  284  8.25552  253  -6.8  75    -10.5 492   0     979.8    NA       0.0000   9999     2360  0     0    
2019/11/18  18:02:00  BASE  4.74516  282  8.25552  253  -6.8  74    -10.6 494   0     979.8    NA       0.0000   9999     2330  0     0    
2019/11/18  18:03:00  BASE  4.87452  279  7.59108  254  -6.8  74    -10.6 502   0     979.8    NA       0.0000   9999     2300  0     0    
2019/11/18  18:04:00  BASE  5.07444  281  7.59108  254  -6.8  74    -10.6 517   0     979.8    NA       0.0000   9999     2360  0     0    
2019/11/18  18:05:00  BASE  5.0568   284  6.47388  253  -6.7  74    -10.6 540   0     979.8    NA       0.0000   9999     2360  0     0    
2019/11/18  18:06:00  BASE  5.16264  279  6.47388  277  -6.7  74    -10.5 560   0     979.9    NA       0.0000   9999     2400  0     0    
2019/11/18  18:07:00  BASE  5.19204  271  6.47388  277  -6.7  75    -10.4 573   0     979.9    NA       0.0000   9999     2460  18640 0    
2019/11/18  18:08:00  BASE  5.13912  274  6.47388  277  -6.6  75    -10.4 581   0     979.9    NA       0.0000   9999     2620  0     0    
2019/11/18  18:09:00  BASE  5.59776  282  6.80316  278  -6.6  75    -10.3 583   0     979.9    NA       0.0000   9999     2560  0     0    
2019/11/18  18:10:00  BASE  6.15048  287  7.05012  296  -6.6  75    -10.3 569   0     979.9    NA       0.0000   9999     2400  0     0    
2019/11/18  18:11:00  BASE  5.88     285  7.05012  296  -6.6  75    -10.3 557   0     979.9    NA       0.0000   9999     2400  19520 23070
2019/11/18  18:12:00  BASE  5.4096   280  7.05012  296  -6.6  75    -10.3 547   0     979.9    NA       0.0000   9999     2330  0     0    
2019/11/18  18:13:00  BASE  5.71536  278  7.65576  269  -6.6  75    -10.3 545   0     979.9    NA       0.0000   9999     2300  0     0    
2019/11/18  18:14:01  BASE  5.86824  274  7.65576  269  -6.6  75    -10.3 550   0     980.0    NA       0.0000   9999     2300  0     0    
2019/11/18  18:15:01  BASE  5.3802   270  7.65576  269  -6.6  75    -10.3 552   0     980.0    NA       0.0000   9999     2260  0     0    
2019/11/18  18:16:01  BASE  5.05092  272  7.65576  269  -6.6  75    -10.3 545   0     980.1    NA       0.0000   9999     2230  0     0    
2019/11/18  18:17:01  BASE  5.439    273  7.65576  269  -6.6  75    -10.3 534   0     980.1    NA       0.0000   9999     2360  0     0    
2019/11/18  18:18:01  BASE  6.25632  275  7.65576  269  -6.6  74    -10.4 514   0     980.1    NA       0.0000   9999     2260  0     0    
2019/11/18  18:19:01  BASE  5.83296  276  7.65576  269  -6.6  74    -10.5 495   0     980.1    NA       0.0000   9999     2260  0     0    
2019/11/18  18:20:01  BASE  5.33904  277  7.65576  269  -6.7  74    -10.6 486   0     980.1    NA       0.0000   9999     2200  0     0    
2019/11/18  18:21:01  BASE  5.19204  277  7.65576  269  -6.7  74    -10.6 480   0     980.1    NA       0.0000   9999     2200  0     0    
2019/11/18  18:22:01  BASE  4.87452  276  7.65576  269  -6.7  73    -10.7 475   0     980.1    NA       0.0000   9999     2200  0     0    
2019/11/18  18:23:01  BASE  5.62716  271  7.2912   276  -6.8  73    -10.7 473   0     980.2    NA       0.0000   9999     2230  22800 0    
2019/11/18  18:24:01  BASE  5.86824  261  7.2912   276  -6.8  73    -10.7 472   0     980.2    NA       0.0000   9999     2170  0     0    
2019/11/18  18:25:01  BASE  5.586    261  7.2912   276  -6.8  74    -10.6 472   0     980.2    NA       0.0000   9999     2100  0     0    
2019/11/18  18:26:00  BASE  5.56836  259  7.2912   276  -6.7  74    -10.6 479   0     980.2    NA       0.0000   9999     2030  0     0    
2019/11/18  18:27:00  BASE  5.19792  253  7.2912   276  -6.8  75    -10.5 494   0     980.3    NA       0.0000   9999     2100  22340 0    
2019/11/18  18:28:00  BASE  5.51544  251  6.98544  261  -6.8  75    -10.5 505   0     980.3    NA       0.0000   9999     2100  21520 0    
2019/11/18  18:29:00  BASE  5.60364  254  6.98544  261  -6.7  75    -10.4 516   0     980.3    NA       0.0000   9999     2130  0     0    
2019/11/18  18:30:00  BASE  5.25672  257  6.98544  261  -6.7  76    -10.3 530   0     980.3    NA       0.0000   9999     2100  0     0    
2019/11/18  18:31:00  BASE  4.92156  263  6.98544  261  -6.7  76    -10.2 543   0     980.3    NA       0.0000   9999     2200  0     0    
2019/11/18  18:32:00  BASE  4.851    268  6.98544  261  -6.6  77    -10.0 557   0     980.4    NA       0.0000   9999     2300  0     0    
2019/11/18  18:33:00  BASE  5.39784  267  7.2618   278  -6.6  77    -9.9  575   0     980.3    NA       0.0000   9999     2230  0     0    
2019/11/18  18:34:00  BASE  6.21516  272  7.62048  277  -6.5  77    -9.9  591   0     980.3    NA       0.0000   9999     2430  0     0    
2019/11/18  18:35:00  BASE  6.56208  279  7.62048  277  -6.6  77    -9.9  598   0     980.3    NA       0.0000   9999     2170  0     0    
2019/11/18  18:36:00  BASE  5.57424  276  7.62048  277  -6.5  77    -9.9  593   0     980.3    NA       0.0000   9999     2100  0     0    
2019/11/18  18:37:00  BASE  5.55072  274  7.62048  277  -6.5  77    -9.9  576   0     980.4    NA       0.0000   9999     2260  0     0    
2019/11/18  18:38:00  BASE  6.3798   269  7.62048  277  -6.5  76    -10.0 555   0     980.4    NA       0.0000   9999     2200  0     0    
2019/11/18  18:39:00  BASE  6.30336  262  7.62048  277  -6.5  76    -10.0 530   0     980.4    NA       0.0000   9999     2230  0     0    
2019/11/18  18:40:00  BASE  6.06816  254  7.62048  277  -6.5  76    -10.0 504   0     980.4    NA       0.0000   9999     2200  21490 0    
2019/11/18  18:41:00  BASE  6.027    247  7.62048  277  -6.5  76    -10.0 485   0     980.4    NA       0.0000   9999     2200  0     0    
2019/11/18  18:42:00  BASE  5.73888  243  7.62048  277  -6.6  77    -10.0 545   0     980.4    NA       0.0000   9999     2100  0     0    
2019/11/18  18:43:00  BASE  5.08032  242  7.62048  277  -6.6  77    -10.0 520   0     980.4    NA       0.0000   9999     2100  0     0    
2019/11/18  18:44:00  BASE  4.7922   242  7.56168  250  -6.6  77    -9.9  529   0     980.4    NA       0.0000   9999     2030  2660  0    
2019/11/18  18:45:00  BASE  4.7922   242  7.56168  250  -6.6  77    -9.9  514   0     980.5    NA       0.0000   9999     2030  23430 0    
2019/11/18  18:46:00  BASE  4.44528  243  7.56168  250  -6.6  78    -9.9  484   0     980.5    NA       0.0000   9999     2170  0     0    
2019/11/18  18:47:00  BASE  4.53348  244  7.56168  250  -6.6  78    -9.8  491   0     980.6    NA       0.0000   9999     2230  0     0    
2019/11/18  18:48:00  BASE  5.45076  246  6.98544  247  -6.6  78    -9.8  512   0     980.6    NA       0.0000   9999     2100  0     0    
2019/11/18  18:49:00  BASE  5.75064  249  6.98544  247  -6.6  78    -9.8  491   0     980.6    NA       0.0000   9999     2070  0     0    
2019/11/18  18:50:00  BASE  5.83296  248  6.92664  254  -6.6  78    -9.8  500   0     980.6    NA       0.0000   9999     2200  0     0    
2019/11/18  18:51:00  BASE  5.66832  248  6.80316  251  -6.6  78    -9.8  490   0     980.6    NA       0.0000   9999     2170  0     0    
2019/11/18  18:52:00  BASE  5.33904  250  6.80316  251  -6.6  78    -9.8  500   0     980.6    NA       0.0000   9999     2100  0     0    
2019/11/18  18:53:00  BASE  5.31552  252  6.80316  251  -6.6  78    -9.8  521   0     980.7    NA       0.0000   9999     2200  0     0    
2019/11/18  18:54:00  BASE  4.83924  256  6.80316  251  -6.6  78    -9.8  552   0     980.7    NA       0.0000   9999     2230  22510 0    
2019/11/18  18:55:00  BASE  4.95096  258  6.80316  251  -6.6  78    -9.8  643   0     980.7    NA       0.0000   9999     2300  0     0    
2019/11/18  18:56:00  BASE  5.44488  257  6.80316  251  -6.5  78    -9.8  567   0     980.7    NA       0.0000   9999     2260  0     0    
2019/11/18  18:57:00  BASE  5.60952  258  8.13792  250  -6.5  78    -9.7  566   0     980.7    NA       0.0000   9999     2230  0     0    
2019/11/18  18:58:00  BASE  6.62676  254  8.13792  250  -6.5  78    -9.8  532   0     980.6    NA       0.0000   9999     2400  0     0    
2019/11/18  18:59:00  BASE  7.5264   252  8.4378   263  -6.5  77    -9.8  500   0     980.7    NA       0.0000   9999     2490  0     0    
2019/11/18  19:00:00  BASE  7.19124  256  8.4378   263  -6.5  77    -9.9  462   0     980.7    NA       0.0000   9999     2490  20210 0    
2019/11/18  19:01:00  BASE  7.15596  253  8.4378   263  -6.5  76    -10.0 523   0     980.7    NA       0.0000   9999     2530  0     0    
2019/11/18  19:02:00  BASE  7.27944  251  8.4378   263  -6.6  76    -10.2 506   0     980.7    NA       0.0000   9999     2560  0     0    
2019/11/18  19:03:00  BASE  6.87372  250  8.4378   263  -6.6  75    -10.3 591   0     980.7    NA       0.0000   9999     2590  0     0    
2019/11/18  19:04:00  BASE  6.4386   253  8.4378   263  -6.6  74    -10.5 369   0     980.8    NA       0.0000   9999     2590  0     0    
2019/11/18  19:05:00  BASE  6.35628  252  8.4378   263  -6.6  74    -10.6 624   0     980.8    NA       0.0000   9999     2590  0     0    
2019/11/18  19:06:00  BASE  6.53268  247  8.4378   263  -6.7  73    -10.7 398   0     980.8    NA       0.0000   9999     2460  0     0    
2019/11/18  19:07:00  BASE  6.18576  250  8.4378   263  -6.7  73    -10.7 367   0     980.8    NA       0.0000   9999     2530  0     0    
2019/11/18  19:08:00  BASE  5.733    254  8.4378   263  -6.7  73    -10.8 863   0     980.8    NA       0.0000   9999     2890  0     0    
2019/11/18  19:09:00  BASE  5.66832  253  7.86744  249  -6.8  73    -10.8 288   0     980.8    NA       0.0000   9999     2790  0     0    
2019/11/18  19:10:00  BASE  5.47428  257  7.86744  249  -6.7  73    -10.8 377   0     980.8    NA       0.0000   9999     0     0     0    
2019/11/18  19:11:00  BASE  5.94468  257  7.86744  249  -6.7  73    -10.8 667   0     980.8    NA       0.0000   9999     2590  0     0    
2019/11/18  19:12:00  BASE  6.2034   251  7.86744  249  -6.7  73    -10.8 593   0     980.8    NA       0.0000   9999     2690  0     0    
2019/11/18  19:13:00  BASE  6.01524  252  7.2618   251  -6.8  73    -10.9 403   0     980.8    NA       0.0000   9999     2820  0     0    
2019/11/18  19:14:00  BASE  5.97996  254  7.2618   251  -6.8  72    -10.9 719   0     980.8    NA       0.0000   9999     2560  0     0    
2019/11/18  19:15:00  BASE  5.66832  254  7.2618   251  -6.8  72    -10.9 714   0     980.8    NA       0.0000   9999     0     0     0    
2019/11/18  19:16:00  BASE  5.81532  255  7.2618   251  -6.7  72    -10.9 755   0     980.9    NA       0.0000   9999     0     0     0    
2019/11/18  19:17:00  BASE  6.06816  250  7.2618   251  -6.7  72    -10.9 593   0     980.9    NA       0.0000   9999     0     0     0    
2019/11/18  19:18:00  BASE  5.5566   247  7.2618   251  -6.7  72    -10.9 680   0     980.9    NA       0.0000   9999     2620  0     0    
2019/11/18  19:19:00  BASE  5.18616  246  7.2618   251  -6.6  72    -10.8 487   0     980.9    NA       0.0000   9999     2690  0     0    
2019/11/18  19:20:00  BASE  5.34492  243  7.2618   251  -6.6  72    -10.8 767   0     980.9    NA       0.0000   9999     0     0     0    
2019/11/18  19:21:01  BASE  5.39196  242  6.95604  254  -6.6  72    -10.9 762   0     981.0    NA       0.0000   9999     0     0     0    
2019/11/18  19:22:01  BASE  5.57424  245  6.95604  254  -6.6  72    -10.8 762   0     981.0    NA       0.0000   9999     2430  0     0    
2019/11/18  19:23:01  BASE  5.46252  248  6.95604  254  -6.6  72    -10.8 729   0     981.0    NA       0.0000   9999     0     0     0    
2019/11/18  19:24:01  BASE  5.01564  248  6.95604  254  -6.6  72    -10.8 569   0     981.0    NA       0.0000   9999     2590  0     0    
2019/11/18  19:25:01  BASE  4.57464  248  6.95604  254  -6.6  72    -10.7 693   0     981.0    NA       0.0000   9999     2400  0     0    
2019/11/18  19:26:01  BASE  4.4982   257  6.71496  245  -6.5  72    -10.7 695   0     981.0    NA       0.0000   9999     2460  0     0    
2019/11/18  19:27:01  BASE  4.33356  267  6.47388  247  -6.5  73    -10.6 697   0     981.0    NA       0.0000   9999     2490  0     0    
2019/11/18  19:28:01  BASE  4.49232  268  6.47388  247  -6.4  73    -10.5 698   0     981.0    NA       0.0000   9999     0     0     0    
2019/11/18  19:29:01  BASE  5.1744   265  6.47388  247  -6.4  73    -10.4 691   0     981.0    NA       0.0000   9999     2490  0     0    
2019/11/18  19:30:01  BASE  5.23908  262  6.53268  251  -6.4  73    -10.4 714   0     981.0    NA       0.0000   9999     2460  0     0    
2019/11/18  19:31:01  BASE  5.29788  264  6.80316  248  -6.4  73    -10.4 678   0     981.0    NA       0.0000   9999     2490  0     0    
2019/11/18  19:32:01  BASE  5.21556  271  6.80316  248  -6.4  73    -10.4 667   0     981.0    NA       0.0000   9999     0     0     0    
2019/11/18  19:33:01  BASE  4.9686   271  6.80316  248  -6.4  73    -10.5 641   0     981.1    NA       0.0000   9999     0     0     0    
2019/11/18  19:34:01  BASE  5.57424  259  7.19712  246  -6.4  72    -10.6 629   0     981.1    NA       0.0000   9999     0     0     0    
2019/11/18  19:35:00  BASE  6.09168  253  7.19712  246  -6.4  72    -10.7 626   0     981.2    NA       0.0000   9999     0     0     0    
2019/11/18  19:36:00  BASE  5.63892  254  7.19712  246  -6.4  71    -10.7 629   0     981.2    NA       0.0000   9999     0     0     0    
2019/11/18  19:37:00  BASE  5.1744   254  7.19712  246  -6.5  71    -10.8 636   0     981.2    NA       0.0000   9999     0     0     0    
2019/11/18  19:38:00  BASE  5.10384  254  7.19712  246  -6.5  71    -11.0 144   0     981.2    NA       0.0000   9999     0     0     0    
2019/11/18  19:39:00  BASE  5.36844  255  7.19712  246  -6.6  71    -11.1 650   0     981.2    NA       0.0000   9999     0     0     0    
2019/11/18  19:40:00  BASE  5.0862   261  7.19712  246  -6.7  71    -11.1 632   0     981.2    NA       0.0000   9999     0     0     0    
2019/11/18  19:41:00  BASE  4.71576  263  7.19712  246  -6.7  71    -11.1 628   0     981.2    NA       0.0000   9999     0     0     0    
2019/11/18  19:42:00  BASE  4.4394   262  7.19712  246  -6.6  71    -11.1 627   0     981.3    NA       0.0000   9999     2660  0     0    
2019/11/18  19:43:00  BASE  5.29788  263  7.3794   251  -6.6  71    -11.0 631   0     981.3    NA       0.0000   9999     0     0     0    
2019/11/18  19:44:00  BASE  5.92116  264  7.3794   251  -6.5  71    -10.9 655   0     981.3    NA       0.0000   9999     0     0     0    
2019/11/18  19:45:00  BASE  5.10384  268  7.3794   251  -6.5  72    -10.8 706   0     981.4    NA       0.0000   9999     2660  0     0    
2019/11/18  19:46:00  BASE  4.58052  272  7.3794   251  -6.5  72    -10.8 442   0     981.4    NA       0.0000   9999     2690  0     0    
2019/11/18  19:47:00  BASE  4.18656  270  7.3794   251  -6.5  72    -10.7 725   0     981.5    NA       0.0000   9999     2660  0     0    
2019/11/18  19:48:00  BASE  3.94548  264  7.3794   251  -6.4  72    -10.7 743   0     M        NA       0.0000   9999     2660  0     0    
2019/11/18  19:49:00  BASE  4.00428  267  7.3794   251  -6.4  72    -10.7 772   0     M        NA       0.0000   9999     2690  0     0    
2019/11/18  19:50:00  BASE  4.83336  262  7.3794   251  -6.3  72    -10.6 676   0     M        NA       0.0000   9999     2720  0     0    
2019/11/18  19:51:00  BASE  4.69224  263  7.3794   251  -6.3  72    -10.6 391   0     M        NA       0.0000   9999     2760  0     0    
2019/11/18  19:52:00  BASE  4.71576  263  7.3794   251  -6.3  72    -10.6 692   0     M        NA       0.0000   9999     2620  0     0    
2019/11/18  19:53:00  BASE  4.998    260  7.07952  265  -6.3  71    -10.7 674   0     M        NA       0.0000   9999     0     0     0    
2019/11/18  19:54:00  BASE  4.21596  267  6.53268  244  -6.4  71    -10.7 666   0     M        NA       0.0000   9999     0     0     0    
2019/11/18  19:55:00  BASE  4.41588  267  6.53268  244  -6.4  71    -10.7 673   0     M        NA       0.0000   9999     0     0     0    
2019/11/18  19:56:00  BASE  4.53348  271  6.53268  244  -6.4  71    -10.7 707   0     M        NA       0.0000   9999     2620  0     0    
2019/11/18  19:57:00  BASE  4.30416  274  6.53268  244  -6.3  71    -10.7 354   0     M        NA       0.0000   9999     2560  0     0    
2019/11/18  19:58:00  BASE  4.95684  271  6.53268  244  -6.3  71    -10.7 465   0     M        NA       0.0000   9999     2560  0     0    
2019/11/18  19:59:00  BASE  4.88628  272  6.53268  244  -6.4  71    -10.8 223   0     M        NA       0.0000   9999     2760  0     0    
2019/11/18  20:00:00  BASE  4.60404  267  6.53268  244  -6.4  71    -10.9 229   0     M        NA       0.0000   9999     0     0     0    
2019/11/18  20:01:00  BASE  4.84512  257  6.53268  244  -6.5  70    -11.0 268   0     M        NA       0.0000   9999     2850  0     0    
2019/11/18  20:02:00  BASE  4.60992  252  6.3504   252  -6.6  70    -11.1 516   0     M        NA       0.0000   9999     2720  0     0    
2019/11/18  20:03:00  BASE  4.53348  254  6.3504   252  -6.6  70    -11.2 649   0     M        NA       0.0000   9999     2820  0     0    
2019/11/18  20:04:00  BASE  4.66284  254  6.3504   252  -6.6  70    -11.2 436   0     M        NA       0.0000   9999     0     0     0    
2019/11/18  20:05:00  BASE  4.4982   247  6.321    261  -6.7  70    -11.1 204   0     M        NA       0.0000   9999     0     0     0    
2019/11/18  20:06:00  BASE  4.5276   243  6.321    261  -6.7  71    -11.1 282   0     M        NA       0.0000   9999     0     0     0    
2019/11/18  20:07:00  BASE  4.62756  242  6.321    261  -6.7  71    -11.1 690   0     M        NA       0.0000   9999     0     0     0    
2019/11/18  20:08:00  BASE  4.55112  245  5.74476  259  -6.7  71    -11.1 573   0     M        NA       0.0000   9999     0     0     0    
2019/11/18  20:09:00  BASE  4.28652  247  5.74476  259  -6.7  71    -11.0 626   0     M        NA       0.0000   9999     0     0     0    
2019/11/18  20:10:00  BASE  4.18068  249  5.65656  245  -6.7  71    -11.0 609   0     M        NA       0.0000   9999     0     0     0    
2019/11/18  20:11:00  BASE  4.7628   251  5.99172  248  -6.6  72    -10.9 598   0     M        NA       0.0000   9999     0     0     0    
2019/11/18  20:12:00  BASE  4.80396  249  5.99172  248  -6.6  72    -10.9 597   0     M        NA       0.0000   9999     0     0     0    
2019/11/18  20:13:00  BASE  4.44528  250  5.99172  248  -6.6  72    -10.8 611   0     M        NA       0.0000   9999     0     0     0    
2019/11/18  20:14:00  BASE  4.73928  253  5.99172  252  -6.5  71    -10.8 634   0     M        NA       0.0000   9999     0     0     0    
2019/11/18  20:15:00  BASE  4.66284  256  5.99172  252  -6.5  71    -10.9 293   0     M        NA       0.0000   9999     0     0     0    
2019/11/18  20:16:00  BASE  4.116    262  5.99172  252  -6.5  71    -11.0 717   0     M        NA       0.0000   9999     0     0     0    
2019/11/18  20:17:00  BASE  3.9396   261  5.99172  252  -6.5  71    -10.9 413   0     M        NA       0.0000   9999     0     0     0    
2019/11/18  20:18:00  BASE  4.11012  255  5.99172  252  -6.5  71    -10.9 288   0     M        NA       0.0000   9999     2590  0     0    
2019/11/18  20:19:00  BASE  4.50996  257  5.99172  252  -6.6  71    -11.0 282   0     M        NA       0.0000   9999     2590  0     0    
2019/11/18  20:20:00  BASE  4.56876  259  5.99172  252  -6.6  71    -11.1 271   0     M        NA       0.0000   9999     2620  0     0    
2019/11/18  20:21:00  BASE  4.1454   258  5.99172  252  -6.7  71    -11.1 356   0     M        NA       0.0000   9999     2720  0     0    
2019/11/18  20:22:00  BASE  4.16892  259  5.99172  252  -6.7  71    -11.2 326   0     M        NA       0.0000   9999     2720  0     0    
2019/11/18  20:23:00  BASE  4.15716  252  5.99172  252  -6.7  71    -11.2 221   0     M        NA       0.0000   9999     5810  0     0    
2019/11/18  20:24:00  BASE  3.93372  243  5.35668  259  -6.7  71    -11.2 236   0     M        NA       0.0000   9999     2530  6300  0    
2019/11/18  20:25:01  BASE  4.29828  246  5.35668  259  -6.7  71    -11.1 234   0     M        NA       0.0000   9999     2620  0     0    
2019/11/18  20:26:01  BASE  4.83924  252  5.41548  244  -6.7  72    -11.0 223   0     M        NA       0.0000   9999     2530  0     0    
2019/11/18  20:27:01  BASE  4.92156  248  5.53308  239  -6.8  72    -11.0 255   0     M        NA       0.0000   9999     2560  5410  0    
2019/11/18  20:28:01  BASE  4.80396  246  5.53308  239  -6.8  72    -11.0 296   0     M        NA       0.0000   9999     5810  6460  0    
2019/11/18  20:29:01  BASE  4.62168  250  5.53308  239  -6.8  72    -11.0 399   0     M        NA       0.0000   9999     6460  0     0    
2019/11/18  20:30:01  BASE  4.23948  249  5.53308  239  -6.8  72    -11.1 673   0     M        NA       0.0000   9999     5410  6430  0    
2019/11/18  20:31:01  BASE  3.72792  247  5.53308  239  -6.7  71    -11.0 593   0     M        NA       0.0000   9999     6270  0     0    
2019/11/18  20:32:01  BASE  3.42216  250  5.53308  239  -6.7  71    -11.0 311   0     M        NA       0.0000   9999     5410  0     0    
2019/11/18  20:33:01  BASE  3.58092  264  5.53308  239  -6.6  71    -11.0 249   0     M        NA       0.0000   9999     2890  6370  0    
2019/11/18  20:34:01  BASE  3.63972  272  5.53308  239  -6.6  71    -11.0 265   0     M        NA       0.0000   9999     2820  0     0    
2019/11/18  20:35:01  BASE  3.69264  275  5.53308  239  -6.6  71    -10.9 239   0     M        NA       0.0000   9999     2690  0     0    
2019/11/18  20:36:01  BASE  3.46332  279  5.53308  239  -6.6  71    -11.0 252   0     M        NA       0.0000   9999     2820  0     0    
2019/11/18  20:37:01  BASE  3.66912  277  5.41548  277  -6.6  71    -11.0 245   0     M        NA       0.0000   9999     2690  6690  0    
2019/11/18  20:38:01  BASE  3.97488  276  5.41548  277  -6.5  71    -11.0 243   0     M        NA       0.0000   9999     2720  6690  0    
2019/11/18  20:39:01  BASE  3.92196  272  5.41548  277  -6.5  71    -11.0 241   0     M        NA       0.0000   9999     6630  0     0    
2019/11/18  20:40:01  BASE  4.50408  266  5.86824  264  -6.5  70    -11.0 247   0     M        NA       0.0000   9999     2660  5610  6690 
2019/11/18  20:41:01  BASE  5.05092  262  5.86824  264  -6.5  70    -11.0 244   0     M        NA       0.0000   9999     2590  5610  0    
2019/11/18  20:42:01  BASE  4.96272  259  5.86824  264  -6.6  70    -11.1 251   0     M        NA       0.0000   9999     5610  6590  0    
2019/11/18  20:43:00  BASE  4.5864   257  5.86824  264  -6.7  70    -11.3 263   0     M        NA       0.0000   9999     5580  6660  0    
2019/11/18  20:44:00  BASE  4.45116  258  5.86824  264  -6.7  69    -11.4 287   0     M        NA       0.0000   9999     5640  6730  0    
2019/11/18  20:45:00  BASE  4.12188  259  5.86824  264  -6.7  69    -11.4 306   0     M        NA       0.0000   9999     5510  6630  0    
2019/11/18  20:46:00  BASE  4.02192  260  5.86824  264  -6.8  69    -11.4 318   0     M        NA       0.0000   9999     5610  0     0    
2019/11/18  20:47:00  BASE  4.09248  259  5.86824  264  -6.8  70    -11.4 325   0     M        NA       0.0000   9999     5410  0     0    
2019/11/18  20:48:00  BASE  4.15128  258  5.86824  264  -6.8  70    -11.4 319   0     M        NA       0.0000   9999     5480  6560  0    
2019/11/18  20:49:00  BASE  4.32768  258  5.86824  264  -6.7  70    -11.3 320   0     M        NA       0.0000   9999     5640  6660  0    
2019/11/18  20:50:00  BASE  4.25124  256  5.53308  262  -6.7  70    -11.3 306   0     M        NA       0.0000   9999     5410  6820  0    
2019/11/18  20:51:00  BASE  3.98664  256  5.292    262  -6.7  70    -11.3 297   0     M        NA       0.0000   9999     6820  0     0    
2019/11/18  20:52:00  BASE  3.675    258  5.08032  258  -6.7  70    -11.3 296   0     M        NA       0.0000   9999     5710  6820  0    
2019/11/18  20:53:00  BASE  3.72792  261  4.89804  255  -6.7  70    -11.3 305   0     M        NA       0.0000   9999     5480  6890  0    
2019/11/18  20:54:00  BASE  3.75732  264  4.78044  271  -6.7  70    -11.3 317   0     M        NA       0.0000   9999     5450  0     0    
2019/11/18  20:55:00  BASE  3.58092  261  4.78044  271  -6.7  70    -11.3 319   0     M        NA       0.0000   9999     5350  6820  20800
2019/11/18  20:56:00  BASE  3.42216  258  4.78044  271  -6.7  70    -11.3 324   0     M        NA       0.0000   9999     5350  6820  0    
2019/11/18  20:57:00  BASE  3.33396  257  4.78044  271  -6.7  70    -11.3 308   0     M        NA       0.0000   9999     6660  0     0    
2019/11/18  20:58:00  BASE  3.50448  258  4.78044  271  -6.7  70    -11.3 306   0     M        NA       0.0000   9999     5410  7190  0    
2019/11/18  20:59:00  BASE  3.62796  260  4.78044  271  -6.7  70    -11.3 276   0     M        NA       0.0000   9999     7020  0     0    
2019/11/18  21:00:00  BASE  3.62796  263  4.78044  271  -6.7  70    -11.3 259   0     M        NA       0.0000   9999     6920  0     0    
2019/11/18  21:01:00  BASE  3.74556  263  4.78044  264  -6.7  70    -11.2 280   0     M        NA       0.0000   9999     5150  7190  0    
2019/11/18  21:02:00  BASE  3.97488  260  4.78044  264  -6.7  70    -11.3 310   0     M        NA       0.0000   9999     5120  0     0    
2019/11/18  21:03:00  BASE  3.92196  262  4.78044  264  -6.7  70    -11.3 295   0     M        NA       0.0000   9999     5220  0     0    
2019/11/18  21:04:00  BASE  3.3222   265  4.78044  264  -6.7  70    -11.3 251   0     M        NA       0.0000   9999     5220  0     0    
2019/11/18  21:05:00  BASE  3.087    266  4.78044  264  -6.7  70    -11.3 210   0     M        NA       0.0000   9999     5120  7190  0    
2019/11/18  21:06:00  BASE  3.11052  268  4.78044  264  -6.7  69    -11.3 201   0     M        NA       0.0000   9999     5150  7050  0    
2019/11/18  21:07:00  BASE  3.0282   267  4.78044  264  -6.7  69    -11.4 211   0     M        NA       0.0000   9999     7190  0     0    
2019/11/18  21:08:00  BASE  3.33984  262  4.78044  264  -6.7  69    -11.4 216   0     M        NA       0.0000   9999     5250  0     0    
2019/11/18  21:09:00  BASE  3.27516  268  4.78044  264  -6.7  69    -11.4 208   0     M        NA       0.0000   9999     5220  0     0    
2019/11/18  21:10:00  BASE  3.34572  276  4.78044  264  -6.7  69    -11.4 201   0     M        NA       0.0000   9999     5050  19330 0    
2019/11/18  21:11:00  BASE  3.38688  275  4.44528  257  -6.7  69    -11.4 203   0     M        NA       0.0000   9999     5120  0     0    
2019/11/18  21:12:00  BASE  3.05172  268  4.32768  257  -6.7  69    -11.4 210   0     M        NA       0.0000   9999     5180  0     0    
2019/11/18  21:13:00  BASE  2.74596  261  4.32768  257  -6.7  69    -11.4 211   0     M        NA       0.0000   9999     5250  0     0    
2019/11/18  21:14:00  BASE  2.22264  269  4.32768  257  -6.7  69    -11.3 207   0     M        NA       0.0000   9999     5150  0     0    
2019/11/18  21:15:00  BASE  2.4402   279  4.32768  257  -6.7  70    -11.3 214   0     M        NA       0.0000   9999     5120  7350  0    
2019/11/18  21:16:00  BASE  2.7636   272  4.32768  257  -6.7  70    -11.2 224   0     M        NA       0.0000   9999     5180  0     0    
2019/11/18  21:17:00  BASE  2.39316  269  4.32768  257  -6.7  71    -11.2 227   0     M        NA       0.0000   9999     5180  0     0    
2019/11/18  21:18:00  BASE  2.38728  267  4.08072  271  -6.7  71    -11.2 226   0     M        NA       0.0000   9999     5150  7150  0    
2019/11/18  21:19:00  BASE  2.86356  257  4.08072  271  -6.7  71    -11.2 217   0     M        NA       0.0000   9999     5180  7250  0    
2019/11/18  21:20:00  BASE  2.78124  256  3.59856  274  -6.8  70    -11.3 211   0     M        NA       0.0000   9999     5220  7350  0    
2019/11/18  21:21:00  BASE  2.01096  266  3.41628  256  -6.8  70    -11.3 209   0     M        NA       0.0000   9999     7250  0     0    
2019/11/18  21:22:00  BASE  1.764    274  3.26928  257  -6.8  70    -11.3 208   0     M        NA       0.0000   9999     5050  7150  0    
2019/11/18  21:23:00  BASE  2.27556  263  3.38688  244  -6.7  70    -11.3 205   0     M        NA       0.0000   9999     5020  7020  0    
2019/11/18  21:24:00  BASE  2.25792  264  3.38688  244  -6.8  70    -11.3 201   0     M        NA       0.0000   9999     4790  7020  0    
2019/11/18  21:25:00  BASE  2.07564  282  3.38688  244  -6.7  70    -11.2 198   0     M        NA       0.0000   9999     4920  7120  0    
2019/11/18  21:26:00  BASE  2.38728  279  3.38688  244  -6.6  70    -11.1 196   0     M        NA       0.0000   9999     4950  6920  0    
2019/11/18  21:27:00  BASE  2.42844  268  3.38688  244  -6.6  70    -11.1 192   0     M        NA       0.0000   9999     4950  0     0    
2019/11/18  21:28:00  BASE  2.04624  278  3.38688  244  -6.6  70    -11.2 190   0     M        NA       0.0000   9999     5020  0     0    
2019/11/18  21:29:00  BASE  2.15796  290  3.38688  244  -6.6  70    -11.1 189   0     M        NA       0.0000   9999     5050  0     0    
2019/11/18  21:30:00  BASE  2.41668  292  3.38688  244  -6.6  70    -11.1 186   0     M        NA       0.0000   9999     4890  0     0    
2019/11/18  21:31:01  BASE  2.32848  287  3.38688  244  -6.6  70    -11.2 183   0     M        NA       0.0000   9999     4890  6890  0    
2019/11/18  21:32:01  BASE  2.05212  276  3.38688  244  -6.6  70    -11.1 181   0     M        NA       0.0000   9999     4890  0     0    
2019/11/18  21:33:01  BASE  1.71696  278  3.1458   264  -6.6  70    -11.1 178   0     M        NA       0.0000   9999     4890  6730  0    
2019/11/18  21:34:01  BASE  1.71696  289  3.1458   264  -6.6  71    -11.1 175   0     M        NA       0.0000   9999     4950  0     0    
2019/11/18  21:35:01  BASE  1.81104  288  3.1458   264  -6.6  71    -11.0 172   0     M        NA       0.0000   9999     4950  5680  0    
2019/11/18  21:36:01  BASE  1.90512  271  3.1458   264  -6.6  71    -11.0 167   0     M        NA       0.0000   9999     4950  6530  0    
2019/11/18  21:37:01  BASE  2.03448  254  2.81064  280  -6.7  71    -11.0 163   0     M        NA       0.0000   9999     4990  6230  0    
2019/11/18  21:38:01  BASE  2.11092  253  2.81064  280  -6.7  71    -11.0 160   0     M        NA       0.0000   9999     4720  5680  0    
2019/11/18  21:39:01  BASE  2.28144  255  2.81064  252  -6.7  72    -10.9 158   0     M        NA       0.0000   9999     4990  5710  0    
2019/11/18  21:40:01  BASE  2.47548  257  3.087    266  -6.7  72    -10.9 156   0     M        NA       0.0000   9999     4790  5940  0    
2019/11/18  21:41:01  BASE  2.85768  260  3.51036  259  -6.7  72    -10.9 155   0     M        NA       0.0000   9999     4790  5770  0    
2019/11/18  21:42:01  BASE  3.13404  259  3.51036  259  -6.8  72    -10.9 154   0     M        NA       0.0000   9999     4760  0     0    
2019/11/18  21:43:01  BASE  2.98116  259  3.51036  254  -6.8  72    -10.9 153   0     M        NA       0.0000   9999     4660  0     0    
2019/11/18  21:44:01  BASE  3.0282   257  3.51036  254  -6.8  72    -11.0 152   0     M        NA       0.0000   9999     4790  0     0    
2019/11/18  21:45:01  BASE  2.89296  254  3.51036  254  -6.8  71    -11.1 152   0     M        NA       0.0000   9999     5350  5810  0    
2019/11/18  21:46:01  BASE  2.21676  254  3.51036  254  -6.8  71    -11.2 154   0     M        NA       0.0000   9999     5740  0     0    
2019/11/18  21:47:01  BASE  2.00508  258  3.51036  254  -6.8  71    -11.2 156   0     M        NA       0.0000   9999     6140  0     0    
2019/11/18  21:48:01  BASE  2.1462   266  3.51036  254  -6.8  71    -11.2 157   0     M        NA       0.0000   9999     6430  0     0    
2019/11/18  21:49:01  BASE  2.53428  268  3.51036  254  -6.8  71    -11.2 155   0     M        NA       0.0000   9999     6530  0     0    
2019/11/18  21:50:01  BASE  2.94     264  3.51036  254  -6.8  71    -11.2 152   0     M        NA       0.0000   9999     4820  6430  0    
2019/11/18  21:51:01  BASE  2.72244  263  3.51036  254  -6.8  71    -11.2 150   0     M        NA       0.0000   9999     6170  0     0    
2019/11/18  21:52:00  BASE  2.31672  264  3.51036  254  -6.8  71    -11.2 149   0     M        NA       0.0000   9999     6040  0     0    
2019/11/18  21:53:00  BASE  2.01096  267  3.41628  263  -6.8  71    -11.2 147   0     M        NA       0.0000   9999     5540  0     0    
2019/11/18  21:54:00  BASE  2.11092  268  3.41628  263  -6.8  71    -11.2 144   0     M        NA       0.0000   9999     5970  0     0    
2019/11/18  21:55:00  BASE  2.34024  266  3.41628  263  -6.8  71    -11.2 140   0     M        NA       0.0000   9999     4760  6200  0    
2019/11/18  21:56:00  BASE  2.63424  272  3.41628  263  -6.8  71    -11.2 137   0     M        NA       0.0000   9999     4760  22050 0    
2019/11/18  21:57:00  BASE  2.79888  281  3.41628  263  -6.8  71    -11.2 133   0     M        NA       0.0000   9999     4720  0     0    
2019/11/18  21:58:00  BASE  2.66364  289  3.41628  263  -6.8  71    -11.2 130   0     M        NA       0.0000   9999     4630  5840  0    
2019/11/18  21:59:00  BASE  2.7636   297  3.234    302  -6.8  71    -11.2 130   0     M        NA       0.0000   9999     4690  5640  0    
2019/11/18  22:00:00  BASE  2.79888  302  3.234    302  -6.7  71    -11.2 131   0     M        NA       0.0000   9999     4530  0     0    
2019/11/18  22:01:00  BASE  2.37552  305  3.234    302  -6.7  70    -11.2 132   0     M        NA       0.0000   9999     4720  5740  0    
2019/11/18  22:02:00  BASE  2.01684  300  3.234    302  -6.7  70    -11.2 133   0     M        NA       0.0000   9999     5580  6140  0    
2019/11/18  22:03:00  BASE  1.99332  298  3.234    302  -6.7  70    -11.3 133   0     M        NA       0.0000   9999     6140  0     0    
2019/11/18  22:04:00  BASE  2.16384  298  3.234    302  -6.7  70    -11.2 130   0     M        NA       0.0000   9999     5970  0     0    
2019/11/18  22:05:00  BASE  2.50488  299  3.29868  302  -6.7  70    -11.2 128   0     M        NA       0.0000   9999     4820  0     0    
2019/11/18  22:06:00  BASE  2.93412  300  3.29868  296  -6.6  70    -11.1 126   0     M        NA       0.0000   9999     4630  0     0    
2019/11/18  22:07:00  BASE  3.03996  298  3.29868  296  -6.6  71    -11.1 125   0     M        NA       0.0000   9999     4660  0     0    
2019/11/18  22:08:00  BASE  2.9106   296  3.29868  296  -6.6  71    -11.0 124   0     M        NA       0.0000   9999     4720  0     0    
2019/11/18  22:09:00  BASE  2.793    292  3.29868  296  -6.6  71    -11.0 123   0     M        NA       0.0000   9999     4690  5870  0    
2019/11/18  22:10:00  BASE  2.57544  292  3.29868  296  -6.6  71    -11.0 121   0     M        NA       0.0000   9999     4720  5810  0    
2019/11/18  22:11:00  BASE  2.352    292  3.29868  296  -6.6  71    -11.0 120   0     M        NA       0.0000   9999     4460  0     0    
2019/11/18  22:12:00  BASE  2.10504  293  3.29868  296  -6.6  71    -11.0 119   0     M        NA       0.0000   9999     4400  0     0    
2019/11/18  22:13:00  BASE  2.01096  295  3.29868  296  -6.6  71    -10.9 120   0     M        NA       0.0000   9999     4430  0     0    
2019/11/18  22:14:00  BASE  1.9698   298  3.29868  296  -6.6  72    -10.9 119   0     M        NA       0.0000   9999     4360  0     0    
2019/11/18  22:15:00  BASE  1.911    297  3.29868  296  -6.6  72    -10.8 119   0     M        NA       0.0000   9999     4300  0     0    
2019/11/18  22:16:00  BASE  1.85808  301  3.234    294  -6.6  72    -10.8 117   0     M        NA       0.0000   9999     4300  0     0    
2019/11/18  22:17:00  BASE  1.81692  316  3.1458   289  -6.6  72    -10.9 115   0     M        NA       0.0000   9999     4330  0     0    
2019/11/18  22:18:00  BASE  1.66404  326  3.1458   289  -6.7  72    -10.9 114   0     M        NA       0.0000   9999     4170  0     0    
2019/11/18  22:19:00  BASE  1.37004  318  2.75184  290  -6.7  71    -11.0 114   0     M        NA       0.0000   9999     4270  0     0    
2019/11/18  22:20:00  BASE  1.21128  315  2.48136  296  -6.7  71    -11.1 114   0     M        NA       0.0000   9999     4170  22440 0    
2019/11/18  22:21:00  BASE  1.08192  321  2.48136  296  -6.7  71    -11.1 115   0     M        NA       0.0000   9999     4330  0     0    
2019/11/18  22:22:00  BASE  0.9702   321  2.48136  296  -6.7  71    -11.0 114   0     M        NA       0.0000   9999     4100  0     0    
2019/11/18  22:23:00  BASE  1.02312  329  2.21088  292  -6.7  71    -11.0 113   0     M        NA       0.0000   9999     4230  0     0    
2019/11/18  22:24:00  BASE  1.32888  325  2.21088  292  -6.7  72    -11.0 112   0     M        NA       0.0000   9999     4330  0     0    
2019/11/18  22:25:00  BASE  1.60524  313  2.0874   311  -6.7  72    -11.0 112   0     M        NA       0.0000   9999     3870  0     0    
2019/11/18  22:26:00  BASE  1.56408  309  2.058    326  -6.7  72    -10.9 112   0     M        NA       0.0000   9999     4040  0     0    
2019/11/18  22:27:00  BASE  1.22892  304  1.96392  312  -6.8  72    -11.0 112   0     M        NA       0.0000   9999     4100  0     0    
2019/11/18  22:28:00  BASE  1.029    309  1.96392  312  -6.8  72    -11.1 111   0     M        NA       0.0000   9999     3510  4460  0    
2019/11/18  22:29:00  BASE  1.10544  321  1.96392  312  -6.8  71    -11.1 110   0     M        NA       0.0000   9999     2990  0     0    
2019/11/18  22:30:00  BASE  1.323    333  1.96392  312  -6.8  71    -11.1 109   0     M        NA       0.0000   9999     2950  0     0    
2019/11/18  22:31:00  BASE  1.58172  341  1.96392  312  -6.8  71    -11.2 108   0     M        NA       0.0000   9999     3710  0     0    
2019/11/18  22:32:00  BASE  1.5288   337  1.96392  312  -6.8  71    -11.2 106   0     M        NA       0.0000   9999     3870  6000  0    
2019/11/18  22:33:00  BASE  1.56408  336  2.1462   339  -6.8  71    -11.2 103   0     M        NA       0.0000   9999     3770  0     0    
2019/11/18  22:34:00  BASE  1.97568  337  2.29908  338  -6.8  71    -11.1 99    0     M        NA       0.0000   9999     3940  0     0    
2019/11/18  22:35:00  BASE  2.26968  333  2.54016  321  -6.7  71    -11.0 96    0     M        NA       0.0000   9999     3940  0     0    
2019/11/18  22:36:00  BASE  2.43432  325  2.69304  321  -6.7  72    -11.0 93    0     M        NA       0.0000   9999     3970  0     0    
2019/11/18  22:37:01  BASE  2.47548  322  2.69304  321  -6.7  72    -10.9 91    0     M        NA       0.0000   9999     3870  4530  0    
2019/11/18  22:38:01  BASE  2.45196  324  2.69304  321  -6.7  72    -10.9 89    0     M        NA       0.0000   9999     4000  4530  0    
2019/11/18  22:39:01  BASE  2.499    334  2.69304  337  -6.7  72    -10.9 88    0     M        NA       0.0000   9999     3970  4590  0    
2019/11/18  22:40:01  BASE  2.51076  340  2.69304  337  -6.7  72    -10.9 87    0     M        NA       0.0000   9999     3740  4690  0    
2019/11/18  22:41:01  BASE  2.31672  341  2.69304  337  -6.8  72    -11.0 86    0     M        NA       0.0000   9999     3740  4460  0    
2019/11/18  22:42:01  BASE  2.09916  347  2.69304  337  -6.8  72    -11.0 85    0     M        NA       0.0000   9999     3540  4920  23130
2019/11/18  22:43:01  BASE  1.96392  348  2.69304  337  -6.8  72    -11.0 84    0     M        NA       0.0000   9999     3540  4950  0    
2019/11/18  22:44:01  BASE  1.8228   339  2.69304  337  -6.8  72    -11.1 82    0     M        NA       0.0000   9999     4560  0     0    
2019/11/18  22:45:01  BASE  1.65228  328  2.69304  337  -6.8  71    -11.1 80    0     M        NA       0.0000   9999     4100  0     0    
2019/11/18  22:46:01  BASE  1.32888  327  2.69304  337  -6.8  71    -11.1 79    0     M        NA       0.0000   9999     4040  4760  0    
2019/11/18  22:47:01  BASE  1.38768  336  2.69304  337  -6.8  71    -11.2 77    0     M        NA       0.0000   9999     3900  4660  0    
2019/11/18  22:48:01  BASE  1.69932  354  2.69304  337  -6.8  71    -11.2 75    0     M        NA       0.0000   9999     3770  4460  0    
2019/11/18  22:49:01  BASE  1.7052   360  2.66364  341  -6.8  71    -11.2 73    0     M        NA       0.0000   9999     3840  0     0    
2019/11/18  22:50:01  BASE  1.62876  351  2.21088  348  -6.8  71    -11.2 72    0     M        NA       0.0000   9999     3870  0     0    
2019/11/18  22:51:01  BASE  1.72284  347  2.21088  348  -6.8  71    -11.2 71    0     M        NA       0.0000   9999     4400  0     0    
2019/11/18  22:52:01  BASE  1.66404  342  2.1462   337  -6.8  71    -11.3 71    0     M        NA       0.0000   9999     4330  0     0    
2019/11/18  22:53:01  BASE  1.37004  340  2.1462   337  -6.8  70    -11.3 72    0     M        NA       0.0000   9999     3250  0     0    
2019/11/18  22:54:01  BASE  1.49352  342  2.1462   337  -6.8  70    -11.4 73    0     M        NA       0.0000   9999     4270  0     0    
2019/11/18  22:55:01  BASE  1.78752  347  2.1462   337  -6.8  70    -11.4 74    0     M        NA       0.0000   9999     4170  0     0    
2019/11/18  22:56:01  BASE  1.77576  342  2.1462   337  -6.8  70    -11.3 73    0     M        NA       0.0000   9999     4070  0     0    
2019/11/18  22:57:01  BASE  1.74636  338  2.0874   4    -6.8  71    -11.2 70    0     M        NA       0.0000   9999     4270  0     0    
2019/11/18  22:58:01  BASE  1.6758   337  1.9992   339  -6.8  71    -11.2 69    0     M        NA       0.0000   9999     4100  0     0    
2019/11/18  22:59:01  BASE  1.01136  338  1.9992   339  -6.8  71    -11.1 67    0     M        NA       0.0000   9999     4100  0     0    
2019/11/18  23:00:01  BASE  0.66444  343  1.9992   339  -6.8  71    -11.1 65    0     M        NA       0.0000   9999     4070  0     0    
2019/11/18  23:01:00  BASE  1.5288   344  2.54016  349  -6.8  71    -11.1 64    0     M        NA       0.0000   9999     3940  0     0    
2019/11/18  23:02:00  BASE  2.39904  344  2.84592  342  -6.8  71    -11.1 63    0     M        NA       0.0000   9999     3970  0     0    
2019/11/18  23:03:00  BASE  2.56956  339  2.84592  342  -6.8  71    -11.2 61    0     M        NA       0.0000   9999     4040  0     0    
2019/11/18  23:04:00  BASE  2.46372  327  2.84592  342  -6.7  71    -11.1 60    0     M        NA       0.0000   9999     4170  0     0    
2019/11/18  23:05:00  BASE  2.3226   315  2.84592  342  -6.7  71    -11.1 60    0     M        NA       0.0000   9999     4170  0     0    
2019/11/18  23:06:00  BASE  1.82868  314  2.84592  342  -6.7  71    -11.1 60    0     M        NA       0.0000   9999     4100  0     0    
2019/11/18  23:07:00  BASE  1.323    312  2.84592  342  -6.7  71    -11.1 59    0     M        NA       0.0000   9999     3940  0     0    
2019/11/18  23:08:00  BASE  1.19952  304  2.84592  342  -6.7  71    -11.1 59    0     M        NA       0.0000   9999     4070  0     0    
2019/11/18  23:09:00  BASE  1.01724  301  2.84592  342  -6.7  71    -11.1 58    0     M        NA       0.0000   9999     3970  0     0    
2019/11/18  23:10:00  BASE  0.45864  305  2.84592  342  -6.7  71    -11.2 58    0     M        NA       0.0000   9999     3970  0     0    
2019/11/18  23:11:00  BASE  0.28224  310  2.84592  342  -6.7  71    -11.2 58    0     M        NA       0.0000   9999     3900  0     0    
2019/11/18  23:12:00  BASE  0.86436  314  2.78124  337  -6.7  70    -11.2 57    0     M        NA       0.0000   9999     4070  0     0    
2019/11/18  23:13:00  BASE  1.176    320  2.63424  307  -6.8  70    -11.3 57    0     M        NA       0.0000   9999     4170  0     0    
2019/11/18  23:14:00  BASE  1.25832  336  2.63424  307  -6.8  70    -11.3 56    0     M        NA       0.0000   9999     4070  0     0    
2019/11/18  23:15:00  BASE  1.323    353  1.9992   313  -6.8  70    -11.3 56    0     M        NA       0.0000   9999     4170  0     0    
2019/11/18  23:16:00  BASE  1.49352  358  2.0286   352  -6.8  70    -11.3 55    0     M        NA       0.0000   9999     4100  0     0    
2019/11/18  23:17:00  BASE  2.21676  6    3.087    12   -6.7  70    -11.3 54    0     M        NA       0.0000   9999     4000  0     0    
2019/11/18  23:18:00  BASE  2.71656  13   3.087    12   -6.7  70    -11.3 52    0     M        NA       0.0000   9999     3940  0     0    
2019/11/18  23:19:00  BASE  2.84592  8    3.32808  352  -6.7  70    -11.3 51    0     M        NA       0.0000   9999     3900  0     0    
2019/11/18  23:20:00  BASE  2.88708  353  3.32808  352  -6.6  70    -11.3 50    0     M        NA       0.0000   9999     4040  0     0    
2019/11/18  23:21:00  BASE  2.68716  334  3.32808  352  -6.6  69    -11.3 49    0     M        NA       0.0000   9999     3900  0     0    
2019/11/18  23:22:00  BASE  2.52252  328  3.32808  352  -6.6  69    -11.4 49    0     M        NA       0.0000   9999     3810  0     0    
2019/11/18  23:23:00  BASE  1.8816   338  3.32808  352  -6.7  69    -11.4 48    0     M        NA       0.0000   9999     3770  0     0    
2019/11/18  23:24:00  BASE  1.25244  337  3.32808  352  -6.7  69    -11.5 47    0     M        NA       0.0000   9999     3840  0     0    
2019/11/18  23:25:00  BASE  1.30536  341  3.32808  352  -6.7  68    -11.5 46    0     M        NA       0.0000   9999     3900  0     0    
2019/11/18  23:26:00  BASE  1.34652  335  3.32808  352  -6.7  68    -11.6 45    0     M        NA       0.0000   9999     3970  0     0    
2019/11/18  23:27:01  BASE  1.176    319  3.32808  352  -6.7  68    -11.6 44    0     M        NA       0.0000   9999     3900  0     0    
2019/11/18  23:28:01  BASE  1.28772  329  3.32808  352  -6.7  68    -11.6 44    0     M        NA       0.0000   9999     3970  0     0    
2019/11/18  23:29:01  BASE  1.51704  343  3.1164   342  -6.7  68    -11.6 44    0     M        NA       0.0000   9999     3900  0     0    
2019/11/18  23:30:01  BASE  1.74048  333  3.1164   342  -6.7  68    -11.6 44    0     M        NA       0.0000   9999     3810  0     0    
2019/11/18  23:31:01  BASE  1.98156  324  3.1164   342  -6.7  68    -11.6 44    0     M        NA       0.0000   9999     3810  0     0    
2019/11/18  23:32:01  BASE  2.00508  319  2.42256  319  -6.7  68    -11.5 44    0     M        NA       0.0000   9999     3840  0     0    
2019/11/18  23:33:01  BASE  1.89336  303  2.42256  319  -6.7  69    -11.5 44    0     M        NA       0.0000   9999     3970  0     0    
2019/11/18  23:34:01  BASE  1.8816   293  2.42256  319  -6.6  69    -11.4 45    0     M        NA       0.0000   9999     4100  0     0    
2019/11/18  23:35:01  BASE  1.5876   283  2.42256  319  -6.7  69    -11.4 46    0     M        NA       0.0000   9999     4170  0     0    
2019/11/18  23:36:01  BASE  0.95844  274  2.42256  319  -6.7  69    -11.5 45    0     M        NA       0.0000   9999     4200  0     0    
2019/11/18  23:37:01  BASE  0.65856  264  2.42256  319  -6.7  68    -11.6 45    0     M        NA       0.0000   9999     4170  0     0    
2019/11/18  23:38:01  BASE  0.34104  252  2.42256  319  -6.7  68    -11.6 46    0     M        NA       0.0000   9999     4070  0     0    
2019/11/18  23:39:01  BASE  0.07644  237  2.42256  319  -6.8  68    -11.7 46    0     M        NA       0.0000   9999     4100  0     0    
2019/11/18  23:40:01  BASE  0.13524  228  2.32848  289  -6.8  68    -11.7 47    0     M        NA       0.0000   9999     4040  0     0    
2019/11/18  23:41:01  BASE  0.21756  226  2.32848  289  -6.8  68    -11.7 48    0     M        NA       0.0000   9999     4230  0     0    
2019/11/18  23:42:01  BASE  0.60564  261  2.32848  289  -6.8  68    -11.7 49    0     M        NA       0.0000   9999     4130  0     0    
2019/11/18  23:43:01  BASE  0.882    320  2.32848  289  -6.7  68    -11.6 51    0     M        NA       0.0000   9999     4170  0     0    
2019/11/18  23:44:01  BASE  0.60564  300  1.90512  274  -6.7  68    -11.6 53    0     M        NA       0.0000   9999     4270  0     0    
2019/11/18  23:45:01  BASE  0.21756  284  1.63464  335  -6.7  69    -11.6 54    0     M        NA       0.0000   9999     4300  0     0    
2019/11/18  23:46:01  BASE  0        307  1.63464  335  -6.7  69    -11.6 56    0     M        NA       0.0000   9999     4200  0     0    
2019/11/18  23:47:01  BASE  0.02352  10   1.63464  335  -6.8  69    -11.6 58    0     M        NA       0.0000   9999     4270  0     0    
2019/11/18  23:48:01  BASE  0.16464  69   1.63464  335  -6.8  68    -11.6 59    0     M        NA       0.0000   9999     4170  0     0    
2019/11/18  23:49:01  BASE  0.30576  86   1.63464  58   -6.8  68    -11.7 60    0     M        NA       0.0000   9999     4130  0     0    
2019/11/18  23:50:01  BASE  0.72324  45   1.63464  58   -6.8  68    -11.7 61    0     M        NA       0.0000   9999     4200  0     0    
2019/11/18  23:51:01  BASE  1.21128  354  1.69344  353  -6.8  68    -11.7 61    0     M        NA       0.0000   9999     4040  0     0    
2019/11/18  23:52:01  BASE  1.18776  353  1.69344  353  -6.8  68    -11.7 60    0     M        NA       0.0000   9999     4100  0     0    
2019/11/18  23:53:01  BASE  0.98784  351  1.69344  353  -6.8  68    -11.7 59    0     M        NA       0.0000   9999     4330  0     0    
2019/11/18  23:54:01  BASE  0.88788  347  1.69344  353  -6.8  68    -11.7 60    0     M        NA       0.0000   9999     4330  0     0    
2019/11/18  23:55:01  BASE  0.68796  345  1.69344  353  -6.8  68    -11.7 63    0     M        NA       0.0000   9999     4630  0     0    
2019/11/18  23:56:01  BASE  0.9114   357  1.69344  353  -6.8  68    -11.7 61    0     M        NA       0.0000   9999     4590  0     0    
2019/11/18  23:57:01  BASE  1.03488  350  1.69344  353  -6.8  68    -11.7 55    0     M        NA       0.0000   9999     4460  0     0    
2019/11/18  23:58:01  BASE  0.6174   334  1.69344  353  -6.8  68    -11.7 50    0     M        NA       0.0000   9999     4590  0     0    
2019/11/18  23:59:01  BASE  0.65268  353  1.69344  353  -6.8  68    -11.7 47    0     M        NA       0.0000   9999     4560  0     0